[[[{"header":{"parameterUnit":"kt","parameterCategory":2,"dx":1,"dy":1,"la1":29.587661999999998,"la2":31.0,"lo1":-88.76705300000003,"lo2":-86.6583820000003,"nx":115,"ny":88,"refTime":"2022-10-20T06:00:00:Z","depth":0,"parameterNumber":1,"parameterNumberName":"U-component_of_WINDS"},"data":[-5.5012,-5.5012,-5.5012,-5.5012,-5.5012,-5.5012,-5.5012,-5.5012,-5.5012,-5.5012,-5.4889,-5.4993,-5.5012,-5.4785,-5.2372,-4.9991,-4.7171,-4.5546,-4.2305,-3.8954,-3.9164,-3.8406,-3.7869,-3.7756,-3.7756,-3.7756,-3.7756,-3.7756,-3.7756,-3.7756,-3.7756,-3.7756,-3.7756,-3.7756,-3.7756,-3.7756,-3.7756,-3.7644,-3.7292,-3.7179,-3.7292,-3.6827,-3.5771,-3.3108,-2.9992,-2.6873,-2.3856,-2.0722,-1.9558,-1.9086,-1.9086,-1.9086,-1.9086,-1.9086,-1.9086,-1.9086,-1.9086,-1.9086,-1.9086,-1.9086,-1.9086,-1.9086,-1.9086,-1.9086,-1.9086,-1.9086,-1.9086,-1.9086,-1.8968,-1.8731,-1.8725,-1.8489,-1.8028,-1.4001,-1.0633,-0.7959,-0.4987,0.0,0.0,0.0,0.0,0.0,0.0,0.0,0.0,0.0,0.0,0.0,0.0,0.0,0.0,0.0,0.0,0.0,0.0,0.0,0.0,0.0,0.0,0.0,0.0,0.0,0.0,0.0,0.0,0.0,0.0,0.0,0.0,0.0,0.0,0.0,0.5776,0.7358,0.846,-5.5012,-5.5012,-5.5012,-5.5012,-5.5012,-5.5012,-5.5012,-5.5012,-5.5012,-5.5012,-5.5012,-5.5012,-5.5012,-5.5012,-5.435,-5.2372,-5.0416,-4.8461,-4.522,-4.2401,-4.1213,-3.9598,-3.8406,-3.7756,-3.7756,-3.7756,-3.7756,-3.7756,-3.7756,-3.7756,-3.7756,-3.7756,-3.7756,-3.7756,-3.7756,-3.7756,-3.7756,-3.7756,-3.7756,-3.7756,-3.7756,-3.7644,-3.5897,-3.3233,-2.9992,-2.6883,-2.3856,-2.1185,-1.944,-1.9092,-1.9086,-1.9086,-1.9086,-1.9086,-1.9086,-1.9086,-1.9086,-1.9086,-1.9086,-1.9086,-1.9086,-1.9086,-1.9086,-1.9086,-1.9086,-1.9086,-1.9086,-1.9086,-1.9086,-1.8968,-1.8961,-1.8928,-1.8784,-1.6989,-1.4075,-1.1183,-0.7543,0.0,0.0,0.0,0.0,0.0,0.0,0.0,0.0,0.0,0.0,0.0,0.0,0.0,0.0,0.0,0.0,0.0,0.0,0.0,0.0,0.0,0.0,0.0,0.0,0.0,0.0,0.0,0.0,0.0,0.0,0.0,0.0,0.0,0.0,0.0,0.0,0.4379,0.544,-5.5012,-5.5012,-5.5012,-5.5012,-5.5012,-5.5012,-5.5012,-5.5012,-5.5012,-5.5012,-5.5012,-5.5012,-5.5012,-5.5012,-5.5012,-5.3354,-5.1052,-5.0823,-4.737,-4.369,-4.142,-4.0463,-3.8842,-3.7756,-3.7869,-3.7756,-3.7756,-3.7756,-3.7756,-3.7756,-3.7756,-3.7756,-3.7756,-3.7756,-3.7756,-3.7756,-3.7756,-3.7756,-3.7756,-3.7756,-3.7756,-3.7756,-3.6714,-3.5544,-3.2651,-2.9647,-2.6409,-2.3514,-2.1185,-1.9558,-1.9551,-1.944,-1.9322,-1.9086,-1.9086,-1.9086,-1.9086,-1.9086,-1.9086,-1.9086,-1.9086,-1.9086,-1.9086,-1.9086,-1.9086,-1.9086,-1.9086,-1.9086,-1.9086,-1.9053,-1.9046,-1.8921,-1.8776,-1.8598,-1.6251,-1.3909,-1.0937,-0.7563,-0.5016,-0.3046,-0.1958,-0.1741,0.0,0.0,0.0,0.0,0.0,0.0,0.0,0.0,0.0,0.0,0.0,0.0,0.0,0.0,0.0,0.0,0.0,0.0,0.0,0.0,0.0,0.0,0.0,0.0,0.0,0.0,0.0,0.0,0.0,0.0,0.0,0.1419,0.0,-5.5012,-5.5012,-5.5012,-5.5012,-5.5012,-5.5012,-5.5012,-5.5012,-5.5012,-5.5012,-5.5012,-5.5012,-5.5012,-5.5012,-5.5012,-5.4227,-5.2267,-5.2038,-4.8568,-4.5965,-4.4768,-4.3486,-3.9585,-3.9276,-3.8406,-3.8081,-3.7756,-3.7756,-3.7756,-3.7756,-3.7756,-3.7756,-3.7756,-3.7756,-3.7756,-3.7756,-3.7756,-3.7756,-3.7756,-3.7756,-3.7756,-3.7756,-3.7644,-3.6588,-3.4725,-3.1496,-2.9637,-2.6641,-2.3748,-2.1882,-2.1413,-2.0715,-2.0141,-1.944,-1.9092,-1.9086,-1.9086,-1.9086,-1.9086,-1.9086,-1.9086,-1.9086,-1.9086,-1.9086,-1.9086,-1.9086,-1.9086,-1.9086,-1.9073,-1.9026,-1.896,-1.8789,-1.8624,-1.8426,-1.7897,-1.629,-1.46,-1.1503,-0.8479,-0.6624,-0.4778,-0.3261,-0.1632,0.0,0.0,0.0,0.0,0.0,0.0,0.0,0.0,0.0,0.0,0.0,0.0,0.0,0.0,0.0,0.0,0.0,0.0,0.0,0.0,0.0,0.0,0.0,0.0,0.0,0.0,0.0,0.0,0.0,0.0,0.0,0.0,-5.5012,-5.5012,-5.5012,-5.5012,-5.5012,-5.5012,-5.5012,-5.5012,-5.5012,-5.5012,-5.5012,-5.5012,-5.5012,-5.5012,-5.5012,-5.4558,-5.4123,-5.3914,-5.1827,-5.0062,-4.8782,-4.5639,-4.2511,-4.1435,-3.9598,-3.8293,-3.7756,-3.7756,-3.7756,-3.7756,-3.7756,-3.7756,-3.7756,-3.7756,-3.7756,-3.7756,-3.7756,-3.7756,-3.7756,-3.7756,-3.7756,-3.7756,-3.7644,-3.7179,-3.5305,-3.2868,-3.1828,-3.0107,-2.7925,-2.7694,-2.6989,-2.5596,-2.3397,-2.1193,-1.9669,-1.9204,-1.9086,-1.9086,-1.9086,-1.9086,-1.9086,-1.9086,-1.9086,-1.9086,-1.9086,-1.9086,-1.9086,-1.9086,-1.8987,-1.8928,-1.8769,-1.8591,-1.8354,-1.8123,-1.7952,-1.7076,-1.5804,-1.4187,-1.1718,-1.0093,-0.8138,-0.532,-0.3587,0.0,0.0,0.0,0.0,0.0,0.0,0.0,0.0,0.0,0.0,0.0,0.0,0.0,0.0,0.0,0.0,0.0,0.0,0.0,0.0,0.0,0.0,0.0,0.0,0.0,0.0,0.0,0.0,0.0,0.0,0.0,0.0,-5.5012,-5.5012,-5.5012,-5.5012,-5.5012,-5.5012,-5.5012,-5.5012,-5.5012,-5.5012,-5.5012,-5.5012,-5.5012,-5.5012,-5.5012,-5.5012,-5.5012,-5.4889,-5.3686,-5.1493,-5.0399,-4.7046,-4.391,-4.1642,-4.0463,-3.8617,-3.7756,-3.7756,-3.7756,-3.7756,-3.7756,-3.7756,-3.7756,-3.7756,-3.7756,-3.7756,-3.7756,-3.7756,-3.7756,-3.7756,-3.7756,-3.7756,-3.7756,-3.7531,-3.6953,-3.4737,-3.2982,-3.2286,-2.9992,-2.8619,-2.8388,-2.7569,-2.6641,-2.3631,-2.1648,-1.9322,-1.9204,-1.9086,-1.9086,-1.9086,-1.9086,-1.9086,-1.9086,-1.9086,-1.9086,-1.9079,-1.9079,-1.9026,-1.8914,-1.8769,-1.8578,-1.8374,-1.8202,-1.7924,-1.7662,-1.7504,-1.679,-1.6074,-1.4866,-1.346,-1.1178,-0.8138,-0.5646,-0.3804,0.0,0.0,0.0,0.0,0.0,0.0,0.0,0.0,0.0,0.0,0.0,0.0,0.0,0.0,0.0,0.0,0.0,0.0,0.0,0.0,0.0,0.0,0.0,0.0,0.0,0.0,0.0,0.0,0.0,0.0,0.0,-5.5012,-5.5012,-5.5012,-5.5012,-5.5012,-5.5012,-5.5012,-5.5012,-5.5012,-5.5012,-5.5012,-5.5012,-5.5012,-5.5012,-5.5012,-5.5012,-5.5012,-5.4681,-5.3458,-5.2916,-5.2354,-4.8782,-4.5981,-4.38,-4.1435,-3.971,-3.8194,-3.7756,-3.7756,-3.7756,-3.7756,-3.7756,-3.7756,-3.7756,-3.7756,-3.7756,-3.7756,-3.7756,-3.7756,-3.7756,-3.7756,-3.7756,-3.7756,-3.7756,-3.7405,-3.6601,-3.5192,-3.4498,-3.3689,-3.185,-3.1392,-3.0233,-2.9877,-2.6758,-2.374,-2.0833,-1.9433,-1.9086,-1.9086,-1.9086,-1.9086,-1.9086,-1.9086,-1.9086,-1.9086,-1.9079,-1.904,-1.8928,-1.8796,-1.8512,-1.8275,-1.809,-1.7866,-1.7668,-1.753,-1.7323,-1.7196,-1.672,-1.6613,-1.5416,-1.498,-1.1934,-0.8463,-0.6296,-0.3913,-0.1959,0.0,0.0,0.0,0.0,0.0,0.0,0.0,0.0,0.0,0.0,0.0,0.0,0.0,0.0,0.0,0.0,0.0,0.0,0.0,0.0,0.0,0.0,0.0,0.0,0.0,0.0,0.0,0.0,0.0,-5.5012,-5.5012,-5.5012,-5.5012,-5.5012,-5.5012,-5.5012,-5.5012,-5.5012,-5.5012,-5.5012,-5.5012,-5.5012,-5.5012,-5.5012,-5.5012,-5.5012,-5.5012,-5.4558,-5.4454,-5.4123,-5.2267,-4.9654,-4.7171,-4.4566,-4.1863,-3.9697,-3.8729,-3.7969,-3.7869,-3.7756,-3.7756,-3.7756,-3.7756,-3.7756,-3.7756,-3.7756,-3.7756,-3.7756,-3.7756,-3.7756,-3.7756,-3.7756,-3.7756,-3.7756,-3.7292,-3.7053,-3.6827,-3.6714,-3.6714,-3.6714,-3.5192,-3.2994,-2.9992,-2.6864,-2.374,-2.0715,-1.9669,-1.9204,-1.9086,-1.9086,-1.9086,-1.9086,-1.9086,-1.9073,-1.904,-1.8941,-1.8802,-1.8565,-1.8255,-1.7985,-1.7813,-1.7649,-1.7543,-1.7297,-1.7277,-1.7378,-1.7372,-1.7372,-1.7157,-1.672,-1.4872,-1.1174,-0.8355,-0.5754,-0.4021,0.0,0.0,0.0,0.0,0.0,0.0,0.0,0.0,0.0,0.0,0.0,0.0,0.0,0.0,0.0,0.0,0.0,0.0,0.0,0.0,0.0,0.0,0.0,0.0,0.0,0.0,0.0,0.0,0.0,-5.5012,-5.5012,-5.5012,-5.5012,-5.5012,-5.5012,-5.5012,-5.5012,-5.5012,-5.5012,-5.5012,-5.5012,-5.5012,-5.5012,-5.5012,-5.5012,-5.5012,-5.5012,-5.5012,-5.5012,-5.5012,-5.3354,-5.1493,-4.9334,-4.7154,-4.4799,-4.2195,-4.0352,-4.0227,-3.8617,-3.7856,-3.7756,-3.7756,-3.7756,-3.7756,-3.7756,-3.7756,-3.7756,-3.7756,-3.7756,-3.7756,-3.7756,-3.7756,-3.7756,-3.7756,-3.7756,-3.7756,-3.7756,-3.7644,-3.7531,-3.7518,-3.694,-3.5658,-3.3119,-3.0107,-2.6989,-2.3856,-2.1185,-1.9669,-1.9204,-1.9086,-1.9086,-1.9086,-1.9086,-1.9073,-1.8934,-1.8789,-1.8565,-1.8268,-1.8136,-1.7937,-1.7602,-1.749,-1.7471,-1.7271,-1.7271,-1.7372,-1.7372,-1.7372,-1.7372,-1.6828,-1.5201,-1.2915,-1.0309,-0.803,-0.6516,-0.5107,0.0,0.0,0.0,0.0,0.0,0.0,0.0,0.0,0.0,0.0,0.0,0.0,0.0,0.0,0.0,0.0,0.0,0.0,0.0,0.0,0.0,0.0,0.0,0.0,0.0,0.0,0.0,0.0,-5.5012,-5.5012,-5.5012,-5.5012,-5.5012,-5.5012,-5.5012,-5.5012,-5.5012,-5.5012,-5.5012,-5.5012,-5.5012,-5.5012,-5.5012,-5.5012,-5.5012,-5.5012,-5.5012,-5.5012,-5.5012,-5.3581,-5.2372,-5.107,-4.9547,-4.7386,-4.4909,-4.3157,-4.2055,-4.0435,-3.9052,-3.7869,-3.7756,-3.7756,-3.7756,-3.7756,-3.7756,-3.7756,-3.7756,-3.7756,-3.7756,-3.7756,-3.7756,-3.7756,-3.7756,-3.7756,-3.7756,-3.7756,-3.7756,-3.7756,-3.7756,-3.7644,-3.694,-3.4384,-3.1954,-2.9992,-2.5489,-2.2703,-2.1303,-1.944,-1.9204,-1.9086,-1.9079,-1.904,-1.8954,-1.8763,-1.8565,-1.8341,-1.8136,-1.784,-1.7675,-1.7464,-1.7405,-1.7378,-1.7372,-1.7372,-1.7372,-1.7372,-1.7372,-1.7372,-1.7264,-1.5853,-1.4764,-1.2694,-1.085,-0.9336,-0.9119,-0.825,-0.6193,-0.5433,-0.4347,-0.2393,0.0,0.0,0.0,0.0,0.0,0.0,0.0,0.0,0.0,0.0,0.0,0.0,0.0,0.0,0.0,0.0,0.0,0.0,0.0,0.0,0.0,0.0,0.0,-5.5012,-5.5012,-5.5012,-5.5012,-5.5012,-5.5012,-5.5012,-5.5012,-5.5012,-5.5012,-5.5012,-5.5012,-5.5012,-5.5012,-5.5012,-5.5012,-5.5012,-5.5012,-5.5012,-5.5012,-5.5012,-5.5012,-5.3895,-5.2706,-5.1387,-5.0203,-4.7833,-4.5018,-4.2511,-4.1517,-3.9794,-3.8518,-3.8306,-3.8194,-3.7756,-3.7756,-3.7756,-3.7756,-3.7756,-3.7756,-3.7756,-3.7756,-3.7756,-3.7756,-3.7756,-3.7756,-3.7756,-3.7756,-3.7756,-3.7756,-3.7756,-3.7756,-3.7644,-3.5078,-3.345,-3.2514,-2.7328,-2.4557,-2.3389,-2.0722,-1.9524,-1.9144,-1.8987,-1.8895,-1.8723,-1.8578,-1.84,-1.8044,-1.791,-1.7635,-1.7504,-1.7378,-1.7378,-1.7372,-1.7372,-1.7372,-1.7372,-1.7372,-1.7372,-1.7372,-1.7264,-1.7049,-1.6176,-1.5088,-1.346,-1.292,-1.3028,-1.1615,-0.9227,-0.7708,-0.6299,-0.4456,0.0,0.0,0.0,0.0,0.0,0.0,0.0,0.0,0.0,0.0,0.0,0.0,0.0,0.0,0.0,0.0,0.0,0.0,0.0,0.0,0.0,0.0,0.0,-5.5012,-5.5012,-5.5012,-5.5012,-5.5012,-5.5012,-5.5012,-5.5012,-5.5012,-5.5012,-5.5012,-5.5012,-5.5012,-5.5012,-5.5012,-5.5012,-5.5012,-5.5012,-5.5012,-5.5012,-5.5012,-5.5012,-5.4785,-5.4123,-5.3249,-5.3039,-5.0769,-4.7833,-4.5002,-4.2922,-4.0991,-3.971,-3.95,-3.9052,-3.8518,-3.7756,-3.7756,-3.7756,-3.7756,-3.7756,-3.7756,-3.7756,-3.7756,-3.7756,-3.7756,-3.7756,-3.7756,-3.7756,-3.7756,-3.7756,-3.7756,-3.7756,-3.7405,-3.6601,-3.5192,-3.3336,-3.0901,-2.8128,-2.5014,-2.2438,-2.1324,-1.9431,-1.9048,-1.8644,-1.84,-1.8275,-1.8084,-1.787,-1.7602,-1.7471,-1.7424,-1.7372,-1.7372,-1.7372,-1.7372,-1.7372,-1.7372,-1.7372,-1.7372,-1.7372,-1.7264,-1.7264,-1.6613,-1.6284,-1.5303,-1.5303,-1.5201,-1.4112,-1.1939,-1.0309,-0.8683,-0.6841,-0.489,-0.3804,-0.2827,0.0,0.0,0.0,0.0,0.0,0.0,0.0,0.0,0.0,0.0,0.0,0.0,0.0,0.0,0.0,0.0,0.0,0.0,0.0,0.0,-5.5012,-5.5012,-5.5012,-5.5012,-5.5012,-5.5012,-5.5012,-5.5012,-5.5012,-5.5012,-5.5012,-5.5012,-5.5012,-5.5012,-5.5012,-5.5012,-5.5012,-5.5012,-5.5012,-5.5012,-5.5012,-5.5012,-5.5012,-5.4889,-5.4993,-5.4558,-5.3372,-5.0876,-4.8032,-4.683,-4.3706,-4.1656,-4.1531,-4.0672,-3.9375,-3.8505,-3.7969,-3.7756,-3.7756,-3.7756,-3.7756,-3.7756,-3.7756,-3.7756,-3.7756,-3.7756,-3.7756,-3.7756,-3.7756,-3.7756,-3.7756,-3.7756,-3.7531,-3.7644,-3.6588,-3.5192,-3.3336,-3.113,-2.8128,-2.7415,-2.5063,-2.1811,-1.9226,-1.8387,-1.8202,-1.8036,-1.789,-1.7616,-1.7471,-1.7418,-1.7372,-1.7372,-1.7372,-1.7372,-1.7372,-1.7372,-1.7372,-1.7372,-1.7372,-1.7372,-1.7372,-1.7372,-1.7372,-1.7372,-1.7372,-1.7264,-1.7157,-1.6613,-1.4872,-1.3239,-1.1615,-0.988,-0.7711,-0.6301,-0.4021,-0.261,0.0,0.0,0.0,0.0,0.0,0.0,0.0,0.0,0.0,0.0,0.0,0.0,0.0,0.0,0.0,0.0,0.0,0.0,0.0,-5.5389,-5.5474,-5.5389,-5.5408,-5.5389,-5.5097,-5.5012,-5.5012,-5.5012,-5.5012,-5.5012,-5.5012,-5.5012,-5.5012,-5.5012,-5.5012,-5.5012,-5.5012,-5.5012,-5.5012,-5.5012,-5.5012,-5.5012,-5.5012,-5.4993,-5.4993,-5.4454,-5.2811,-5.1052,-4.976,-4.8889,-4.6722,-4.4877,-4.3047,-4.1213,-3.9585,-3.8617,-3.7756,-3.7756,-3.7756,-3.7756,-3.7756,-3.7756,-3.7756,-3.7756,-3.7756,-3.7756,-3.7756,-3.7756,-3.7756,-3.7756,-3.7756,-3.7756,-3.7756,-3.7644,-3.6588,-3.5192,-3.3835,-3.23,-3.1439,-2.937,-2.4967,-2.1155,-1.8852,-1.791,-1.7754,-1.7649,-1.7444,-1.7418,-1.7372,-1.7372,-1.7372,-1.7372,-1.7372,-1.7372,-1.7372,-1.7372,-1.7372,-1.7372,-1.7372,-1.7372,-1.7372,-1.7372,-1.7372,-1.7372,-1.7372,-1.7157,-1.7157,-1.5847,-1.5303,-1.4004,-1.2812,-1.0529,-0.8253,-0.5648,-0.413,-0.3371,0.0,0.0,0.0,0.0,0.0,0.0,0.0,0.0,0.0,0.0,0.0,0.0,0.0,0.0,0.0,0.0,0.0,0.0,-5.9134,-6.0596,-5.8731,-5.794,-5.7757,-5.5784,-5.5012,-5.5012,-5.5012,-5.5012,-5.5012,-5.5012,-5.5012,-5.5012,-5.5012,-5.5012,-5.5012,-5.5012,-5.5012,-5.5012,-5.5012,-5.5012,-5.5012,-5.5012,-5.5012,-5.4993,-5.5012,-5.3581,-5.2267,-5.2249,-5.2249,-4.9637,-4.823,-4.6181,-4.3157,-4.1324,-3.9822,-3.8406,-3.8081,-3.7869,-3.7756,-3.7756,-3.7756,-3.7756,-3.7756,-3.7756,-3.7756,-3.7756,-3.7756,-3.7756,-3.7756,-3.7756,-3.7756,-3.7756,-3.7756,-3.7405,-3.694,-3.5974,-3.5028,-3.3465,-3.1179,-2.8243,-2.4965,-2.064,-1.8627,-1.7477,-1.7418,-1.7391,-1.7372,-1.7372,-1.7372,-1.7372,-1.7372,-1.7372,-1.7372,-1.7372,-1.7372,-1.7372,-1.7372,-1.7372,-1.7372,-1.7372,-1.7372,-1.7372,-1.7372,-1.7372,-1.7372,-1.7264,-1.7049,-1.6828,-1.6068,-1.5632,-1.346,-1.1507,-0.9768,-0.8361,-0.5973,0.0,0.0,0.0,0.0,0.0,0.0,0.0,0.0,0.0,0.0,0.0,0.0,0.0,0.0,0.0,0.0,0.0,0.0,-6.3281,-6.4254,-6.0517,-5.8953,-5.8549,-5.6093,-5.5012,-5.5012,-5.5012,-5.5012,-5.5012,-5.5012,-5.5012,-5.5012,-5.5012,-5.5012,-5.5012,-5.5012,-5.5012,-5.5012,-5.5012,-5.5012,-5.5012,-5.5012,-5.5012,-5.5012,-5.4785,-5.3686,-5.3667,-5.3999,-5.4435,-5.2477,-5.107,-4.8675,-4.6722,-4.4675,-4.2305,-4.0352,-3.9375,-3.894,-3.8081,-3.7756,-3.7756,-3.7756,-3.7756,-3.7756,-3.7756,-3.7756,-3.7756,-3.7756,-3.7756,-3.7756,-3.7756,-3.7756,-3.7756,-3.7756,-3.7756,-3.7345,-3.6618,-3.483,-3.2849,-3.0586,-2.8071,-2.4174,-2.1579,-2.0128,-1.8967,-1.7587,-1.7372,-1.7372,-1.7372,-1.7372,-1.7372,-1.7372,-1.7372,-1.7372,-1.7372,-1.7372,-1.7372,-1.7372,-1.7372,-1.7372,-1.7372,-1.7372,-1.7372,-1.7372,-1.7372,-1.7372,-1.7372,-1.7372,-1.7372,-1.7372,-1.5853,-1.4225,-1.3028,-1.2051,-0.9227,-0.7058,-0.619,-0.4345,-0.2393,0.0,0.0,0.0,0.0,0.0,0.0,0.0,0.0,0.0,-0.2466,0.0,0.0,0.0,0.0,-6.7314,-6.6912,-6.1983,-5.9616,-5.9134,-5.6774,-5.5389,-5.5097,-5.5012,-5.5012,-5.5012,-5.5012,-5.5012,-5.5012,-5.5012,-5.5012,-5.5012,-5.5012,-5.5012,-5.5012,-5.5012,-5.5012,-5.5012,-5.5012,-5.5012,-5.5012,-5.5012,-5.5012,-5.4662,-5.4662,-5.4785,-5.4435,-5.2583,-5.0734,-4.953,-4.7709,-4.5313,-4.2937,-4.207,-4.0658,-3.8729,-3.7982,-3.7756,-3.7756,-3.7756,-3.7756,-3.7756,-3.7756,-3.7756,-3.7756,-3.7756,-3.7756,-3.7756,-3.7756,-3.7756,-3.7743,-3.7475,-3.7228,-3.6696,-3.5768,-3.4396,-3.2172,-3.049,-2.9105,-2.6218,-2.3582,-2.0957,-1.8117,-1.7378,-1.7372,-1.7372,-1.7372,-1.7372,-1.7372,-1.7372,-1.7372,-1.7372,-1.7372,-1.7372,-1.7372,-1.7372,-1.7372,-1.7372,-1.7372,-1.7372,-1.7372,-1.7372,-1.7372,-1.7372,-1.7372,-1.7372,-1.7372,-1.6284,-1.5638,-1.4657,-1.4117,-1.1939,-0.9664,-0.8141,-0.6299,-0.4985,0.0,0.0,0.0,0.0,0.0,-0.3723,-0.4743,-0.5589,-0.5593,-0.5043,-0.4683,-0.4319,0.0,0.0,-7.0004,-6.9726,-6.6604,-6.3963,-6.1786,-5.9214,-5.696,-5.5305,-5.5097,-5.5097,-5.5012,-5.5012,-5.5012,-5.5012,-5.5012,-5.5012,-5.5012,-5.5012,-5.5012,-5.5012,-5.5012,-5.5012,-5.5012,-5.5012,-5.5012,-5.5012,-5.5012,-5.5012,-5.5012,-5.5012,-5.5012,-5.4662,-5.4662,-5.3249,-5.1387,-5.031,-4.8139,-4.5655,-4.3376,-4.1945,-4.0672,-3.9066,-3.7756,-3.7756,-3.7756,-3.7756,-3.7756,-3.7756,-3.7756,-3.7756,-3.7756,-3.7756,-3.7756,-3.7756,-3.7756,-3.7613,-3.6748,-3.6345,-3.5904,-3.5449,-3.459,-3.3245,-3.1424,-3.0198,-2.8398,-2.6623,-2.3899,-2.0957,-1.9067,-1.7587,-1.7372,-1.7372,-1.7372,-1.7372,-1.7372,-1.7372,-1.7372,-1.7372,-1.7372,-1.7372,-1.7372,-1.7372,-1.7372,-1.7372,-1.7372,-1.7372,-1.7372,-1.7372,-1.7372,-1.7372,-1.7372,-1.7372,-1.7157,-1.6613,-1.6182,-1.5638,-1.4112,-1.2159,-1.0633,-0.8875,-0.7769,-0.6556,0.0,0.0,-0.4648,-0.5399,-0.6183,-0.7225,-0.8129,-0.8468,-0.774,-0.7215,-0.6798,-0.5543,-0.3831,-7.079,-7.049,-6.7998,-6.6032,-6.4448,-6.1885,-5.9315,-5.7062,-5.6877,-5.6177,-5.5305,-5.5012,-5.5012,-5.5012,-5.5012,-5.5012,-5.5012,-5.5012,-5.5012,-5.5012,-5.5012,-5.5012,-5.5012,-5.5012,-5.5012,-5.5012,-5.5012,-5.5012,-5.5012,-5.5012,-5.5012,-5.5012,-5.5012,-5.435,-5.3126,-5.2601,-5.107,-4.8889,-4.7046,-4.5748,-4.4034,-4.1324,-3.9052,-3.8181,-3.7756,-3.7756,-3.7756,-3.7756,-3.7756,-3.7756,-3.7756,-3.7756,-3.7756,-3.773,-3.7527,-3.7189,-3.6722,-3.6202,-3.5475,-3.506,-3.4436,-3.4139,-3.3035,-3.2071,-3.1325,-2.9553,-2.7355,-2.5049,-2.2427,-1.8853,-1.7587,-1.7372,-1.7372,-1.7372,-1.7372,-1.7372,-1.7372,-1.7372,-1.7372,-1.7372,-1.7372,-1.7372,-1.7372,-1.7372,-1.7372,-1.7372,-1.7372,-1.7372,-1.7372,-1.7372,-1.7372,-1.7372,-1.7264,-1.6942,-1.6828,-1.6613,-1.5739,-1.4759,-1.3552,-1.1973,-1.052,-0.8424,-0.7345,-0.7478,-0.8251,-0.9136,-0.9682,-0.9661,-1.0709,-1.1569,-1.0781,-1.0093,-0.952,-0.8589,-0.6972,-7.079,-7.0582,-6.8374,-6.7219,-6.6532,-6.4448,-6.1983,-5.9817,-5.8932,-5.7655,-5.5784,-5.5201,-5.5012,-5.5012,-5.5012,-5.5012,-5.5012,-5.5012,-5.5012,-5.5012,-5.5012,-5.5012,-5.5012,-5.5012,-5.5012,-5.5012,-5.5012,-5.5012,-5.5012,-5.5012,-5.5012,-5.5012,-5.5012,-5.5012,-5.4681,-5.4785,-5.3354,-5.1493,-5.031,-4.8889,-4.6847,-4.4253,-4.1642,-3.9052,-3.8081,-3.7756,-3.7756,-3.7756,-3.7756,-3.7756,-3.7756,-3.7691,-3.7475,-3.7449,-3.7163,-3.6735,-3.6384,-3.5891,-3.5175,-3.4851,-3.4631,-3.4332,-3.3972,-3.3972,-3.3536,-3.1968,-3.0187,-2.8502,-2.5364,-2.2003,-1.9067,-1.8746,-1.8324,-1.811,-1.8324,-1.8117,-1.7687,-1.7795,-1.8324,-1.7479,-1.7372,-1.7372,-1.7372,-1.7372,-1.7372,-1.7372,-1.7372,-1.7372,-1.7372,-1.7372,-1.7372,-1.7372,-1.7372,-1.7372,-1.7372,-1.7264,-1.7144,-1.6056,-1.5418,-1.3834,-1.2881,-1.0573,-1.0176,-1.1208,-1.206,-1.2252,-1.2231,-1.2302,-1.2949,-1.3515,-1.3316,-1.3003,-1.211,-1.0981,-0.9593,-7.079,-7.0698,-7.0281,-6.8841,-6.703,-6.6459,-6.4737,-6.2082,-5.9917,-5.8731,-5.796,-5.5887,-5.5012,-5.5012,-5.5012,-5.5012,-5.5012,-5.5012,-5.5012,-5.5012,-5.5012,-5.5012,-5.5012,-5.5012,-5.5012,-5.5012,-5.5012,-5.5012,-5.5012,-5.5012,-5.5012,-5.5012,-5.5012,-5.5012,-5.5012,-5.4993,-5.4558,-5.3791,-5.2162,-5.0628,-4.9654,-4.7154,-4.4456,-4.1642,-3.971,-3.8181,-3.8194,-3.7869,-3.7756,-3.7756,-3.7756,-3.7384,-3.7072,-3.6877,-3.667,-3.6111,-3.5696,-3.5239,-3.4877,-3.4631,-3.4345,-3.4228,-3.419,-3.419,-3.419,-3.3446,-3.2174,-3.0498,-2.8815,-2.6717,-2.4733,-2.2321,-2.1063,-2.0957,-2.0957,-1.98,-1.8424,-1.948,-1.9273,-1.8217,-1.7587,-1.7372,-1.7372,-1.7372,-1.7372,-1.7372,-1.7372,-1.7372,-1.7372,-1.7372,-1.7372,-1.7372,-1.7372,-1.7372,-1.7372,-1.7264,-1.7231,-1.6745,-1.6704,-1.595,-1.5623,-1.3999,-1.3157,-1.4432,-1.4628,-1.4585,-1.4554,-1.4167,-1.4403,-1.5152,-1.5152,-1.4836,-1.4188,-1.3381,-1.2539,-7.079,-7.079,-7.079,-7.0004,-6.9028,-6.8841,-6.7385,-6.4737,-6.218,-6.0197,-5.8549,-5.6177,-5.4993,-5.5012,-5.5012,-5.5012,-5.5012,-5.5012,-5.5012,-5.5012,-5.5012,-5.5012,-5.5012,-5.5012,-5.5012,-5.5012,-5.5012,-5.5012,-5.5012,-5.5012,-5.5012,-5.5012,-5.5012,-5.5012,-5.5012,-5.4993,-5.5012,-5.4558,-5.3581,-5.3021,-5.2583,-5.0186,-4.7693,-4.629,-4.2401,-4.0018,-3.9697,-3.863,-3.7869,-3.7579,-3.7358,-3.7046,-3.68,-3.6501,-3.6072,-3.5592,-3.5071,-3.4877,-3.4644,-3.4345,-3.419,-3.419,-3.419,-3.419,-3.419,-3.419,-3.3433,-3.229,-3.0705,-2.8815,-2.6204,-2.4312,-2.4004,-2.3793,-2.3899,-2.2648,-2.0539,-2.0638,-2.0858,-1.9907,-1.8324,-1.7687,-1.7372,-1.7372,-1.7372,-1.7372,-1.7372,-1.7372,-1.7372,-1.7372,-1.7372,-1.7372,-1.7372,-1.7372,-1.7372,-1.7339,-1.7299,-1.7167,-1.6983,-1.6811,-1.6587,-1.6185,-1.5816,-1.5445,-1.5076,-1.5528,-1.5534,-1.5561,-1.5393,-1.5744,-1.6053,-1.6284,-1.592,-1.4962,-1.4213,-7.079,-7.079,-7.079,-7.079,-7.079,-7.079,-6.9517,-6.7503,-6.4834,-6.2672,-6.0317,-5.7266,-5.599,-5.5887,-5.5305,-5.5012,-5.5012,-5.5012,-5.5012,-5.5012,-5.5012,-5.5012,-5.5012,-5.5012,-5.5012,-5.5012,-5.5012,-5.5012,-5.5012,-5.5012,-5.5012,-5.5012,-5.5012,-5.5012,-5.5012,-5.5012,-5.5012,-5.4993,-5.4993,-5.4785,-5.4227,-5.2583,-5.1158,-4.985,-4.629,-4.3596,-4.1959,-3.9794,-3.8729,-3.83,-3.7687,-3.6916,-3.6553,-3.6189,-3.5644,-3.5098,-3.4734,-3.4657,-3.4306,-3.4203,-3.419,-3.419,-3.419,-3.419,-3.419,-3.419,-3.419,-3.3754,-3.2174,-3.0072,-2.7564,-2.6832,-2.6727,-2.6727,-2.6613,-2.5784,-2.3995,-2.3573,-2.3485,-2.2224,-2.012,-1.8217,-1.8324,-1.811,-1.7372,-1.7372,-1.7372,-1.7372,-1.7372,-1.7372,-1.7372,-1.7372,-1.7372,-1.7372,-1.7339,-1.7246,-1.7167,-1.7029,-1.6765,-1.6541,-1.6172,-1.5803,-1.5639,-1.5574,-1.5528,-1.5534,-1.5534,-1.5561,-1.5639,-1.5987,-1.6218,-1.6225,-1.6198,-1.6272,-1.5563,-7.079,-7.079,-7.079,-7.079,-7.079,-7.079,-7.049,-6.9819,-6.7314,-6.5936,-6.4663,-6.0617,-5.8447,-5.8346,-5.628,-5.5097,-5.5012,-5.5012,-5.5012,-5.5012,-5.5012,-5.5012,-5.5012,-5.5012,-5.5012,-5.5012,-5.5012,-5.5012,-5.5012,-5.5012,-5.5012,-5.5012,-5.5012,-5.5012,-5.5012,-5.5012,-5.5012,-5.5012,-5.5012,-5.5012,-5.4785,-5.4331,-5.3126,-5.1493,-4.9547,-4.737,-4.38,-4.1627,-4.1238,-4.1392,-3.8998,-3.7209,-3.6098,-3.5994,-3.5397,-3.4579,-3.4358,-3.4319,-3.4203,-3.419,-3.419,-3.419,-3.419,-3.419,-3.419,-3.419,-3.419,-3.419,-3.3972,-3.2174,-3.0083,-2.9553,-2.9553,-2.9553,-2.9553,-2.9449,-2.9138,-2.9138,-2.8086,-2.5689,-2.2851,-2.1489,-2.0539,-1.9174,-1.7479,-1.8424,-1.8324,-1.8324,-1.8324,-1.8324,-1.8324,-1.7687,-1.7372,-1.7372,-1.726,-1.7148,-1.7022,-1.6857,-1.6561,-1.6251,-1.5888,-1.5723,-1.5561,-1.5528,-1.5528,-1.5534,-1.5541,-1.5613,-1.5803,-1.5961,-1.5967,-1.5961,-1.5981,-1.6014,-1.5934,-7.079,-7.079,-7.079,-7.079,-7.079,-7.079,-7.079,-7.0281,-6.8092,-6.684,-6.6054,-6.277,-6.0317,-5.8832,-5.7757,-5.6486,-5.5097,-5.5012,-5.4993,-5.4993,-5.5097,-5.4993,-5.5012,-5.5012,-5.5012,-5.5012,-5.5012,-5.5012,-5.5012,-5.5012,-5.5012,-5.5012,-5.5012,-5.5012,-5.5012,-5.5012,-5.5012,-5.5012,-5.5012,-5.5012,-5.5012,-5.5012,-5.4123,-5.3581,-5.3144,-5.1511,-4.7262,-4.369,-4.1567,-4.0619,-3.9372,-3.7513,-3.5661,-3.5124,-3.4709,-3.4293,-3.419,-3.4292,-3.419,-3.419,-3.419,-3.419,-3.419,-3.419,-3.419,-3.419,-3.419,-3.419,-3.419,-3.3651,-3.2586,-3.238,-3.238,-3.2277,-3.2393,-3.2393,-3.2393,-3.1015,-2.9438,-2.8075,-2.5784,-2.3582,-2.1587,-2.0645,-1.9907,-1.98,-1.98,-1.98,-1.98,-1.9693,-1.9594,-1.8117,-1.7372,-1.7233,-1.7207,-1.6989,-1.6864,-1.6743,-1.6464,-1.6073,-1.5809,-1.5561,-1.5528,-1.5528,-1.5528,-1.5534,-1.5548,-1.5691,-1.5789,-1.5803,-1.5697,-1.5723,-1.5869,-1.5948,-1.5796,-7.079,-7.079,-7.079,-7.079,-7.079,-7.079,-7.079,-7.049,-6.8655,-6.8092,-6.7291,-6.5027,-6.289,-6.1015,-6.0317,-5.8447,-5.6672,-5.6177,-5.5868,-5.5182,-5.5596,-5.5784,-5.5097,-5.5012,-5.5012,-5.5012,-5.5012,-5.5012,-5.5012,-5.5012,-5.5012,-5.5012,-5.5012,-5.5012,-5.5012,-5.5012,-5.5012,-5.5012,-5.5012,-5.5012,-5.5012,-5.5012,-5.5012,-5.5012,-5.4889,-5.3698,-5.1313,-4.6662,-4.3272,-4.2082,-4.1031,-3.9226,-3.7645,-3.7165,-3.6655,-3.5837,-3.5376,-3.5083,-3.4484,-3.419,-3.419,-3.419,-3.419,-3.419,-3.419,-3.419,-3.419,-3.419,-3.419,-3.4177,-3.4177,-3.4074,-3.4074,-3.419,-3.3972,-3.3972,-3.3651,-3.2277,-3.1027,-3.0808,-2.8607,-2.6413,-2.4628,-2.3371,-2.2745,-2.2745,-2.2745,-2.2745,-2.2745,-2.263,-2.17,-1.9732,-1.827,-1.78,-1.7328,-1.711,-1.6839,-1.6802,-1.6937,-1.6933,-1.6986,-1.6865,-1.6576,-1.5791,-1.5854,-1.5536,-1.5499,-1.5513,-1.5723,-1.5822,-1.5691,-1.5545,-1.5704,-1.5965,-1.5901,-7.079,-7.079,-7.079,-7.079,-7.079,-7.079,-7.079,-7.079,-7.0398,-7.0305,-6.9819,-6.7668,-6.6318,-6.5649,-6.3454,-6.1192,-5.9033,-5.8629,-5.7655,-5.6774,-5.7164,-5.7369,-5.5596,-5.5097,-5.5012,-5.5012,-5.5012,-5.5012,-5.5012,-5.5012,-5.5012,-5.5012,-5.5012,-5.5012,-5.5012,-5.5012,-5.5012,-5.5012,-5.5012,-5.4955,-5.4898,-5.4936,-5.4917,-5.4841,-5.4803,-5.4378,-5.3057,-5.0195,-4.8244,-4.7385,-4.4666,-4.2777,-4.2446,-4.2453,-4.0385,-3.7678,-3.775,-3.6466,-3.479,-3.419,-3.419,-3.419,-3.419,-3.419,-3.419,-3.419,-3.419,-3.419,-3.419,-3.419,-3.419,-3.419,-3.419,-3.419,-3.419,-3.419,-3.419,-3.4074,-3.3446,-3.3125,-3.1543,-2.9438,-2.8815,-2.6727,-2.5889,-2.5574,-2.5574,-2.5574,-2.5574,-2.5143,-2.3994,-2.2598,-2.1006,-2.0176,-1.8991,-1.866,-1.7908,-1.8164,-1.8918,-1.9108,-1.9267,-1.9243,-1.9051,-1.7251,-1.6313,-1.568,-1.531,-1.525,-1.5242,-1.574,-1.5794,-1.5447,-1.5624,-1.6033,-1.6183,-7.079,-7.079,-7.079,-7.079,-7.079,-7.079,-7.079,-7.079,-7.079,-7.079,-7.0582,-6.9726,-6.8467,-6.6935,-6.584,-6.3843,-6.1468,-6.139,-6.0795,-6.0117,-5.9516,-5.8447,-5.7451,-5.5887,-5.5012,-5.5012,-5.4993,-5.5012,-5.5012,-5.5012,-5.4993,-5.4993,-5.5012,-5.4974,-5.5012,-5.5012,-5.5012,-5.5012,-5.4974,-5.4727,-5.4329,-5.4317,-5.3987,-5.3532,-5.3437,-5.3285,-5.2981,-5.1499,-5.0175,-4.8988,-4.6698,-4.437,-4.2651,-4.2503,-4.1197,-3.8784,-3.7952,-3.6958,-3.4688,-3.4292,-3.419,-3.419,-3.419,-3.419,-3.419,-3.419,-3.419,-3.419,-3.419,-3.419,-3.419,-3.419,-3.419,-3.419,-3.419,-3.419,-3.419,-3.419,-3.419,-3.3972,-3.3228,-3.1865,-3.0498,-2.8826,-2.8502,-2.8398,-2.8398,-2.8398,-2.8355,-2.8149,-2.6207,-2.4569,-2.3478,-2.2332,-2.1009,-1.9935,-1.9192,-2.0286,-2.1267,-2.1568,-2.1798,-2.1703,-2.1269,-1.9554,-1.8085,-1.7626,-1.6898,-1.6343,-1.5982,-1.5678,-1.613,-1.6194,-1.6509,-1.6683,-1.7372,-7.079,-7.079,-7.079,-7.079,-7.079,-7.079,-7.079,-7.079,-7.079,-7.079,-7.079,-7.079,-6.9795,-6.8374,-6.8068,-6.6604,-6.4254,-6.4885,-6.4812,-6.3843,-6.23,-6.1114,-5.9955,-5.7962,-5.7091,-5.7309,-5.6672,-5.5771,-5.4896,-5.486,-5.4652,-5.4367,-5.4443,-5.4481,-5.4177,-5.4462,-5.4443,-5.431,-5.4481,-5.4196,-5.3456,-5.3399,-5.3114,-5.2582,-5.2506,-5.2222,-5.1766,-5.1197,-5.0627,-4.9925,-4.8236,-4.6456,-4.5068,-4.4565,-4.328,-4.0932,-3.9939,-3.8239,-3.5871,-3.479,-3.419,-3.419,-3.419,-3.419,-3.419,-3.419,-3.419,-3.419,-3.419,-3.419,-3.419,-3.419,-3.419,-3.419,-3.419,-3.419,-3.419,-3.419,-3.419,-3.419,-3.419,-3.3433,-3.1853,-3.1337,-3.1234,-3.1337,-3.1158,-3.1063,-3.0901,-3.052,-2.9098,-2.6461,-2.5702,-2.4732,-2.2954,-2.1455,-2.2604,-2.4685,-2.4508,-2.4352,-2.4341,-2.4227,-2.3467,-2.229,-2.0965,-1.9976,-1.9091,-1.8528,-1.8297,-1.8087,-1.7883,-1.7745,-1.7682,-1.8264,-1.9119,-7.079,-7.079,-7.079,-7.079,-7.079,-7.079,-7.079,-7.079,-7.079,-7.079,-7.079,-7.079,-7.0582,-7.049,-7.0305,-6.9142,-6.7246,-6.8577,-6.8415,-6.6611,-6.6088,-6.4609,-6.2444,-6.1028,-6.078,-6.1563,-5.9913,-5.7136,-5.4628,-5.5148,-5.4738,-5.3281,-5.4041,-5.3921,-5.272,-5.35,-5.3399,-5.3038,-5.3456,-5.3361,-5.2639,-5.2525,-5.245,-5.2355,-5.2317,-5.1652,-5.0134,-5.0039,-5.002,-4.9944,-4.9736,-4.9831,-4.9319,-4.9224,-4.8445,-4.5535,-4.3476,-4.0917,-3.8153,-3.5783,-3.4586,-3.419,-3.419,-3.419,-3.419,-3.419,-3.419,-3.419,-3.419,-3.419,-3.419,-3.419,-3.419,-3.419,-3.419,-3.419,-3.419,-3.419,-3.419,-3.419,-3.419,-3.4177,-3.4061,-3.3677,-3.3421,-3.3434,-3.3139,-3.282,-3.2669,-3.2149,-3.0885,-2.8743,-2.768,-2.6947,-2.5,-2.3513,-2.6439,-2.8502,-2.7455,-2.6977,-2.6977,-2.669,-2.6,-2.4962,-2.361,-2.206,-2.1225,-2.0046,-2.0003,-2.0504,-2.0256,-2.0118,-2.0298,-2.0621,-2.1377,-7.079,-7.079,-7.079,-7.079,-7.079,-7.079,-7.079,-7.079,-7.079,-7.079,-7.079,-7.079,-7.079,-7.079,-7.079,-6.9486,-6.7565,-6.8055,-6.8055,-6.7109,-6.5402,-6.416,-6.3048,-6.1168,-6.0341,-6.0506,-5.9786,-5.889,-5.7911,-5.8043,-5.7856,-5.7199,-5.5866,-5.5106,-5.4654,-5.3529,-5.2829,-5.262,-5.2791,-5.2525,-5.1804,-5.169,-5.1443,-5.0854,-5.074,-5.0437,-4.9982,-4.9925,-4.9925,-4.9925,-4.9925,-4.9925,-4.9925,-4.9925,-4.8826,-4.6456,-4.5245,-4.2888,-3.874,-3.7362,-3.6074,-3.4484,-3.4292,-3.419,-3.419,-3.419,-3.419,-3.419,-3.419,-3.419,-3.419,-3.419,-3.419,-3.419,-3.419,-3.419,-3.419,-3.419,-3.419,-3.419,-3.419,-3.4177,-3.4151,-3.3839,-3.3644,-3.3706,-3.3112,-3.2774,-3.2683,-3.2281,-3.1406,-3.0656,-2.9952,-2.8894,-2.8003,-2.728,-2.935,-2.9813,-2.9035,-2.9337,-2.9473,-2.9136,-2.8499,-2.7443,-2.6123,-2.4585,-2.3076,-2.176,-2.1827,-2.2607,-2.2618,-2.2058,-2.2091,-2.2924,-2.2754,-7.079,-7.079,-7.079,-7.0545,-7.0137,-7.0112,-6.9868,-6.9551,-6.9527,-6.9527,-6.96,-6.9966,-6.9893,-6.9527,-6.9527,-6.8794,-6.7486,-6.7413,-6.7413,-6.7213,-6.57,-6.4962,-6.4735,-6.2899,-6.2059,-6.2217,-6.1145,-6.0047,-5.94,-5.9561,-5.9409,-5.8612,-5.7435,-5.6683,-5.614,-5.4308,-5.3207,-5.2896,-5.231,-5.1671,-5.0912,-5.0836,-5.0589,-4.9963,-4.9925,-4.9925,-4.9925,-4.9925,-4.9925,-4.9925,-4.9925,-4.9925,-4.9925,-4.9925,-4.9129,-4.7626,-4.6649,-4.4565,-4.151,-4.0122,-3.884,-3.7247,-3.7059,-3.6958,-3.5871,-3.5566,-3.5172,-3.4484,-3.419,-3.419,-3.419,-3.419,-3.419,-3.419,-3.419,-3.419,-3.419,-3.419,-3.419,-3.419,-3.419,-3.4073,-3.3927,-3.3471,-3.3047,-3.3081,-3.2625,-3.2229,-3.2086,-3.1683,-3.132,-3.1255,-3.1008,-3.0761,-3.0761,-3.0761,-3.0749,-3.0723,-3.0462,-3.0372,-3.0125,-2.9674,-2.9097,-2.79,-2.7415,-2.6104,-2.5575,-2.4339,-2.441,-2.5016,-2.4837,-2.4169,-2.2887,-2.4708,-2.4676,-7.079,-7.079,-7.079,-7.0088,-6.8997,-6.8949,-6.8388,-6.7745,-6.7535,-6.7574,-6.7706,-6.8534,-6.8315,-6.7316,-6.7389,-6.7403,-6.7306,-6.7184,-6.7159,-6.7072,-6.7033,-6.7218,-6.7281,-6.6354,-6.6157,-6.6017,-6.3426,-6.106,-5.9102,-5.9617,-5.904,-5.7715,-5.8168,-5.8055,-5.7263,-5.5785,-5.4558,-5.3883,-5.2705,-5.1315,-5.0456,-5.0416,-5.0624,-5.0397,-5.0209,-5.0209,-4.9925,-4.9925,-4.9925,-4.9925,-4.9925,-4.9925,-4.9925,-4.9925,-4.9925,-4.9622,-4.7644,-4.6246,-4.5552,-4.3574,-4.207,-4.1889,-4.1479,-4.0817,-3.8038,-3.775,-3.6668,-3.4471,-3.4777,-3.5172,-3.5172,-3.5172,-3.4777,-3.4675,-3.4381,-3.419,-3.419,-3.419,-3.419,-3.4112,-3.4073,-3.3839,-3.3445,-3.2787,-3.2488,-3.2346,-3.1956,-3.1593,-3.1515,-3.1151,-3.0878,-3.0826,-3.0721,-3.0761,-3.0761,-3.0566,-3.0566,-3.0541,-3.0177,-2.9879,-2.9697,-2.9437,-2.8905,-2.8267,-2.7768,-2.7473,-2.7459,-2.7208,-2.6867,-2.6702,-2.6436,-2.621,-2.5111,-2.6714,-2.6462,-7.079,-7.079,-7.079,-7.0063,-6.8949,-6.8169,-6.7681,-6.7413,-6.7413,-6.7413,-6.7525,-6.7706,-6.6891,-6.5451,-6.6012,-6.589,-6.5231,-6.5183,-6.5158,-6.5158,-6.5183,-6.5183,-6.5134,-6.4865,-6.4914,-6.5,-6.4164,-6.3315,-6.2864,-6.2977,-6.2811,-6.2191,-6.0773,-5.9879,-5.95,-5.7537,-5.6436,-5.6132,-5.5781,-5.4589,-5.3117,-5.4299,-5.4411,-5.282,-5.2635,-5.1726,-5.0114,-4.9925,-4.9925,-4.9925,-4.9925,-4.9925,-4.9925,-4.9925,-4.9925,-4.9831,-4.9243,-4.8122,-4.6149,-4.5456,-4.4159,-4.2463,-4.2168,-4.1,-3.874,-3.8052,-3.6958,-3.4968,-3.7736,-3.9809,-3.9824,-3.8239,-3.716,-3.6857,-3.5172,-3.4279,-3.4368,-3.419,-3.4212,-3.3732,-3.3955,-3.3445,-3.2872,-3.2351,-3.2069,-3.2004,-3.1479,-3.1008,-3.0969,-3.0891,-3.0761,-3.0761,-3.0761,-3.0841,-3.0736,-3.075,-3.019,-3.0034,-2.9862,-2.9571,-2.9369,-2.8827,-2.8294,-2.8139,-2.7814,-2.7541,-2.7411,-2.7385,-2.7208,-2.7307,-2.6873,-2.6338,-2.6321,-2.6178,-2.5996,-7.0521,-7.0039,-7.0015,-6.916,-6.7794,-6.7111,-6.6574,-6.6208,-6.6183,-6.6183,-6.6183,-6.6183,-6.55,-6.4353,-6.5023,-6.4999,-6.4329,-6.4388,-6.4388,-6.4388,-6.4388,-6.4388,-6.4388,-6.4388,-6.4388,-6.4388,-6.4388,-6.4388,-6.4388,-6.4388,-6.4388,-6.4112,-6.2922,-6.2134,-6.194,-5.9803,-5.8579,-5.8579,-5.7607,-5.6984,-5.6716,-5.7873,-5.7407,-5.5389,-5.5027,-5.432,-5.2984,-5.1912,-5.1465,-5.1372,-5.0472,-4.9925,-4.9925,-4.9925,-4.9925,-4.9925,-4.9925,-4.9243,-4.774,-4.7644,-4.6955,-4.5535,-4.5359,-4.4273,-4.1708,-4.1411,-4.0337,-3.8339,-4.0306,-4.2168,-4.1987,-4.0718,-3.9824,-3.9525,-3.8439,-3.7334,-3.7006,-3.6949,-3.6622,-3.5957,-3.5092,-3.43,-3.3633,-3.332,-3.3035,-3.2722,-3.2583,-3.18,-3.0867,-3.0761,-3.0761,-3.0946,-3.2557,-3.3355,-3.3327,-3.2896,-3.2096,-3.1189,-3.0449,-2.9496,-2.9074,-2.8255,-2.7879,-2.7866,-2.7606,-2.7437,-2.7618,-2.7385,-2.7282,-2.6983,-2.6565,-2.6177,-2.5464,-2.5321,-2.5511,-7.0133,-6.9169,-6.8941,-6.7657,-6.6037,-6.5817,-6.5231,-6.4426,-6.4412,-6.4388,-6.451,-6.4388,-6.4437,-6.4388,-6.4412,-6.4437,-6.4388,-6.4388,-6.4388,-6.4388,-6.4388,-6.4388,-6.4388,-6.4388,-6.4388,-6.4388,-6.4388,-6.4388,-6.4388,-6.4388,-6.4388,-6.4388,-6.4388,-6.428,-6.4029,-6.2134,-6.0974,-6.0974,-5.8842,-5.8842,-6.0865,-6.106,-5.9803,-5.7496,-5.7429,-5.7429,-5.6806,-5.5118,-5.3975,-5.3812,-5.1912,-5.0566,-5.0378,-5.0284,-5.019,-5.0039,-4.9925,-4.9925,-4.9925,-4.9925,-4.9831,-4.9925,-4.9717,-4.854,-4.6149,-4.6149,-4.5359,-4.3574,-4.2888,-4.328,-4.2856,-4.2578,-4.2317,-4.2285,-4.1731,-4.1653,-4.0578,-4.0739,-4.0372,-3.961,-3.7367,-3.6024,-3.5549,-3.5359,-3.5232,-3.4884,-3.4752,-3.4089,-3.2557,-3.2191,-3.21,-3.2369,-3.4562,-3.6668,-3.6314,-3.6453,-3.4813,-3.2896,-3.1956,-3.1055,-2.9861,-2.8883,-2.8109,-2.9294,-2.8491,-2.8572,-2.8409,-2.8001,-2.7977,-2.7736,-2.7453,-2.6869,-2.5515,-2.555,-2.6052,-7.0442,-7.0043,-6.8496,-6.7111,-6.5842,-6.5012,-6.4524,-6.4388,-6.4388,-6.4388,-6.4388,-6.4388,-6.4388,-6.4388,-6.4388,-6.4388,-6.4388,-6.4388,-6.4388,-6.4388,-6.4388,-6.4388,-6.4388,-6.4388,-6.4388,-6.4388,-6.4388,-6.4388,-6.4388,-6.4388,-6.4388,-6.4388,-6.4388,-6.4388,-6.428,-6.3753,-6.3476,-6.3476,-6.3054,-6.2946,-6.3476,-6.3476,-6.2304,-6.0064,-5.989,-5.9017,-5.7252,-5.6649,-5.6358,-5.6358,-5.5819,-5.4684,-5.3005,-5.282,-5.1912,-5.019,-4.9925,-4.9925,-4.9925,-4.9925,-4.9925,-4.9925,-4.9925,-4.8826,-4.6649,-4.7835,-4.8844,-4.8331,-4.7895,-4.799,-4.7595,-4.5795,-4.4175,-4.3934,-4.1849,-4.0544,-4.0068,-3.9942,-3.9655,-3.905,-3.8431,-3.7814,-3.7432,-3.7334,-3.7287,-3.7146,-3.7114,-3.7009,-3.6474,-3.6295,-3.596,-3.5619,-3.5584,-3.6177,-3.5731,-3.5552,-3.5003,-3.4318,-3.3513,-3.2879,-3.237,-3.2198,-3.2125,-3.1886,-3.2061,-3.1791,-3.203,-3.2015,-3.1078,-2.9312,-2.9716,-2.9912,-2.7587,-2.7587,-2.8552,-7.1711,-7.1103,-7.0054,-6.8442,-6.6629,-6.6028,-6.5227,-6.4471,-6.5285,-6.5753,-6.5696,-6.4755,-6.4388,-6.4388,-6.4388,-6.4388,-6.4388,-6.4388,-6.4388,-6.4388,-6.4388,-6.4388,-6.4388,-6.4388,-6.4388,-6.4388,-6.4388,-6.4388,-6.4388,-6.4388,-6.4388,-6.4388,-6.4388,-6.4388,-6.4388,-6.4388,-6.4388,-6.428,-6.3792,-6.3523,-6.3548,-6.3523,-6.2895,-6.157,-6.2067,-6.1684,-6.0456,-5.939,-5.8754,-5.8732,-5.7674,-5.6537,-5.5299,-5.4249,-5.3097,-5.1745,-5.0566,-4.9925,-4.9925,-4.9925,-4.9925,-4.9925,-4.9925,-4.9338,-4.7931,-4.9129,-4.9774,-4.9469,-4.9431,-4.9279,-4.8769,-4.7102,-4.5961,-4.5961,-4.437,-4.3124,-4.2812,-4.2651,-4.234,-4.1559,-4.0606,-3.9816,-3.9503,-3.947,-3.947,-3.947,-3.947,-3.903,-3.7971,-3.9021,-3.9811,-3.9345,-3.8912,-3.8549,-3.8168,-3.777,-3.7087,-3.5759,-3.5374,-3.4765,-3.3694,-3.3632,-3.3553,-3.3632,-3.3632,-3.3504,-3.3042,-3.3119,-3.2195,-3.0596,-3.0914,-3.0759,-2.9263,-2.9011,-3.0195,-7.3124,-7.226,-7.1973,-7.0284,-6.7834,-6.7834,-6.6842,-6.5368,-6.7139,-6.7701,-6.73,-6.5532,-6.4613,-6.4388,-6.4388,-6.4388,-6.4388,-6.4388,-6.4388,-6.4388,-6.4388,-6.4388,-6.4388,-6.4388,-6.4388,-6.4388,-6.4388,-6.4388,-6.4388,-6.4388,-6.4388,-6.4388,-6.4388,-6.4388,-6.4388,-6.4388,-6.4388,-6.4363,-6.3352,-6.284,-6.284,-6.284,-6.2767,-6.2669,-6.3718,-6.4314,-6.4084,-6.2148,-6.1076,-6.0913,-5.899,-5.774,-5.7409,-5.5538,-5.4287,-5.4046,-5.1819,-5.0472,-5.0472,-5.0114,-4.9925,-4.9925,-4.9925,-4.9811,-4.9697,-4.9584,-4.9355,-4.8653,-4.8539,-4.8235,-4.7571,-4.7292,-4.7107,-4.7107,-4.7083,-4.6742,-4.5885,-4.5791,-4.5421,-4.4676,-4.3083,-4.1945,-4.1927,-4.1945,-4.1927,-4.1909,-4.1681,-4.1042,-3.9952,-4.1014,-4.2356,-4.2389,-4.2275,-4.1876,-4.0684,-4.0923,-3.9732,-3.765,-3.7347,-3.6849,-3.5341,-3.5107,-3.5029,-3.4716,-3.4801,-3.4457,-3.3866,-3.3315,-3.2798,-3.1417,-3.1482,-3.1256,-3.027,-3.0349,-3.1408,-7.3367,-7.3098,-7.1403,-7.0346,-6.985,-6.985,-6.9618,-6.9306,0.0,0.0,0.0,-6.7084,-6.5917,-6.4388,-6.4388,-6.4388,-6.4388,-6.4388,-6.4388,-6.4388,-6.4388,-6.4388,-6.4388,-6.4388,-6.4388,-6.4388,-6.4388,-6.4388,-6.4388,-6.4388,-6.4388,-6.4388,-6.4388,-6.4388,-6.4388,-6.4388,-6.4388,-6.4388,-6.4109,-6.3987,-6.4094,-6.3987,-6.3572,-6.262,-6.3718,-6.3865,-6.2962,-6.3435,-6.3233,-6.2281,-6.1854,-6.0727,-5.8913,-5.8317,-5.7622,-5.6562,-5.432,-5.2984,-5.3005,-5.1111,-4.9925,-4.9925,-4.9925,-4.9319,-4.8008,-4.7913,-4.7837,-4.7704,-4.7685,-4.7628,-4.7476,-4.6888,-4.647,-4.6451,-4.5843,-4.5302,-4.5151,-4.5113,-4.5094,-4.4923,-4.4403,-4.4251,-4.411,-4.4091,-4.4251,-4.4177,-4.3466,-4.3094,-4.2815,-4.2482,-4.218,-4.1591,-4.1022,-4.0548,-4.032,-4.0339,-4.0092,-3.9391,-3.9353,-3.9353,-3.9031,-3.8955,-3.8936,-3.8501,-3.8212,-3.7621,-3.7475,-3.6759,-3.574,-3.336,-3.4006,-3.4481,-3.2567,-3.2912,-3.4037,-7.5099,0.0,-7.3944,-7.2859,0.0,-7.1963,-7.2562,-7.3505,-7.3477,-7.2365,-7.047,-6.9359,-6.8338,-6.7409,-6.7409,-6.7409,-6.7355,-6.6381,-6.5917,-6.5835,-6.4863,-6.4388,-6.4388,-6.4388,-6.4388,-6.4388,-6.4388,-6.4388,-6.4388,-6.4388,-6.4388,-6.4388,-6.4388,-6.4567,-6.4897,-6.4567,-6.5368,-6.7409,-6.5823,-6.4977,-6.4984,-6.3976,-6.3182,-6.2669,0.0,0.0,0.0,0.0,0.0,0.0,0.0,0.0,0.0,0.0,0.0,-5.7295,-5.4104,-5.2428,-5.2869,-5.1813,-5.0972,-5.0389,-5.0337,-4.9788,-4.8405,-4.7725,-4.7713,-4.8346,-4.7429,-4.6679,-4.6155,-4.5843,-4.5597,-4.5578,-4.5151,-4.4904,-4.4904,-4.4904,-4.4734,-4.4393,-4.4279,-4.4192,-4.3793,-4.3736,-4.3736,-4.3717,-4.3395,-4.3066,-4.3053,-4.2145,-4.1155,-4.068,-4.0282,-4.0053,-4.0072,-4.0072,-4.0072,-4.0053,-4.0072,-4.0072,-4.0072,-3.9692,-3.9407,-3.9275,-3.8649,-3.7928,-3.7548,-3.7149,-3.6303,-3.4801,-3.4918,-3.4934,-3.4063,-3.437,-3.4909,-7.6564,-7.6564,-7.6564,-7.56,-7.4073,-7.4102,-7.4999,-7.6564,-7.6564,-7.5629,-7.3899,-7.1861,-7.0772,-7.0363,-7.0363,-7.0363,-7.0313,-6.8733,-6.7994,-6.7994,-6.6275,-6.5507,-6.5507,-6.5532,-6.5507,-6.5425,-6.545,-6.5507,-6.5532,-6.5532,-6.5532,-6.5425,-6.5532,-6.5765,-6.6334,0.0,0.0,0.0,-6.7922,-6.6611,-6.6492,-6.4888,-6.3957,-6.3783,-6.4575,0.0,-6.4625,-6.4408,-6.429,-6.4011,-6.3962,0.0,0.0,0.0,0.0,0.0,0.0,0.0,0.0,0.0,0.0,0.0,-5.1097,-5.06,-4.933,-4.8468,-4.8329,-4.9225,-4.7328,-4.5883,-4.5518,-4.5121,-4.4847,-4.4677,-4.4658,-4.4601,-4.445,-4.4412,-4.4287,-4.3623,-4.3528,-4.3281,-4.2711,-4.264,-4.2578,-4.2635,-4.2408,-4.2256,-4.2066,-4.1332,-4.0619,-4.0542,-4.0731,-4.0636,-4.0561,-4.0992,-4.1286,-4.033,-4.033,-4.0159,-3.9576,-3.8877,-3.8497,-3.8459,-3.7814,-3.7016,-3.634,-3.6018,-3.5734,-3.5156,-3.5023,-3.4966,-3.4814,-3.5197,-3.5271,-7.6564,-7.6564,-7.6564,-7.6424,-7.6183,-7.6154,-7.6295,-7.6564,-7.6564,-7.6465,-7.6084,-7.4,-7.2113,-7.0363,-7.0363,-7.0363,-7.0363,-7.0132,-7.0005,-7.0005,-6.9695,-6.9591,-6.9618,-6.9618,-6.9618,-6.9618,-6.9618,-6.9618,-6.9618,-6.9618,-6.9618,-6.9618,-6.9618,-6.9693,-6.9714,-6.9615,-7.0184,-7.1349,-7.033,-6.9794,-6.9764,-6.9533,-6.8927,-6.8078,-6.7398,-6.6625,-6.5551,-6.4789,-6.3923,-6.2889,-6.284,-6.284,-6.2815,-6.1428,-6.0224,0.0,-5.5801,0.0,0.0,0.0,0.0,0.0,0.0,0.0,0.0,-4.9587,-4.9551,-4.966,-4.6866,-4.5829,-4.7644,-4.6012,-4.4601,-4.4002,-4.3926,-4.3641,-4.2958,-4.2863,-4.2806,-4.2711,-4.2711,-4.2673,-4.2503,-4.264,-4.2621,-4.2469,-4.1996,-4.162,-4.0815,-4.1691,-4.2397,-4.2397,-4.2397,-4.2417,-4.2544,-4.3745,-4.3906,-4.1879,-4.143,-4.0595,-3.8434,-3.7809,-3.7714,-3.7638,-3.7029,-3.6371,-3.6189,-3.5631,-3.5109,-3.5042,-3.5145,-3.4982,-3.4601,-3.5975,-3.7025,-7.6564,-7.6564,-7.6564,-7.6564,-7.6564,-7.6564,-7.6564,-7.6564,-7.6564,-7.6564,-7.6535,-7.56,-7.4682,-7.3798,-7.3798,-7.3798,-7.3725,-7.2589,-7.2113,-7.2038,-7.0898,-7.0363,-7.0363,-7.0363,-7.0363,-7.0363,-7.0363,-7.0363,-7.0363,-7.0363,-7.0363,-7.0363,-7.0363,-7.0802,-7.1688,-7.3095,-7.4009,-7.4314,-7.4009,-7.3256,-7.2113,-7.1001,-7.0121,-6.9665,-6.9301,-6.8861,-6.8335,-6.7894,-6.6938,-6.5408,-6.4699,-6.3814,-6.2653,-5.9375,-5.7813,0.0,0.0,0.0,0.0,0.0,0.0,0.0,0.0,0.0,0.0,0.0,-5.2103,-4.9159,-4.8095,-4.7995,-4.896,-4.762,-4.6855,-4.7097,-4.7117,-4.6689,-4.5809,-4.5309,-4.4613,-4.3507,-4.2509,-4.1667,-4.1251,-4.1194,-4.1194,-4.1175,-4.2626,-4.3788,-4.4031,-4.4152,-4.4346,-4.4418,-4.4397,-4.4418,-4.4346,-4.4636,-4.4352,-4.3246,-4.248,-4.1487,-3.9317,-3.8515,-3.8179,-3.8071,-3.6698,-3.5756,-3.6612,-3.5857,-3.5023,-3.5126,-3.593,-3.6657,-3.6517,-3.6954,-3.7067,-7.6564,-7.6564,-7.6564,-7.6564,-7.6564,-7.6564,-7.6564,-7.6564,-7.6564,-7.6564,-7.6564,-7.6564,-7.639,-7.614,-7.614,-7.614,-7.607,-7.4785,-7.4219,-7.4102,-7.2562,-7.1861,-7.1861,-7.1833,-7.1861,-7.1861,-7.1861,-7.1833,-7.1833,-7.1833,-7.1559,-7.0937,-7.091,-7.1486,-7.272,-7.4686,-7.5995,-7.6606,-7.6564,-7.5771,-7.4219,-7.2636,-7.1833,-7.1861,-7.1381,-7.1077,-7.1077,-7.0377,-6.9219,-6.779,-6.6285,-6.4584,-6.2721,-5.8234,0.0,0.0,0.0,0.0,0.0,0.0,0.0,0.0,0.0,-5.3926,-4.9366,0.0,-5.3395,0.0,-4.8659,-4.9333,-5.0091,-4.8996,0.0,0.0,-4.8941,-4.8702,-4.7695,-4.7092,-4.609,-4.4403,-4.3057,-4.1884,-4.0845,-4.1047,-4.142,-4.14,-4.386,-4.5991,-4.6695,-4.6277,-4.6038,-4.5972,-4.5703,-4.5732,-4.6059,-4.5228,-4.4334,-4.4136,-4.3476,-4.2243,-4.0363,-3.9428,-3.9039,-3.8867,-3.7376,-3.682,-3.7919,-3.7083,-3.622,-3.6009,-3.7261,-3.8389,-3.7875,-3.7708,-3.7232,-7.6564,-7.6564,-7.6635,-7.6635,-7.6564,-7.6564,-7.6564,-7.6564,-7.6564,-7.6564,-7.6564,-7.6564,-7.5966,-7.4802,-7.4773,0.0,-7.4831,-7.5914,-7.6266,-7.6324,-7.6154,-7.6084,-7.6084,-7.6113,-7.6084,-7.6084,-7.6084,-7.6084,-7.6013,-7.6084,-7.487,-7.2558,-7.25,-7.2548,-7.2671,-7.2941,-7.4153,-7.6477,-7.6564,-7.6564,-7.6324,-7.6154,-7.6084,-7.5984,-7.4247,-7.321,-7.3136,-7.0326,-6.8709,-6.8478,-6.6127,-6.4183,-6.283,0.0,0.0,0.0,0.0,0.0,0.0,0.0,0.0,0.0,0.0,0.0,0.0,0.0,0.0,0.0,-4.7378,0.0,-5.1066,-4.9456,0.0,0.0,0.0,-4.692,-4.5985,-4.587,-4.5469,-4.4575,0.0,0.0,-4.2764,-4.4129,-4.5208,-4.5208,-4.5516,-4.5752,-4.5817,-4.6517,-4.6949,-4.6926,-4.6078,-4.6003,-4.7489,-4.6509,-4.5206,-4.4439,-4.4047,-4.3069,-4.0737,-4.0032,-3.9989,-3.9989,-3.9777,-3.9712,-3.9796,-3.9688,-3.9329,-3.8385,-3.8735,-3.8538,-3.6764,-3.8018,-3.893,-7.7833,-7.9622,-7.9622,-7.9059,-7.8113,-7.8113,-7.7559,-7.6564,-7.6564,-7.614,-7.5413,-7.5413,-7.4308,-7.2418,-7.3145,0.0,0.0,0.0,-7.4686,-7.5413,-7.5413,-7.5849,-7.6535,-7.6564,-7.6564,-7.6564,-7.6564,-7.6564,-7.6564,-7.6564,-7.3755,-6.8375,0.0,0.0,-6.8259,-7.1196,-7.3232,-7.4279,-7.582,-7.6564,-7.6564,-7.6564,-7.6257,-7.5471,-7.4591,-7.3839,-7.3025,-7.1759,-7.016,-6.8211,-6.5765,-6.3364,0.0,0.0,0.0,0.0,0.0,0.0,0.0,0.0,0.0,0.0,0.0,-5.4119,-5.1093,0.0,0.0,0.0,-4.8751,-4.9363,-5.1302,-5.0064,0.0,0.0,0.0,0.0,0.0,0.0,0.0,-4.8784,-4.7029,-4.5639,-4.5503,-4.6493,-4.7686,-4.9037,-4.808,-4.7453,-4.8013,0.0,-4.7745,-4.7745,-4.7363,-4.7378,-4.8058,-4.805,-4.7434,-4.5935,-4.5061,-4.3815,-4.1942,-4.1591,-4.1591,-4.1469,-4.0708,-4.0398,-4.1346,-4.1286,-4.0941,-4.0601,-4.0154,-3.9566,-3.8658,-3.873,-3.892,-7.9425,0.0,0.0,0.0,0.0,-7.9853,-7.8915,-7.7406,-7.7406,-7.6434,-7.4757,-7.4375,0.0,0.0,0.0,0.0,0.0,0.0,-7.2679,-7.3581,-7.393,-7.457,-7.5431,-7.55,-7.55,-7.5431,-7.55,-7.5326,-7.4977,-7.5324,-7.2453,-6.6411,0.0,0.0,0.0,0.0,-7.1955,-7.2805,-7.457,-7.5431,-7.55,-7.5849,-7.5442,-7.4104,-7.4075,-7.3668,-7.2671,-7.201,-7.0367,-6.7733,-6.4928,0.0,0.0,0.0,0.0,0.0,0.0,0.0,0.0,0.0,0.0,0.0,0.0,0.0,0.0,0.0,0.0,0.0,0.0,0.0,-5.1086,-5.0288,-4.9979,0.0,0.0,0.0,0.0,0.0,0.0,0.0,0.0,0.0,-4.785,-4.8336,-4.9149,0.0,0.0,-4.8452,-4.9223,-4.9437,-4.9516,-4.9454,-4.984,0.0,-5.0124,-4.984,-4.9044,-4.7533,-4.598,-4.4541,-4.3451,-4.3188,-4.3154,-4.2789,-4.1824,-4.1229,-4.2143,-4.2005,-4.1744,-4.1706,-4.0978,-4.0245,-4.0148,-3.929,-3.8485,0.0,0.0,0.0,0.0,0.0,0.0,0.0,0.0,-7.9341,-7.7737,0.0,-7.3699,0.0,0.0,0.0,0.0,0.0,-6.9899,0.0,0.0,-7.2251,-7.2796,-7.2825,-7.2854,-7.2854,-7.2854,-7.2891,-7.2251,-7.1158,-7.2377,0.0,0.0,0.0,0.0,0.0,0.0,-7.0365,-7.2761,-7.2942,-7.2854,-7.2979,-7.4114,-7.4143,-7.292,-7.2833,-7.2775,-7.2592,-7.0417,-6.8491,-6.7063,-6.3402,0.0,0.0,0.0,0.0,0.0,0.0,0.0,0.0,0.0,0.0,0.0,0.0,0.0,0.0,0.0,0.0,0.0,0.0,0.0,0.0,-4.9964,0.0,0.0,0.0,0.0,0.0,0.0,0.0,0.0,0.0,0.0,-4.976,-4.9646,-4.9369,-4.849,0.0,0.0,0.0,0.0,-5.249,-5.2464,-5.3779,-5.4626,-5.4626,-5.149,-4.9029,-4.8901,0.0,0.0,-4.4859,-4.4835,-4.4494,-4.3496,-4.3188,-4.2905,-4.1963,-4.1676,-4.1657,-4.1657,-4.0954,-4.027,-4.0148,-3.9437,-3.8755,0.0,0.0,0.0,0.0,0.0,0.0,0.0,0.0,0.0,-7.7055,0.0,-7.3838,0.0,0.0,0.0,0.0,0.0,0.0,0.0,0.0,-7.138,-7.1574,-7.1633,-7.2401,-7.2342,0.0,-7.2408,-7.0352,0.0,0.0,0.0,0.0,0.0,0.0,0.0,0.0,-7.0041,-7.1881,-7.4407,-7.5744,-7.5774,-7.623,-7.623,-7.5774,-7.4924,-7.3163,-7.0498,-6.9586,-6.8041,0.0,0.0,0.0,0.0,0.0,0.0,0.0,0.0,0.0,0.0,0.0,0.0,0.0,0.0,0.0,0.0,0.0,0.0,0.0,0.0,0.0,0.0,0.0,-4.9489,0.0,0.0,0.0,0.0,0.0,0.0,0.0,0.0,0.0,-5.3779,-5.0639,-4.8877,-5.0972,-4.9914,-4.8978,-4.9004,0.0,0.0,0.0,0.0,0.0,0.0,0.0,-5.0007,-4.9352,-4.9694,-4.9613,-4.8073,-4.6417,-4.4858,-4.3584,0.0,0.0,-3.9973,-3.9632,-3.9632,-3.9632,-4.0486,-4.0998,-4.0368,-4.0974,-4.1457,0.0,0.0,0.0,0.0,0.0,0.0,0.0,0.0,0.0,-7.6968,-7.4696,0.0,0.0,0.0,0.0,0.0,0.0,0.0,0.0,0.0,0.0,0.0,-6.8927,-7.0228,0.0,0.0,0.0,0.0,0.0,0.0,0.0,0.0,0.0,0.0,0.0,0.0,-6.9888,-7.1404,-7.4473,-7.605,-7.605,-7.6484,-7.6484,-7.6019,-7.5674,-7.3475,-6.9334,0.0,0.0,0.0,0.0,0.0,0.0,0.0,0.0,0.0,0.0,0.0,0.0,0.0,0.0,0.0,0.0,0.0,0.0,0.0,0.0,0.0,0.0,0.0,0.0,0.0,-4.9378,0.0,0.0,0.0,0.0,0.0,0.0,0.0,0.0,0.0,0.0,0.0,-4.9781,-5.1485,-5.0767,-4.988,-4.9423,-5.0448,-5.1344,0.0,0.0,0.0,0.0,0.0,0.0,0.0,0.0,0.0,0.0,0.0,0.0,0.0,0.0,-4.071,-3.8826,-3.8802,-3.9071,-3.9046,0.0,0.0,0.0,0.0,0.0,0.0,0.0,0.0,0.0,0.0,0.0,0.0,0.0,0.0,0.0,0.0,0.0,0.0,-6.7453,0.0,0.0,0.0,0.0,0.0,0.0,0.0,0.0,0.0,0.0,0.0,0.0,0.0,0.0,0.0,0.0,0.0,0.0,0.0,0.0,0.0,0.0,-6.9913,-7.1369,-7.3031,-7.3663,-7.3725,-7.4826,-7.4945,-7.3843,-7.4852,-7.3525,-6.9486,0.0,0.0,0.0,0.0,0.0,0.0,0.0,0.0,0.0,0.0,0.0,0.0,0.0,0.0,0.0,0.0,0.0,0.0,0.0,0.0,0.0,0.0,0.0,0.0,0.0,0.0,-4.8869,-4.7534,-4.6303,0.0,0.0,0.0,0.0,0.0,0.0,0.0,0.0,0.0,0.0,-5.0663,-5.0987,-4.9827,-5.2819,-5.5083,-5.5027,-5.7309,-5.9072,-5.8815,-5.5779,-5.3427,0.0,0.0,0.0,0.0,0.0,0.0,0.0,0.0,0.0,0.0,0.0,0.0,0.0,0.0,0.0,0.0,0.0,0.0,0.0,0.0,0.0,0.0,0.0,0.0,0.0,0.0,0.0,0.0,0.0,0.0,0.0,0.0,0.0,0.0,0.0,0.0,0.0,0.0,0.0,0.0,0.0,0.0,0.0,0.0,0.0,0.0,0.0,0.0,0.0,0.0,0.0,0.0,0.0,0.0,-7.0417,-7.2941,-7.5366,-7.659,-7.6557,-7.7011,-7.7011,-7.6673,-7.6978,-7.5633,0.0,0.0,0.0,0.0,0.0,0.0,0.0,0.0,0.0,0.0,0.0,0.0,0.0,0.0,0.0,0.0,0.0,0.0,0.0,0.0,0.0,0.0,0.0,0.0,0.0,0.0,0.0,0.0,-4.8589,-4.7715,-4.8962,0.0,0.0,0.0,0.0,0.0,0.0,0.0,0.0,0.0,0.0,-5.4476,-5.5041,-5.6074,-5.6195,-5.4353,-5.6388,-5.7434,-5.5629,-5.3594,-5.2202,-5.2231,0.0,0.0,0.0,0.0,0.0,0.0,0.0,0.0,0.0,0.0,0.0,0.0,0.0,0.0,0.0,0.0,0.0,0.0,0.0,0.0,0.0,0.0,0.0,0.0,0.0,0.0,0.0,0.0,0.0,0.0,0.0,0.0,0.0,0.0,0.0,0.0,0.0,0.0,0.0,0.0,0.0,0.0,0.0,0.0,0.0,0.0,0.0,0.0,0.0,0.0,0.0,0.0,0.0,-7.1282,-7.3649,-7.6525,-7.7973,-7.7973,-7.8499,-7.8795,-7.8746,-7.9322,-7.7431,0.0,0.0,0.0,0.0,0.0,0.0,0.0,0.0,0.0,0.0,0.0,0.0,0.0,0.0,0.0,0.0,0.0,0.0,0.0,0.0,0.0,0.0,0.0,0.0,0.0,0.0,0.0,0.0,-4.8019,-4.7441,-4.9368,0.0,0.0,0.0,0.0,0.0,0.0,0.0,0.0,0.0,0.0,-5.6247,-5.6066,-5.6473,0.0,0.0,-5.4698,-5.5134,-5.2573,-5.1478,-5.1099,-5.1623,-5.171,0.0,0.0,0.0,0.0,0.0,0.0,0.0,0.0,0.0,0.0,0.0,0.0,0.0,0.0,0.0,0.0,0.0,0.0,0.0,0.0,0.0,0.0,0.0,0.0,0.0,0.0,0.0,0.0,0.0,0.0,0.0,0.0,0.0,0.0,0.0,0.0,0.0,0.0,0.0,0.0,0.0,0.0,0.0,0.0,0.0,0.0,0.0,0.0,0.0,0.0,0.0,0.0,0.0,-7.3808,-7.6735,-7.83,-7.8397,-7.9735,-8.0494,-8.0444,-8.1631,-7.8943,0.0,0.0,0.0,0.0,0.0,0.0,0.0,0.0,0.0,0.0,0.0,0.0,0.0,0.0,0.0,0.0,0.0,0.0,0.0,0.0,0.0,0.0,0.0,0.0,0.0,0.0,0.0,0.0,0.0,0.0,0.0,0.0,0.0,0.0,0.0,0.0,0.0,0.0,0.0,0.0,0.0,-5.6502,-5.397,-5.4822,-5.4793,0.0,0.0,-5.3067,-5.0692,-5.0007,-5.0227,-5.1623,0.0,0.0,0.0,0.0,0.0,0.0,0.0,0.0,0.0,0.0,0.0,0.0,0.0,0.0,0.0,0.0,0.0,0.0,0.0,0.0,0.0,0.0,0.0,0.0,0.0,0.0,0.0,0.0,0.0,0.0,0.0,0.0,0.0,0.0,0.0,0.0,0.0,0.0,0.0,0.0,0.0,0.0,0.0,0.0,0.0,0.0,0.0,0.0,0.0,0.0,0.0,0.0,0.0,0.0,-7.4854,-7.891,-8.1386,-8.2218,-8.366,-8.4444,-8.4444,-8.3649,0.0,0.0,0.0,0.0,0.0,0.0,0.0,0.0,0.0,0.0,0.0,0.0,0.0,0.0,0.0,0.0,0.0,0.0,0.0,0.0,0.0,0.0,0.0,0.0,0.0,0.0,0.0,-4.668,0.0,0.0,0.0,0.0,0.0,0.0,0.0,0.0,0.0,0.0,0.0,0.0,0.0,0.0,-5.5491,-5.3883,-5.5549,-5.6153,0.0,0.0,-5.6357,-5.5666,-5.2321,-5.0547,0.0,0.0,0.0,0.0,0.0,0.0,0.0,0.0,0.0,0.0,0.0,0.0,0.0,0.0,0.0,0.0,0.0,0.0,0.0,0.0,0.0,0.0,0.0,0.0,0.0,0.0,0.0,0.0,0.0,0.0,0.0,0.0,0.0,0.0,0.0,0.0,0.0,0.0,0.0,0.0,0.0,0.0,0.0,0.0,0.0,0.0,0.0,0.0,0.0,0.0,0.0,0.0,0.0,0.0,-7.4145,-7.692,-8.0043,-8.2676,-8.4524,-8.5385,-8.5868,-8.5833,-8.4886,-8.1342,0.0,0.0,0.0,0.0,0.0,0.0,0.0,0.0,0.0,0.0,0.0,0.0,0.0,0.0,0.0,0.0,0.0,0.0,0.0,0.0,0.0,0.0,0.0,0.0,0.0,0.0,0.0,0.0,0.0,0.0,0.0,0.0,0.0,0.0,0.0,0.0,0.0,0.0,0.0,0.0,0.0,0.0,-5.4465,-5.528,0.0,0.0,0.0,-5.4619,-5.3513,0.0,0.0,0.0,0.0,0.0,0.0,0.0,0.0,0.0,0.0,0.0,0.0,0.0,0.0,0.0,0.0,0.0,0.0,0.0,0.0,0.0,0.0,0.0,0.0,0.0,0.0,0.0,0.0,0.0,0.0,0.0,0.0,0.0,0.0,0.0,0.0,0.0,0.0,0.0,0.0,0.0,0.0,0.0,0.0,0.0,0.0,0.0,0.0,0.0,0.0,0.0,0.0,0.0,0.0,0.0,0.0,0.0,-7.9251,-8.0898,-8.3217,-8.6124,-8.6385,-8.6342,-8.6134,-8.5833,-8.2272,0.0,0.0,0.0,0.0,0.0,0.0,0.0,0.0,0.0,0.0,0.0,0.0,0.0,0.0,0.0,0.0,0.0,0.0,0.0,0.0,0.0,0.0,0.0,0.0,0.0,0.0,0.0,0.0,0.0,0.0,0.0,0.0,0.0,0.0,0.0,0.0,0.0,0.0,0.0,0.0,0.0,-5.2495,-5.4619,-5.4086,-5.3941,0.0,0.0,-5.1361,-4.9048,-4.8612,0.0,0.0,0.0,0.0,0.0,0.0,0.0,0.0,0.0,0.0,0.0,0.0,0.0,0.0,0.0,0.0,0.0,0.0,0.0,0.0,0.0,0.0,0.0,0.0,0.0,0.0,0.0,0.0,0.0,0.0,0.0,0.0,0.0,0.0,0.0,0.0,0.0,0.0,0.0,0.0,0.0,0.0,0.0,0.0,0.0,0.0,0.0,0.0,0.0,0.0,0.0,0.0,0.0,0.0,0.0,0.0,-8.0316,-8.3112,-8.5844,-8.8468,-8.9744,-8.978,-8.8539,-8.7297,-8.3577,0.0,0.0,0.0,0.0,0.0,0.0,0.0,0.0,0.0,0.0,0.0,0.0,0.0,0.0,0.0,0.0,0.0,0.0,0.0,0.0,0.0,0.0,0.0,0.0,0.0,0.0,0.0,0.0,0.0,0.0,0.0,0.0,0.0,0.0,0.0,0.0,0.0,0.0,0.0,0.0,0.0,-5.1507,-5.1012,-5.1594,0.0,0.0,0.0,0.0,-5.4124,-5.3135,0.0,0.0,0.0,0.0,0.0,0.0,0.0,0.0,0.0,0.0,0.0,0.0,0.0,0.0,0.0,0.0,0.0,0.0,0.0,0.0,0.0,0.0,0.0,0.0,0.0,0.0,0.0,0.0,0.0,0.0,0.0,0.0,0.0,0.0,0.0,0.0,0.0,0.0,0.0,0.0,0.0,0.0,0.0,0.0,0.0,0.0,0.0,0.0,0.0,0.0,0.0,0.0,0.0,0.0,0.0,0.0,-8.1313,-8.3719,-8.6343,-8.9119,-8.9297,-8.8905,-8.8084,-8.6586,-8.284,0.0,0.0,0.0,0.0,0.0,0.0,0.0,0.0,0.0,0.0,0.0,0.0,0.0,0.0,0.0,0.0,0.0,0.0,0.0,0.0,0.0,0.0,0.0,0.0,0.0,0.0,0.0,0.0,0.0,0.0,0.0,0.0,0.0,0.0,0.0,0.0,0.0,0.0,0.0,0.0,-5.0867,-5.1885,-5.2495,0.0,0.0,0.0,0.0,0.0,0.0,-5.2728,-5.2514,0.0,0.0,0.0,0.0,0.0,0.0,0.0,0.0,0.0,0.0,0.0,0.0,0.0,0.0,0.0,0.0,0.0,0.0,0.0,0.0,0.0,0.0,0.0,0.0,0.0,0.0,0.0,0.0,0.0,0.0,0.0,0.0,0.0,0.0,0.0,0.0,0.0,0.0,0.0,0.0,0.0,0.0,0.0,0.0,0.0,0.0,0.0,0.0,0.0,0.0,0.0,0.0,0.0,0.0,0.0,-8.2198,-8.3732,-8.5908,-8.8726,-8.7585,-8.6765,-8.6479,-8.523,-8.1734,-7.6061,0.0,0.0,0.0,0.0,0.0,0.0,0.0,0.0,0.0,0.0,0.0,0.0,0.0,0.0,0.0,0.0,0.0,0.0,0.0,0.0,0.0,0.0,0.0,0.0,0.0,0.0,0.0,0.0,0.0,0.0,0.0,0.0,0.0,0.0,0.0,0.0,0.0,0.0,0.0,-5.1652,-5.3193,0.0,0.0,0.0,0.0,0.0,0.0,0.0,0.0,-5.1518,0.0,0.0,0.0,0.0,0.0,0.0,0.0,0.0,0.0,0.0,0.0,0.0,0.0,0.0,0.0,0.0,0.0,0.0,0.0,0.0,0.0,0.0,0.0,0.0,0.0,0.0,0.0,0.0,0.0,0.0,0.0,0.0,0.0,0.0,0.0,0.0,0.0,0.0,0.0,0.0,0.0,0.0,0.0,0.0,0.0,0.0,0.0,0.0,0.0,0.0,0.0,0.0,0.0,0.0,0.0,0.0,-8.3732,-8.5444,-8.7158,-8.7049,-8.6265,-8.4909,-8.4693,-8.223,-7.7448,0.0,0.0,0.0,0.0,0.0,0.0,0.0,0.0,0.0,0.0,0.0,0.0,0.0,0.0,0.0,0.0,0.0,0.0,0.0,0.0,0.0,0.0,0.0,0.0,0.0,0.0,0.0,0.0,0.0,0.0,0.0,0.0,0.0,0.0,0.0,0.0,0.0,0.0,-5.4589,-5.488,0.0,0.0,0.0,0.0,0.0,0.0,0.0,0.0,-5.2514,0.0,0.0,0.0,0.0,0.0,0.0,0.0,0.0,0.0,0.0,0.0,0.0,0.0,0.0,0.0,0.0,0.0,0.0,0.0,0.0,0.0,0.0,0.0,0.0,0.0,0.0,0.0,0.0,0.0,0.0,0.0,0.0,0.0,0.0,0.0,0.0,0.0,0.0,0.0,0.0,0.0,0.0,0.0,0.0,0.0,0.0,0.0,0.0,0.0,0.0,0.0,0.0,0.0,0.0,0.0,0.0,0.0,0.0,-8.4053,-8.5551,-8.5984,-8.5658,-8.4619,-8.4111,-8.2028,0.0,0.0,0.0,0.0,0.0,0.0,0.0,0.0,0.0,0.0,0.0,0.0,0.0,0.0,0.0,0.0,0.0,0.0,0.0,0.0,0.0,0.0,0.0,0.0,0.0,0.0,0.0,0.0,0.0,0.0,0.0,0.0,0.0,0.0,0.0,0.0,0.0,0.0,0.0,0.0,0.0,0.0,0.0,0.0,0.0,0.0,0.0,0.0,0.0,0.0,0.0,0.0,0.0,0.0,0.0,0.0,0.0,0.0,0.0,0.0,0.0,0.0,0.0,0.0,0.0,0.0,0.0,0.0,0.0,0.0,0.0,0.0,0.0,0.0,0.0,0.0,0.0,0.0,0.0,0.0,0.0,0.0,0.0,0.0,0.0,0.0,0.0,0.0,0.0,0.0,0.0,0.0,0.0,0.0,0.0,0.0,0.0,0.0,0.0,0.0,0.0,0.0,0.0,0.0,0.0,0.0,0.0,0.0,-8.3402,-8.4743,-8.5267,-8.5358,-8.5032,-8.362,-8.1318,0.0,0.0,0.0,0.0,0.0,0.0,0.0,0.0,0.0,0.0,0.0,0.0,0.0,0.0,0.0,0.0,0.0,0.0,0.0,0.0,0.0,0.0,0.0,0.0,0.0,0.0,0.0,0.0,0.0,0.0,0.0,0.0,0.0,0.0,0.0,0.0,0.0,0.0,0.0,0.0,0.0,0.0,0.0,0.0,0.0,0.0,0.0,0.0,-5.1763,0.0,0.0,0.0,0.0,0.0,0.0,0.0,0.0,0.0,0.0,0.0,0.0,0.0,0.0,0.0,0.0,0.0,0.0,0.0,0.0,0.0,0.0,0.0,0.0,0.0,0.0,0.0,0.0,0.0,0.0,0.0,0.0,0.0,0.0,0.0,0.0,0.0,0.0,0.0,0.0,0.0,0.0,0.0,0.0,0.0,0.0,0.0,0.0,0.0,0.0,0.0,0.0,0.0,0.0,0.0,0.0,0.0,0.0,0.0,-8.4661,-8.5412,-8.5465,-8.5813,-8.6351,-8.3537,-7.996,0.0,0.0,0.0,0.0,0.0,0.0,0.0,0.0,0.0,0.0,0.0,0.0,0.0,0.0,0.0,0.0,0.0,0.0,0.0,0.0,0.0,0.0,0.0,0.0,0.0,0.0,0.0,0.0,0.0,0.0,0.0,0.0,0.0,0.0,0.0,0.0,0.0,0.0,0.0,0.0,0.0,0.0,0.0,0.0,0.0,0.0,0.0,0.0,0.0,0.0,0.0,0.0,0.0,0.0,0.0,0.0,0.0,0.0,0.0,0.0,0.0,0.0,0.0,0.0,0.0,0.0,0.0,0.0,0.0,0.0,0.0,0.0,0.0,0.0,0.0,0.0,0.0,0.0,0.0,0.0,0.0,0.0,0.0,0.0,0.0,0.0,0.0,0.0,0.0,0.0,0.0,0.0,0.0,0.0,0.0,0.0,0.0,0.0,0.0,0.0,0.0,0.0,0.0,0.0,0.0,0.0,0.0,0.0,-8.2614,-8.4112,-8.4177,-8.5348,-8.7786,-8.3063,-7.917,0.0,0.0,0.0,0.0,0.0,0.0,0.0,0.0,0.0,0.0,0.0,0.0,0.0,0.0,0.0,0.0,0.0,0.0,0.0,0.0,0.0,0.0,0.0,0.0,0.0,0.0,0.0,0.0,0.0,0.0,0.0,0.0,0.0,0.0,0.0,0.0,0.0,0.0,0.0,0.0,0.0,0.0,0.0,0.0,0.0,0.0,0.0,0.0,0.0,0.0,0.0,0.0,0.0,0.0,0.0,0.0,0.0,0.0,0.0,0.0,0.0,0.0,0.0,0.0,0.0,0.0,0.0,0.0,0.0,0.0,0.0,0.0,0.0,0.0,0.0,0.0,0.0,0.0,0.0,0.0,0.0,0.0,0.0,0.0,0.0,0.0,0.0,0.0,0.0,0.0,0.0,0.0,0.0,0.0,0.0,0.0,0.0,0.0,0.0,0.0,0.0,0.0,0.0,0.0,0.0,0.0,0.0,0.0,0.0,-8.3916,-8.266,-8.3355,-8.6181,-8.1239,-7.735,0.0,0.0,0.0,0.0,0.0,0.0,0.0,0.0,0.0,0.0,0.0,0.0,0.0,0.0,0.0,0.0,0.0,0.0,0.0,0.0,0.0,0.0,0.0,0.0,0.0,0.0,0.0,0.0,0.0,0.0,0.0,0.0,0.0,0.0,0.0,0.0,0.0,0.0,0.0,0.0,0.0,0.0,0.0,0.0,0.0,0.0,0.0,0.0,0.0,0.0,0.0,0.0,0.0,0.0,0.0,0.0,0.0,0.0,0.0,0.0,0.0,0.0,0.0,0.0,0.0,0.0,0.0,0.0,0.0,0.0,0.0,0.0,0.0,0.0,0.0,0.0,0.0,0.0,0.0,0.0,0.0,0.0,0.0,0.0,0.0,0.0,0.0,0.0,0.0,0.0,0.0,0.0,0.0,0.0,0.0,0.0,0.0,0.0,0.0,0.0,0.0,0.0,0.0,0.0,0.0,0.0,0.0,0.0,0.0,-8.6449,-8.1343,-7.9389,-8.0805,-7.7541,-7.3693,0.0,0.0,0.0,0.0,0.0,0.0,0.0,0.0,0.0,0.0,0.0,0.0,0.0,0.0,0.0,0.0,0.0,0.0,0.0,0.0,0.0,0.0,0.0,0.0,0.0,0.0,0.0,0.0,0.0,0.0,0.0,0.0,0.0,0.0,0.0,0.0,0.0,0.0,0.0,0.0,0.0,0.0,0.0,0.0,0.0,0.0,0.0,0.0,0.0,0.0,0.0,0.0,0.0,0.0,0.0,0.0,0.0,0.0,0.0,0.0,0.0,0.0,0.0,0.0,0.0,0.0,0.0,0.0,0.0,0.0,0.0,0.0,0.0,0.0,0.0,0.0,0.0,0.0,0.0,0.0,0.0,0.0,0.0,0.0,0.0,0.0,0.0,0.0,0.0,0.0,0.0,0.0,0.0,0.0,0.0,0.0,0.0,0.0,0.0,0.0,0.0,0.0,0.0,0.0,0.0,0.0,0.0,0.0,0.0,-8.4933,-8.2564,-8.1875,-8.3384,-7.8952,-7.4321,-6.9676,0.0,0.0,0.0,0.0,0.0,0.0,0.0,0.0,0.0,0.0,0.0,0.0,0.0,0.0,0.0,0.0,0.0,0.0,0.0,0.0,0.0,0.0,0.0,0.0,0.0,0.0,0.0,0.0,0.0,0.0,0.0,0.0,0.0,0.0,0.0,0.0,0.0,0.0,0.0,0.0,0.0,0.0,0.0,0.0,0.0,0.0,0.0,0.0,0.0,0.0,0.0,0.0,0.0,0.0,0.0,0.0,0.0,0.0,0.0,0.0,0.0,0.0,0.0,0.0,0.0,0.0,0.0,0.0,0.0,0.0,0.0,0.0,0.0,0.0,0.0,0.0,0.0,0.0,0.0,0.0,0.0,0.0,0.0,0.0,0.0,0.0,0.0,0.0,0.0,0.0,0.0,0.0,0.0,0.0,0.0,0.0,0.0,0.0,0.0,0.0,0.0,0.0,0.0,0.0,0.0,0.0,0.0,0.0,-8.1657,-8.0792,-8.0926,-8.2142,-7.9278,-7.4955,0.0,0.0,0.0,0.0,0.0,0.0,0.0,0.0,0.0,0.0,0.0,0.0,0.0,0.0,0.0,0.0,0.0,0.0,0.0,0.0,0.0,0.0,0.0,0.0,0.0,0.0,0.0,0.0,0.0,0.0,0.0,0.0,0.0,0.0,0.0,0.0,0.0,0.0,0.0,0.0,0.0,0.0,0.0,0.0,0.0,0.0,0.0,0.0,0.0,0.0,0.0,0.0,0.0,0.0,0.0,0.0,0.0,0.0,0.0,0.0,0.0,0.0,0.0,0.0,0.0,0.0,0.0,0.0,0.0,0.0,0.0,0.0,0.0,0.0,0.0,0.0,0.0,0.0,0.0,0.0,0.0,0.0,0.0,0.0,0.0,0.0,0.0,0.0,0.0,0.0,0.0,0.0,0.0,0.0,0.0,0.0,0.0,0.0,0.0,0.0,0.0,0.0,0.0,0.0,0.0,0.0,0.0,0.0,-7.7121,-7.6209,-7.5479,-7.5686,-7.5835,-7.7609,-7.511,0.0,0.0,0.0,0.0,0.0,0.0,0.0,0.0,0.0,0.0,0.0,0.0,0.0,0.0,0.0,0.0,0.0,0.0,0.0,0.0,0.0,0.0,0.0,0.0,0.0,0.0,0.0,0.0,0.0,0.0,0.0,0.0,0.0,0.0,0.0,0.0,0.0,0.0,0.0,0.0,0.0,0.0,0.0,0.0,0.0,0.0,0.0,0.0,0.0,0.0,0.0,0.0,0.0,0.0,0.0,0.0,0.0,0.0,0.0,0.0,0.0,0.0,0.0,0.0,0.0,0.0,0.0,0.0,0.0,0.0,0.0,0.0,0.0,0.0,0.0,0.0,0.0,0.0,0.0,0.0,0.0,0.0,0.0,0.0,0.0,0.0,0.0,0.0,0.0,0.0,0.0,0.0,0.0,0.0,0.0,0.0,0.0,0.0,0.0,0.0,0.0,0.0,0.0,0.0,0.0,0.0,0.0,0.0,0.0,-7.9143,0.0,-7.9048,0.0,-7.5849,-7.1637,0.0,0.0,0.0,0.0,0.0,0.0,0.0,0.0,0.0,0.0,0.0,0.0,0.0,0.0,0.0,0.0,0.0,0.0,0.0,0.0,0.0,0.0,0.0,0.0,0.0,0.0,0.0,0.0,0.0,0.0,0.0,0.0,0.0,0.0,0.0,0.0,0.0,0.0,0.0,0.0,0.0,0.0,0.0,0.0,0.0,0.0,0.0,0.0,0.0,0.0,0.0,0.0,0.0,0.0,0.0,0.0,0.0,0.0,0.0,0.0,0.0,0.0,0.0,0.0,0.0,0.0,0.0,0.0,0.0,0.0,0.0,0.0,0.0,0.0,0.0,0.0,0.0,0.0,0.0,0.0,0.0,0.0,0.0,0.0,0.0,0.0,0.0,0.0,0.0,0.0,0.0,0.0,0.0,0.0,0.0,0.0,0.0,0.0,0.0,0.0,0.0,0.0,0.0,0.0,0.0,0.0,0.0,0.0,0.0,-7.633,-7.7898,-7.9133,-7.9702,-7.6307,-7.2018,0.0,0.0,0.0,0.0,0.0,0.0,0.0,0.0,0.0,0.0,0.0,0.0,0.0,0.0,0.0,0.0,0.0,0.0,0.0,0.0,0.0,0.0,0.0,0.0,0.0,0.0,0.0,0.0,0.0,0.0,0.0,0.0,0.0,0.0,0.0,0.0,0.0,0.0,0.0,0.0,0.0,0.0,0.0,0.0,0.0,0.0,0.0,0.0,0.0,0.0,0.0,0.0,0.0,0.0,0.0,0.0,0.0,0.0,0.0,0.0,0.0,0.0,0.0,0.0,0.0,0.0,0.0,0.0,0.0,0.0,0.0,0.0,0.0,0.0,0.0,0.0,0.0,0.0,0.0,0.0,0.0,0.0,0.0,0.0,0.0,0.0,0.0,0.0,0.0,0.0,0.0,0.0,0.0,0.0,0.0,0.0,0.0,0.0,0.0,0.0,0.0,0.0,0.0,0.0,0.0,0.0,0.0,0.0,0.0,0.0,-7.4521,-7.5876,-7.2686,-7.8006,-7.5456,0.0,0.0,0.0,0.0,0.0,0.0,0.0,0.0,0.0,0.0,0.0,0.0,0.0,0.0,0.0,0.0,0.0,0.0,0.0,0.0,0.0,0.0,0.0,0.0,0.0,0.0,0.0,0.0,0.0,0.0,0.0,0.0,0.0,0.0,0.0,0.0,0.0,0.0,0.0,0.0,0.0,0.0,0.0,0.0,0.0,0.0,0.0,0.0,0.0,0.0,0.0,0.0,0.0,0.0,0.0,0.0,0.0,0.0,0.0,0.0,0.0,0.0,0.0,0.0,0.0,0.0,0.0,0.0,0.0,0.0,0.0,0.0,0.0,0.0,0.0,0.0,0.0,0.0,0.0,0.0,0.0,0.0,0.0,0.0,0.0,0.0,0.0,0.0,0.0,0.0,0.0,0.0,0.0,0.0,0.0,0.0,0.0,0.0,0.0,0.0,0.0,0.0,0.0,0.0,0.0,0.0,0.0,0.0,0.0,0.0,-7.6632,0.0,-7.34,-7.2087,-7.0181,-6.7467,0.0,0.0,0.0,0.0,0.0,0.0,0.0,0.0,0.0,0.0,0.0,0.0,0.0,0.0,0.0,0.0,0.0,0.0,0.0,0.0,0.0,0.0,0.0,0.0,0.0,0.0,0.0,0.0,0.0,0.0,0.0,0.0,0.0,0.0,0.0,0.0,0.0,0.0,0.0,0.0,0.0,0.0,0.0,0.0,0.0,0.0,0.0,0.0,0.0,0.0,0.0,0.0,0.0,0.0,0.0,0.0,0.0,0.0,0.0,0.0,0.0,0.0,0.0,0.0,0.0,0.0,0.0,0.0,0.0,0.0,0.0,0.0,0.0,0.0,0.0,0.0,0.0,0.0,0.0,0.0,0.0,0.0,0.0,0.0,0.0,0.0,0.0,0.0,0.0,0.0,0.0,0.0,0.0,0.0,0.0,0.0,0.0,0.0,0.0,0.0,0.0,0.0,0.0,0.0,0.0,0.0,0.0,0.0,0.0,0.0,0.0,-7.2475,-7.0168,-6.7803,0.0,0.0,0.0,0.0,0.0,0.0,0.0,0.0,0.0,0.0,0.0,0.0,0.0,0.0,0.0,0.0,0.0,0.0,0.0,0.0,0.0,0.0,0.0,0.0,0.0,0.0,0.0,0.0,0.0,0.0,0.0,0.0,0.0,0.0,0.0,0.0,0.0,0.0,0.0,0.0,0.0,0.0,0.0,0.0,0.0,0.0,0.0,0.0,0.0,0.0,0.0,0.0,0.0,0.0,0.0,0.0,0.0,0.0,0.0,0.0,0.0,0.0,0.0,0.0,0.0,0.0,0.0,0.0,0.0,0.0,0.0,0.0,0.0,0.0,0.0,0.0,0.0,0.0,0.0,0.0,0.0,0.0,0.0,0.0,0.0,0.0,0.0,0.0,0.0,0.0,0.0,0.0,0.0,0.0,0.0,0.0,0.0,0.0,0.0,0.0,0.0,0.0,0.0,0.0,0.0,0.0,0.0,0.0,0.0,0.0,0.0,-7.505,-7.1179,-7.0777,0.0,-6.1129,0.0,0.0,0.0,0.0,0.0,0.0,0.0,0.0,0.0,0.0,0.0,0.0,0.0,0.0,0.0,0.0,0.0,0.0,0.0,0.0,0.0,0.0,0.0,0.0,0.0,0.0,0.0,0.0,0.0,0.0,0.0,0.0,0.0,0.0,0.0,0.0,0.0,0.0,0.0,0.0,0.0,0.0,0.0,0.0,0.0,0.0,0.0,0.0,0.0,0.0,0.0,0.0,0.0,0.0,0.0,0.0,0.0,0.0,0.0,0.0,0.0,0.0,0.0,0.0,0.0,0.0,0.0,0.0,0.0,0.0,0.0,0.0,0.0,0.0,0.0,0.0,0.0,0.0,0.0,0.0,0.0,0.0,0.0,0.0,0.0,0.0,0.0,0.0,0.0,0.0,0.0,0.0,0.0,0.0,0.0,0.0,0.0,0.0,0.0,0.0,0.0,0.0,0.0,0.0,0.0,0.0,0.0,0.0,0.0,0.0,0.0,0.0,-6.9703,-6.688,-6.6683,0.0,0.0,0.0,0.0,0.0,0.0,0.0,0.0,0.0,0.0,0.0,0.0,0.0,0.0,0.0,0.0,0.0,0.0,0.0,0.0,0.0,0.0,0.0,0.0,0.0,0.0,0.0,0.0,0.0,0.0,0.0,0.0,0.0,0.0,0.0,0.0,0.0,0.0,0.0,0.0,0.0,0.0,0.0,0.0,0.0,0.0,0.0,0.0,0.0,0.0,0.0,0.0,0.0,0.0,0.0,0.0,0.0,0.0,0.0,0.0,0.0,0.0,0.0,0.0,0.0,0.0,0.0,0.0,0.0,0.0,0.0,0.0,0.0,0.0,0.0,0.0,0.0,0.0,0.0,0.0,0.0,0.0,0.0,0.0,0.0,0.0,0.0,0.0,0.0,0.0,0.0,0.0,0.0,0.0,0.0,0.0,0.0,0.0,0.0,0.0,0.0,0.0,0.0,0.0,0.0,0.0,0.0,0.0,0.0,0.0,-7.1862,-7.4401,-6.8784,-6.6244,-6.7327,0.0,0.0,0.0,0.0,0.0,0.0,0.0,0.0,0.0,0.0,0.0,0.0,0.0,0.0,0.0,0.0,0.0,0.0,0.0,0.0,0.0,0.0,0.0,0.0,0.0,0.0,0.0,0.0,0.0,0.0,0.0,0.0,0.0,0.0,0.0,0.0,0.0,0.0,0.0,0.0,0.0,0.0,0.0,0.0,0.0,0.0,0.0,0.0,0.0,0.0,0.0,0.0,0.0,0.0,0.0,0.0,0.0,0.0,0.0,0.0,0.0,0.0,0.0,0.0,0.0,0.0,0.0,0.0,0.0,0.0,0.0,0.0,0.0,0.0,0.0,0.0,0.0,0.0,0.0,0.0,0.0,0.0,0.0,0.0,0.0,0.0,0.0,0.0,0.0,0.0,0.0,0.0,0.0,0.0,0.0,0.0,0.0,0.0,0.0,0.0,0.0,0.0,0.0,0.0,0.0,0.0,0.0,0.0,0.0,0.0,0.0,0.0,0.0,0.0,-6.5287,0.0,0.0,0.0,0.0,0.0,0.0,0.0,0.0,0.0,0.0,0.0,0.0,0.0,0.0,0.0,0.0,0.0,0.0,0.0,0.0,0.0,0.0,0.0,0.0,0.0,0.0,0.0,0.0,0.0,0.0,0.0,0.0,0.0,0.0,0.0,0.0,0.0,0.0,0.0,0.0,0.0,0.0,0.0,0.0,0.0,0.0,0.0,0.0,0.0,0.0,0.0,0.0,0.0,0.0,0.0,0.0,0.0,0.0,0.0,0.0,0.0,0.0,0.0,0.0,0.0,0.0,0.0,0.0,0.0,0.0,0.0,0.0,0.0,0.0,0.0,0.0,0.0,0.0,0.0,0.0,0.0,0.0,0.0,0.0,0.0,0.0,0.0,0.0,0.0,0.0,0.0,0.0,0.0,0.0,0.0,0.0,0.0,0.0,0.0,0.0,0.0,0.0,0.0,0.0,0.0,0.0,0.0,0.0,0.0,0.0,0.0,0.0,0.0,0.0,0.0,0.0,0.0,0.0,0.0,0.0,0.0,0.0,0.0,0.0,0.0,0.0,0.0,0.0,0.0,0.0,0.0,0.0,0.0,0.0,0.0,0.0,0.0,0.0,0.0,0.0,0.0,0.0,0.0,0.0,0.0,0.0,0.0,0.0,0.0,0.0,0.0,0.0,0.0,0.0,0.0,0.0,0.0,0.0,0.0,0.0,0.0,0.0,0.0,0.0,0.0,0.0,0.0,0.0,0.0,0.0,0.0,0.0,0.0,0.0,0.0,0.0,0.0,0.0,0.0,0.0,0.0,0.0,0.0,0.0,0.0,0.0,0.0,0.0,0.0,0.0,0.0,0.0,0.0,0.0,0.0,0.0,0.0,0.0,0.0,0.0,0.0,0.0,0.0,0.0,0.0,0.0,0.0,0.0,0.0,0.0,0.0,0.0,0.0,0.0,0.0,0.0,0.0,0.0,0.0,0.0,0.0,0.0,0.0,0.0,0.0,0.0,0.0,0.0,0.0,0.0,0.0,0.0,0.0,0.0,0.0,0.0,0.0,0.0,0.0,0.0,0.0,0.0,0.0,0.0,0.0,0.0,0.0,0.0,0.0,0.0,0.0,0.0,0.0,0.0,0.0,0.0,0.0,0.0,0.0,0.0,0.0,0.0,0.0,0.0,0.0,0.0,0.0,0.0,0.0,0.0,0.0,0.0,0.0,0.0,0.0,0.0,0.0,0.0,0.0,0.0,0.0,0.0,0.0,0.0,0.0,0.0,0.0,0.0,0.0,0.0,0.0,0.0,0.0,0.0,0.0,0.0,0.0,0.0,0.0,0.0,0.0,0.0,0.0,0.0,0.0,0.0,0.0,0.0,0.0,0.0,0.0,0.0,0.0,0.0,0.0,0.0,0.0,0.0,0.0,0.0,0.0,0.0,0.0,0.0,0.0,0.0,0.0,0.0,0.0,0.0,0.0,0.0,0.0,0.0,0.0,0.0,0.0,0.0,0.0,0.0,0.0,0.0,0.0,0.0,0.0,0.0,0.0,0.0,0.0,0.0,0.0,0.0,0.0,0.0,0.0,0.0,0.0,0.0,0.0,0.0,0.0,0.0,0.0,0.0,0.0,0.0,0.0,0.0,0.0,0.0,0.0,0.0,0.0,0.0,0.0,0.0,0.0,0.0,0.0,0.0,0.0,0.0,0.0,0.0,0.0,0.0,0.0,0.0,0.0,0.0,0.0,0.0,0.0,0.0,0.0,0.0,0.0,0.0,0.0,0.0,0.0,0.0,0.0,0.0,0.0,0.0,0.0,0.0,0.0,0.0,0.0,0.0,0.0,0.0,0.0,0.0,0.0,0.0,0.0,0.0,0.0,0.0,0.0,0.0,0.0,0.0,0.0,0.0,0.0,0.0,0.0,0.0,0.0,0.0,0.0,0.0,0.0,0.0,0.0,0.0,0.0,0.0,0.0,0.0,0.0,0.0,0.0,0.0,0.0,0.0,0.0,0.0,0.0,0.0,0.0,0.0,0.0,0.0,0.0,0.0,0.0,0.0,0.0,0.0,0.0,0.0,0.0,0.0,0.0,0.0,0.0,0.0,0.0,0.0,0.0,0.0,0.0,0.0,0.0,0.0,0.0,0.0,0.0,0.0,0.0,0.0,0.0,0.0,0.0,0.0,0.0,0.0,0.0,0.0,0.0,0.0,0.0,0.0,0.0,0.0,0.0,0.0,0.0,0.0,0.0,0.0,0.0,0.0,0.0,0.0,0.0,0.0,0.0,0.0,0.0,0.0,0.0,0.0,0.0,0.0,0.0,0.0,0.0,0.0,0.0,0.0,0.0,0.0,0.0,0.0,0.0,0.0,0.0,0.0,0.0,0.0,0.0,0.0,0.0,0.0,0.0,0.0,0.0,0.0,0.0,0.0,0.0,0.0,0.0,0.0,0.0,0.0,0.0,0.0,0.0,0.0,0.0,0.0,0.0,0.0,0.0,0.0,0.0,0.0,0.0,0.0,0.0,0.0,0.0,0.0,0.0,0.0,0.0,0.0,0.0,0.0,0.0,0.0,0.0,0.0,0.0,0.0,0.0,0.0,0.0,0.0,0.0,0.0,0.0,0.0,0.0,0.0,0.0,0.0,0.0,0.0,0.0,0.0,0.0,0.0,0.0,0.0,0.0,0.0,0.0,0.0,0.0,0.0,0.0,0.0,0.0,0.0,0.0,0.0,0.0,0.0,0.0,0.0,0.0,0.0,0.0,0.0,0.0,0.0,0.0,0.0,0.0,0.0,0.0,0.0,0.0,0.0,0.0,0.0,0.0,0.0,0.0,0.0,0.0,0.0,0.0,0.0,0.0,0.0,0.0,0.0,0.0,0.0,0.0,0.0,0.0,0.0,0.0,0.0,0.0,0.0,0.0,0.0,0.0,0.0,0.0,0.0,0.0,0.0,0.0,0.0,0.0,0.0,0.0,0.0,0.0,0.0,0.0,0.0,0.0,0.0,0.0,0.0,0.0,0.0,0.0,0.0,0.0,0.0,0.0,0.0,0.0,0.0,0.0,0.0,0.0,0.0,0.0,0.0,0.0,0.0,0.0,0.0,0.0,0.0,0.0,0.0,0.0,0.0,0.0,0.0,0.0,0.0,0.0,0.0,0.0,0.0,0.0,0.0,0.0,0.0,0.0,0.0,0.0,0.0,0.0,0.0,0.0,0.0,0.0,0.0,0.0,0.0,0.0,0.0,0.0,0.0,0.0,0.0,0.0,0.0,0.0,0.0,0.0,0.0,0.0,0.0,0.0,0.0,0.0,0.0,0.0,0.0,0.0,0.0,0.0,0.0,0.0,0.0,0.0,0.0,0.0,0.0,0.0,0.0,0.0,0.0,0.0,0.0,0.0,0.0,0.0,0.0,0.0,0.0,0.0,0.0,0.0,0.0,0.0,0.0,0.0,0.0,0.0,0.0,0.0,0.0,0.0,0.0,0.0,0.0,0.0,0.0,0.0,0.0,0.0,0.0,0.0,0.0,0.0,0.0,0.0,0.0,0.0,0.0,0.0,0.0,0.0,0.0,0.0,0.0,0.0,0.0,0.0,0.0,0.0,0.0,0.0,0.0,0.0,0.0,0.0,0.0,0.0,0.0,0.0,0.0,0.0,0.0,0.0,0.0,0.0,0.0,0.0,0.0,0.0,0.0,0.0,0.0,0.0,0.0,0.0,0.0,0.0,0.0,0.0,0.0,0.0,0.0,0.0,0.0,0.0,0.0,0.0,0.0,0.0,0.0,0.0,0.0,0.0,0.0,0.0,0.0,0.0,0.0,0.0,0.0,0.0,0.0,0.0,0.0,0.0,0.0,0.0,0.0,0.0,0.0,0.0,0.0,0.0,0.0,0.0,0.0,0.0,0.0,0.0,0.0,0.0,0.0,0.0,0.0,0.0,0.0,0.0,0.0,0.0,0.0,0.0,0.0,0.0,0.0,0.0,0.0,0.0,0.0,0.0,0.0,0.0,0.0,0.0,0.0,0.0,0.0,0.0,0.0,0.0,0.0,0.0,0.0,0.0,0.0,0.0,0.0,0.0,0.0,0.0,0.0,0.0,0.0,0.0,0.0,0.0,0.0,0.0,0.0,0.0,0.0,0.0,0.0,0.0,0.0,0.0,0.0,0.0,0.0,0.0,0.0,0.0,0.0,0.0,0.0,0.0,0.0,0.0,0.0,0.0,0.0,0.0,0.0,0.0,0.0,0.0,0.0,0.0,0.0,0.0,0.0,0.0,0.0,0.0,0.0,0.0,0.0,0.0,0.0,0.0,0.0,0.0,0.0,0.0,0.0,0.0,0.0,0.0,0.0,0.0,0.0,0.0,0.0,0.0,0.0,0.0,0.0]}],[{"header":{"parameterUnit":"kt","parameterCategory":2,"dx":1,"dy":1,"la1":29.587661999999998,"la2":31.0,"lo1":-88.76705300000003,"lo2":-86.6583820000003,"nx":115,"ny":88,"refTime":"2022-10-20T06:00:00:Z","depth":0,"parameterNumber":2,"parameterNumberName":"V-component_of_WINDS"},"data":[9.5284,9.5284,9.5284,9.5284,9.5284,9.5284,9.5284,9.5284,9.5284,9.5284,9.5311,9.5251,9.5284,9.5371,9.6458,9.7585,9.8895,9.9654,10.1196,10.2817,10.2696,10.3063,10.3342,10.3384,10.3384,10.3384,10.3384,10.3384,10.3384,10.3384,10.3384,10.3384,10.3384,10.3384,10.3384,10.3384,10.3384,10.3425,10.3512,10.3552,10.3512,10.3638,10.3887,10.4606,10.5463,10.63,10.7057,10.7862,10.8156,10.8241,10.8241,10.8241,10.8241,10.8241,10.8241,10.8241,10.8241,10.8241,10.8241,10.8241,10.8241,10.8241,10.8241,10.8241,10.8241,10.8241,10.8241,10.8241,10.8261,10.8303,10.8265,10.8306,10.7729,10.7254,10.6763,10.5548,10.383,10.1862,10.0533,10.0267,10.0115,10.0039,9.9888,9.9888,9.9888,9.9888,9.9888,9.9888,9.9888,9.9888,9.9888,9.9888,9.9888,9.9888,9.9888,9.9888,9.9888,9.9888,9.9888,9.9888,9.9888,9.9888,9.9888,9.9888,9.9888,9.9888,9.9888,9.9812,9.9736,9.966,9.9622,9.9622,9.9796,10.0492,10.1815,9.5284,9.5284,9.5284,9.5284,9.5284,9.5284,9.5284,9.5284,9.5284,9.5284,9.5284,9.5284,9.5284,9.5284,9.5576,9.6458,9.7366,9.8269,9.9802,10.1114,10.1686,10.2489,10.3063,10.3384,10.3384,10.3384,10.3384,10.3384,10.3384,10.3384,10.3384,10.3384,10.3384,10.3384,10.3384,10.3384,10.3384,10.3384,10.3384,10.3384,10.3384,10.3425,10.3883,10.4606,10.5463,10.6337,10.7057,10.7733,10.8178,10.8278,10.8241,10.8241,10.8241,10.8241,10.8241,10.8241,10.8241,10.8241,10.8241,10.8241,10.8241,10.8241,10.8241,10.8241,10.8241,10.8241,10.8241,10.8241,10.8241,10.8261,10.8224,10.8037,10.7214,10.6514,10.6019,10.5294,10.3029,10.0799,10.0267,10.0001,9.9926,9.9963,9.9888,9.9888,9.9888,9.9888,9.9888,9.9888,9.9888,9.9888,9.9888,9.9888,9.9888,9.9888,9.9888,9.9888,9.9888,9.9888,9.9888,9.9888,9.9888,9.9888,9.9888,9.9888,9.9888,9.9888,9.9888,9.9888,9.9888,9.985,9.9812,9.9774,9.9888,10.0286,10.1678,9.5284,9.5284,9.5284,9.5284,9.5284,9.5284,9.5284,9.5284,9.5284,9.5284,9.5284,9.5284,9.5284,9.5284,9.5284,9.6005,9.7034,9.7112,9.8758,10.0481,10.1561,10.2069,10.2859,10.3384,10.3342,10.3384,10.3384,10.3384,10.3384,10.3384,10.3384,10.3384,10.3384,10.3384,10.3384,10.3384,10.3384,10.3384,10.3384,10.3384,10.3384,10.3384,10.3678,10.3964,10.475,10.5561,10.6417,10.7171,10.7733,10.8156,10.8119,10.8178,10.8199,10.8241,10.8241,10.8241,10.8241,10.8241,10.8241,10.8241,10.8241,10.8241,10.8241,10.8241,10.8241,10.8241,10.8241,10.8241,10.8241,10.8054,10.8016,10.7306,10.6483,10.5474,10.4824,10.3896,10.1922,10.0286,9.9876,9.9689,9.9716,9.9758,9.985,9.985,9.9888,9.9888,9.9888,9.9888,9.9888,9.9888,9.9888,9.9888,9.9888,9.9888,9.9888,9.9888,9.9888,9.9888,9.9888,9.9888,9.9888,9.9888,9.9888,9.9888,9.9888,9.9888,9.9888,9.9888,9.9888,9.9888,9.9888,9.9888,9.9888,10.0029,10.1254,9.5284,9.5284,9.5284,9.5284,9.5284,9.5284,9.5284,9.5284,9.5284,9.5284,9.5284,9.5284,9.5284,9.5284,9.5284,9.5602,9.6515,9.6595,9.8216,9.942,9.9964,10.0611,10.2453,10.2653,10.3063,10.3224,10.3384,10.3384,10.3384,10.3384,10.3384,10.3384,10.3384,10.3384,10.3384,10.3384,10.3384,10.3384,10.3384,10.3384,10.3384,10.3384,10.3425,10.3682,10.4161,10.5063,10.5524,10.6359,10.712,10.7555,10.765,10.7825,10.8011,10.8178,10.8278,10.8241,10.8241,10.8241,10.8241,10.8241,10.8241,10.8241,10.8241,10.8241,10.8241,10.8241,10.8241,10.8241,10.8166,10.7904,10.753,10.6558,10.5623,10.4502,10.3477,10.2127,10.0695,9.9987,9.9413,9.9401,9.9469,9.9606,9.976,9.9812,9.9888,9.9888,9.9888,9.9888,9.9888,9.9888,9.9888,9.9888,9.9888,9.9888,9.9888,9.9888,9.9888,9.9888,9.9888,9.9888,9.9888,9.9888,9.9888,9.9888,9.9888,9.9888,9.9888,9.9888,9.9888,9.9888,9.9888,9.9888,9.9888,9.985,10.0875,9.5284,9.5284,9.5284,9.5284,9.5284,9.5284,9.5284,9.5284,9.5284,9.5284,9.5284,9.5284,9.5284,9.5284,9.5284,9.5457,9.5661,9.5779,9.6709,9.7463,9.811,9.9569,10.1068,10.1596,10.2489,10.3105,10.3384,10.3384,10.3384,10.3384,10.3384,10.3384,10.3384,10.3384,10.3384,10.3384,10.3384,10.3384,10.3384,10.3384,10.3384,10.3384,10.3425,10.3552,10.4006,10.4642,10.4923,10.543,10.6068,10.6129,10.6271,10.6615,10.7197,10.7771,10.8098,10.822,10.8241,10.8241,10.8241,10.8241,10.8241,10.8241,10.8241,10.8241,10.8241,10.8241,10.8241,10.8241,10.768,10.7343,10.6446,10.5437,10.4091,10.2782,10.181,10.069,9.9783,9.9374,9.9007,9.9147,9.9251,9.9442,9.9595,9.9736,9.9774,9.9888,9.9888,9.9888,9.9888,9.9888,9.9888,9.9888,9.9888,9.9888,9.9888,9.9888,9.9888,9.9888,9.9888,9.9888,9.9888,9.9888,9.9888,9.9888,9.9888,9.9888,9.9888,9.9888,9.9888,9.9888,9.9888,9.9888,9.9888,9.985,10.0419,9.5284,9.5284,9.5284,9.5284,9.5284,9.5284,9.5284,9.5284,9.5284,9.5284,9.5284,9.5284,9.5284,9.5284,9.5284,9.5284,9.5284,9.5311,9.5863,9.6844,9.7333,9.8912,10.0386,10.147,10.2069,10.2944,10.3384,10.3384,10.3384,10.3384,10.3384,10.3384,10.3384,10.3384,10.3384,10.3384,10.3384,10.3384,10.3384,10.3384,10.3384,10.3384,10.3384,10.3466,10.3633,10.4197,10.4606,10.4784,10.5463,10.5883,10.5945,10.6122,10.6359,10.7146,10.7603,10.8199,10.822,10.8241,10.8241,10.8241,10.8241,10.8241,10.8241,10.8241,10.8241,10.8203,10.8203,10.7904,10.7269,10.6446,10.5362,10.4203,10.2575,10.1005,10.0165,9.9267,9.9005,9.8701,9.8737,9.89,9.9069,9.9251,9.9424,9.9587,9.9698,9.9812,9.9888,9.9888,9.9888,9.9888,9.9888,9.9888,9.9888,9.9888,9.9888,9.9888,9.9888,9.9888,9.9888,9.9888,9.9888,9.9888,9.9888,9.9888,9.9888,9.9888,9.9888,9.9888,9.9888,9.9888,9.9888,9.9432,9.909,9.928,9.9546,9.5284,9.5284,9.5284,9.5284,9.5284,9.5284,9.5284,9.5284,9.5284,9.5284,9.5284,9.5284,9.5284,9.5284,9.5284,9.5284,9.5284,9.543,9.5947,9.6204,9.6424,9.811,9.9454,10.0433,10.1596,10.2445,10.3182,10.3384,10.3384,10.3384,10.3384,10.3384,10.3384,10.3384,10.3384,10.3384,10.3384,10.3384,10.3384,10.3384,10.3384,10.3384,10.3384,10.3384,10.3471,10.3718,10.4044,10.4236,10.446,10.4996,10.5134,10.5434,10.5496,10.633,10.7083,10.7802,10.814,10.8241,10.8241,10.8241,10.8241,10.8241,10.8241,10.8241,10.8241,10.8203,10.7979,10.7343,10.6596,10.4988,10.3642,10.2595,10.1324,10.0202,9.9417,9.8875,9.8782,9.8594,9.8612,9.8729,9.8758,9.8981,9.9224,9.9385,9.9583,9.9754,9.985,9.9888,9.9888,9.9888,9.9888,9.9888,9.9888,9.9888,9.9888,9.9888,9.9888,9.9888,9.9888,9.9888,9.9888,9.9888,9.9888,9.9888,9.9888,9.9888,9.9888,9.9888,9.9888,9.9888,9.9698,9.8862,9.8293,9.8559,9.8825,9.5284,9.5284,9.5284,9.5284,9.5284,9.5284,9.5284,9.5284,9.5284,9.5284,9.5284,9.5284,9.5284,9.5284,9.5284,9.5284,9.5284,9.5284,9.5457,9.5517,9.5661,9.6515,9.7715,9.8895,10.0096,10.1379,10.241,10.2901,10.3265,10.3342,10.3384,10.3384,10.3384,10.3384,10.3384,10.3384,10.3384,10.3384,10.3384,10.3384,10.3384,10.3384,10.3384,10.3384,10.3384,10.3512,10.3557,10.3638,10.3678,10.3678,10.3678,10.4044,10.4642,10.5463,10.6264,10.7083,10.7825,10.8098,10.822,10.8241,10.8241,10.8241,10.8241,10.8241,10.8166,10.7979,10.7418,10.6633,10.5287,10.353,10.1997,10.1025,10.009,9.9492,9.8725,9.8613,9.8557,9.852,9.852,9.8557,9.8594,9.8774,9.9031,9.9233,9.9417,9.9579,9.9698,9.9736,9.9774,9.9812,9.9812,9.9812,9.9888,9.9888,9.9888,9.9888,9.9888,9.9888,9.9888,9.9888,9.9888,9.9888,9.9888,9.9888,9.9888,9.9888,9.9888,9.9888,9.9888,9.9698,9.9508,9.8445,9.6243,9.685,9.7496,9.5284,9.5284,9.5284,9.5284,9.5284,9.5284,9.5284,9.5284,9.5284,9.5284,9.5284,9.5284,9.5284,9.5284,9.5284,9.5284,9.5284,9.5284,9.5284,9.5284,9.5284,9.6005,9.6844,9.7877,9.8861,10.0033,10.1242,10.2113,10.2121,10.2944,10.3307,10.3384,10.3384,10.3384,10.3384,10.3384,10.3384,10.3384,10.3384,10.3384,10.3384,10.3384,10.3384,10.3384,10.3384,10.3384,10.3384,10.3384,10.3425,10.3466,10.343,10.3597,10.3925,10.4643,10.543,10.6271,10.7057,10.7733,10.8098,10.822,10.8241,10.8241,10.8241,10.8241,10.8166,10.7381,10.6558,10.5287,10.3604,10.2201,10.108,9.9828,9.9193,9.908,9.8576,9.8576,9.852,9.852,9.852,9.852,9.8575,9.8763,9.8934,9.9125,9.926,9.9409,9.9529,9.9584,9.9622,9.966,9.966,9.9812,9.9888,9.9888,9.9888,9.9888,9.9888,9.9888,9.9888,9.9888,9.9888,9.9888,9.9888,9.9888,9.9888,9.9888,9.9888,9.985,9.9774,9.9584,9.8787,9.6774,9.4686,9.4914,9.5787,9.5284,9.5284,9.5284,9.5284,9.5284,9.5284,9.5284,9.5284,9.5284,9.5284,9.5284,9.5284,9.5284,9.5284,9.5284,9.5284,9.5284,9.5284,9.5284,9.5284,9.5284,9.5922,9.6458,9.7068,9.7769,9.8792,9.9984,10.0753,10.1218,10.1998,10.2739,10.3342,10.3384,10.3384,10.3384,10.3384,10.3384,10.3384,10.3384,10.3384,10.3384,10.3384,10.3384,10.3384,10.3384,10.3384,10.3384,10.3384,10.3384,10.3384,10.3384,10.3425,10.3597,10.4274,10.4925,10.5463,10.668,10.7385,10.771,10.8178,10.822,10.8241,10.8203,10.7979,10.7493,10.6409,10.5287,10.4016,10.2201,10.1174,10.0239,9.9043,9.8707,9.8557,9.852,9.852,9.852,9.852,9.852,9.852,9.8538,9.8698,9.879,9.8925,9.9067,9.9222,9.9242,9.928,9.9467,9.9512,9.9565,9.9707,9.985,9.9888,9.9888,9.9888,9.9888,9.9888,9.9888,9.9888,9.9888,9.9888,9.9888,9.9888,9.9888,9.9888,9.9888,9.985,9.9698,9.8521,9.6509,9.4534,9.3547,9.3737,9.4383,9.5284,9.5284,9.5284,9.5284,9.5284,9.5284,9.5284,9.5284,9.5284,9.5284,9.5284,9.5284,9.5284,9.5284,9.5284,9.5284,9.5284,9.5284,9.5284,9.5284,9.5284,9.5284,9.5746,9.6319,9.69,9.7476,9.8618,9.9935,10.1068,10.1481,10.2331,10.3021,10.3141,10.3182,10.3384,10.3384,10.3384,10.3384,10.3384,10.3384,10.3384,10.3384,10.3384,10.3384,10.3384,10.3384,10.3384,10.3384,10.3384,10.3384,10.3384,10.3384,10.3425,10.4082,10.4497,10.4713,10.6145,10.6898,10.716,10.7862,10.797,10.7883,10.768,10.7156,10.6184,10.5362,10.4352,10.2333,10.093,10.0015,9.9267,9.8557,9.8557,9.852,9.852,9.852,9.852,9.852,9.852,9.852,9.8538,9.8576,9.8646,9.8742,9.89,9.8972,9.8958,9.9057,9.9232,9.9323,9.9422,9.956,9.9698,9.9736,9.9774,9.985,9.9888,9.9888,9.9888,9.9888,9.9888,9.9888,9.9888,9.9888,9.9888,9.9888,9.9888,9.9812,9.9128,9.8217,9.5484,9.3282,9.2788,9.2712,9.3357,9.5284,9.5284,9.5284,9.5284,9.5284,9.5284,9.5284,9.5284,9.5284,9.5284,9.5284,9.5284,9.5284,9.5284,9.5284,9.5284,9.5284,9.5284,9.5284,9.5284,9.5284,9.5284,9.5371,9.5661,9.6063,9.6179,9.7268,9.8618,9.9901,10.0812,10.1776,10.2445,10.2567,10.2739,10.3021,10.3384,10.3384,10.3384,10.3384,10.3384,10.3384,10.3384,10.3384,10.3384,10.3384,10.3384,10.3384,10.3384,10.3384,10.3384,10.3384,10.3384,10.3471,10.3718,10.4044,10.4534,10.5161,10.5897,10.6753,10.7286,10.7203,10.679,10.6666,10.5736,10.4352,10.2986,10.2558,10.0706,9.9828,9.908,9.8819,9.852,9.852,9.852,9.852,9.852,9.852,9.852,9.852,9.852,9.8538,9.8538,9.8612,9.8628,9.8708,9.8708,9.8763,9.8847,9.9019,9.9125,9.9243,9.9387,9.954,9.9587,9.9658,9.9774,9.985,9.985,9.9888,9.9888,9.9888,9.9888,9.9888,9.9888,9.9888,9.9888,9.966,9.9242,9.8521,9.761,9.5142,9.2446,9.2029,9.2105,9.2636,9.5284,9.5284,9.5284,9.5284,9.5284,9.5284,9.5284,9.5284,9.5284,9.5284,9.5284,9.5284,9.5284,9.5284,9.5284,9.5284,9.5284,9.5284,9.5284,9.5284,9.5284,9.5284,9.5284,9.5311,9.5251,9.5457,9.6039,9.7213,9.848,9.9015,10.0516,10.1506,10.1516,10.1945,10.2575,10.2986,10.3265,10.3384,10.3384,10.3384,10.3384,10.3384,10.3384,10.3384,10.3384,10.3384,10.3384,10.3384,10.3384,10.3384,10.3384,10.3384,10.3466,10.3425,10.3682,10.4044,10.4534,10.5093,10.5897,10.6005,10.5923,10.5438,10.5014,10.4277,10.2575,10.1641,10.0818,9.9903,9.908,9.8781,9.852,9.852,9.852,9.852,9.852,9.852,9.852,9.852,9.852,9.852,9.852,9.852,9.852,9.852,9.852,9.8538,9.8557,9.8612,9.8774,9.8891,9.9057,9.9207,9.9361,9.946,9.9579,9.9664,9.9774,9.985,9.9888,9.9888,9.9888,9.9888,9.985,9.9888,9.9888,9.9736,9.9394,9.8749,9.7344,9.5484,9.3509,9.1763,9.1649,9.1649,9.2864,9.4977,9.4884,9.4977,9.501,9.4977,9.5191,9.5284,9.5284,9.5284,9.5284,9.5284,9.5284,9.5284,9.5284,9.5284,9.5284,9.5284,9.5284,9.5284,9.5284,9.5284,9.5284,9.5284,9.5284,9.5251,9.5251,9.5517,9.6262,9.7034,9.766,9.8057,9.9066,9.9915,10.08,10.1686,10.2453,10.2944,10.3384,10.3384,10.3384,10.3384,10.3384,10.3384,10.3384,10.3384,10.3384,10.3384,10.3384,10.3384,10.3384,10.3384,10.3384,10.3384,10.3384,10.3425,10.3682,10.4044,10.4134,10.4024,10.405,10.414,10.3994,10.3403,10.2342,10.093,10.0688,10.009,9.8931,9.8781,9.852,9.852,9.852,9.852,9.852,9.852,9.852,9.852,9.852,9.852,9.852,9.852,9.852,9.852,9.852,9.852,9.852,9.8557,9.8557,9.8661,9.8708,9.8863,9.8986,9.914,9.9317,9.9462,9.9574,9.9641,9.9698,9.9736,9.9774,9.9888,9.9812,9.9736,9.9584,9.909,9.9318,9.9204,9.7116,9.5142,9.332,9.2105,9.1269,9.0966,9.1611,9.3016,9.2377,9.1333,9.2634,9.3175,9.3333,9.4702,9.5284,9.5284,9.5284,9.5284,9.5284,9.5284,9.5284,9.5284,9.5284,9.5284,9.5284,9.5284,9.5284,9.5284,9.5284,9.5284,9.5284,9.5284,9.5284,9.5251,9.5284,9.5922,9.6515,9.6481,9.6481,9.7681,9.8341,9.9319,10.0753,10.1641,10.2402,10.3063,10.3224,10.3342,10.3384,10.3384,10.3384,10.3384,10.3384,10.3384,10.3384,10.3384,10.3384,10.3384,10.3384,10.3384,10.3384,10.3384,10.3384,10.3471,10.3597,10.3374,10.2455,10.1858,10.1192,10.0986,10.0595,10.033,9.9294,9.9118,9.8781,9.8632,9.852,9.852,9.852,9.852,9.852,9.852,9.852,9.852,9.852,9.852,9.852,9.852,9.852,9.852,9.852,9.852,9.852,9.852,9.852,9.8538,9.8576,9.8575,9.8664,9.8695,9.89,9.907,9.918,9.9308,9.9443,9.9546,9.9584,9.966,9.9812,9.9774,9.947,9.8749,9.8103,9.7534,9.6167,9.4534,9.294,9.2105,9.1269,9.0624,9.0852,9.1763,9.3168,8.954,8.8845,9.1431,9.2537,9.2794,9.4519,9.5284,9.5284,9.5284,9.5284,9.5284,9.5284,9.5284,9.5284,9.5284,9.5284,9.5284,9.5284,9.5284,9.5284,9.5284,9.5284,9.5284,9.5284,9.5284,9.5284,9.5371,9.5863,9.583,9.5687,9.5484,9.6401,9.7068,9.8163,9.9066,10.0047,10.1196,10.2113,10.2575,10.2781,10.3224,10.3384,10.3384,10.3384,10.3384,10.3384,10.3384,10.3384,10.3384,10.3384,10.3384,10.3384,10.3384,10.3384,10.3384,10.3384,10.3384,10.2604,10.1293,10.0797,9.9983,9.9269,9.8707,9.8326,9.784,9.7839,9.8148,9.8481,9.852,9.852,9.852,9.852,9.852,9.852,9.852,9.852,9.852,9.852,9.852,9.852,9.852,9.852,9.852,9.852,9.852,9.852,9.852,9.852,9.852,9.852,9.852,9.852,9.8698,9.8869,9.8958,9.9043,9.9232,9.9371,9.9429,9.9527,9.9707,9.947,9.9014,9.8369,9.7344,9.5332,9.2902,9.1877,9.1345,9.0852,9.04,9.089,9.1421,9.2294,9.3737,8.6742,8.7004,9.0397,9.2021,9.2377,9.4023,9.4977,9.5191,9.5284,9.5284,9.5284,9.5284,9.5284,9.5284,9.5284,9.5284,9.5284,9.5284,9.5284,9.5284,9.5284,9.5284,9.5284,9.5284,9.5284,9.5284,9.5284,9.5284,9.5398,9.5398,9.5371,9.5484,9.6343,9.7201,9.7735,9.8636,9.9718,10.0847,10.1253,10.191,10.2901,10.3301,10.3384,10.3384,10.3384,10.3384,10.3384,10.3384,10.3384,10.3384,10.3384,10.3384,10.3384,10.3384,10.3384,10.3348,10.2961,10.2283,10.082,9.9622,9.8496,9.7208,9.7072,9.6704,9.6582,9.683,9.7548,9.8347,9.8557,9.852,9.852,9.852,9.852,9.852,9.852,9.852,9.852,9.852,9.852,9.852,9.852,9.852,9.852,9.852,9.852,9.852,9.852,9.852,9.852,9.852,9.852,9.852,9.8628,9.8733,9.8806,9.8885,9.9019,9.9228,9.9289,9.9422,9.9269,9.8976,9.8521,9.7306,9.6547,9.4838,9.2181,9.05,8.9767,8.9843,9.056,9.1263,9.2003,9.3168,9.4307,8.4733,8.4962,8.7193,8.9055,9.0532,9.228,9.3866,9.5071,9.5191,9.5191,9.5284,9.5284,9.5284,9.5284,9.5284,9.5284,9.5284,9.5284,9.5284,9.5284,9.5284,9.5284,9.5284,9.5284,9.5284,9.5284,9.5284,9.5284,9.5284,9.5284,9.5284,9.5398,9.5398,9.6063,9.69,9.7421,9.8427,9.9604,10.0658,10.1263,10.1945,10.2774,10.3384,10.3384,10.3384,10.3384,10.3384,10.3384,10.3384,10.3384,10.3384,10.3384,10.3384,10.3384,10.3384,10.2991,10.0963,9.9857,9.8644,9.7396,9.6011,9.5199,9.5296,9.5413,9.5488,9.5999,9.6752,9.7548,9.809,9.8481,9.852,9.852,9.852,9.852,9.852,9.852,9.852,9.852,9.852,9.852,9.852,9.852,9.852,9.852,9.852,9.852,9.852,9.852,9.852,9.852,9.852,9.852,9.8557,9.8612,9.8683,9.8733,9.8847,9.903,9.9091,9.8959,9.8709,9.8379,9.6736,9.537,9.461,9.3277,9.1288,8.9307,8.9534,8.9999,9.075,9.1669,9.2843,9.3991,9.4875,8.4177,8.4379,8.6255,8.7627,8.8704,9.0465,9.2215,9.3804,9.3961,9.4425,9.5071,9.5284,9.5284,9.5284,9.5284,9.5284,9.5284,9.5284,9.5284,9.5284,9.5284,9.5284,9.5284,9.5284,9.5284,9.5284,9.5284,9.5284,9.5284,9.5284,9.5284,9.5284,9.5284,9.5576,9.6088,9.6377,9.7068,9.8057,9.8912,9.952,10.0372,10.1641,10.2739,10.3147,10.3384,10.3384,10.3384,10.3384,10.3384,10.3384,10.3384,10.3384,10.3384,10.3312,10.3104,10.2176,10.0892,9.9465,9.7467,9.6325,9.4613,9.4115,9.4267,9.4479,9.4649,9.5177,9.5793,9.6421,9.7142,9.8131,9.8481,9.852,9.852,9.852,9.852,9.852,9.852,9.852,9.852,9.852,9.852,9.852,9.852,9.852,9.852,9.852,9.852,9.852,9.852,9.852,9.852,9.852,9.8538,9.8594,9.8575,9.8612,9.8678,9.8753,9.8772,9.8402,9.8034,9.7512,9.6,9.3705,9.2001,9.0735,8.9303,8.9115,8.9645,9.015,9.1089,9.2161,9.352,9.4601,9.5229,8.4177,8.4302,8.5957,8.6815,8.7296,8.8704,9.0397,9.1891,9.2505,9.3396,9.4702,9.5131,9.5284,9.5284,9.5284,9.5284,9.5284,9.5284,9.5284,9.5284,9.5284,9.5284,9.5284,9.5284,9.5284,9.5284,9.5284,9.5284,9.5284,9.5284,9.5284,9.5284,9.5284,9.5284,9.543,9.5371,9.6005,9.6844,9.7421,9.8057,9.9049,10.0276,10.147,10.2739,10.3224,10.3384,10.3384,10.3384,10.3384,10.3384,10.3384,10.3205,10.2961,10.289,10.2105,10.0927,9.9964,9.8609,9.697,9.6078,9.5148,9.4327,9.3974,9.3974,9.4049,9.4514,9.5018,9.5457,9.6339,9.7239,9.809,9.8151,9.827,9.8309,9.827,9.8347,9.8425,9.8406,9.827,9.8501,9.852,9.852,9.852,9.852,9.852,9.852,9.852,9.852,9.852,9.852,9.852,9.852,9.852,9.852,9.852,9.8538,9.8482,9.8589,9.8037,9.766,9.7024,9.6539,9.4825,9.2109,9.0086,8.9294,8.9143,8.8942,8.931,8.9764,9.1137,9.2524,9.3564,9.4544,9.5268,8.4177,8.4254,8.4504,8.5583,8.6961,8.7398,8.8493,9.033,9.1825,9.2634,9.3207,9.4641,9.5284,9.5284,9.5284,9.5284,9.5284,9.5284,9.5284,9.5284,9.5284,9.5284,9.5284,9.5284,9.5284,9.5284,9.5284,9.5284,9.5284,9.5284,9.5284,9.5284,9.5284,9.5284,9.5284,9.5251,9.5457,9.5805,9.6572,9.7256,9.7715,9.8861,10.0145,10.147,10.2445,10.3147,10.3182,10.3342,10.3384,10.3384,10.3384,10.2711,10.1855,10.132,10.0749,9.9215,9.8073,9.7149,9.6149,9.5148,9.4363,9.4042,9.3935,9.3935,9.3935,9.4122,9.4444,9.4918,9.5364,9.5933,9.6503,9.7167,9.7525,9.7548,9.7548,9.7867,9.8212,9.7931,9.8011,9.829,9.8481,9.852,9.852,9.852,9.852,9.852,9.852,9.852,9.852,9.852,9.852,9.852,9.852,9.852,9.852,9.8538,9.8352,9.8089,9.721,9.6606,9.5928,9.4375,9.2157,8.9852,8.9205,8.8943,8.8755,8.8818,8.9049,8.9348,9.0542,9.2363,9.354,9.4465,9.3661,8.4177,8.4177,8.4177,8.4733,8.5433,8.5583,8.6638,8.8493,9.0262,9.1597,9.2794,9.4425,9.5251,9.5284,9.5284,9.5284,9.5284,9.5284,9.5284,9.5284,9.5284,9.5284,9.5284,9.5284,9.5284,9.5284,9.5284,9.5284,9.5284,9.5284,9.5284,9.5284,9.5284,9.5284,9.5284,9.5251,9.5284,9.5457,9.5922,9.6146,9.6343,9.7442,9.8602,9.9269,10.1114,10.2244,10.241,10.2979,10.3342,10.3246,10.264,10.1784,10.1106,10.0285,9.9108,9.7788,9.6685,9.6149,9.5184,9.4363,9.3935,9.3935,9.3935,9.3935,9.3935,9.3935,9.4086,9.4444,9.4852,9.5364,9.6114,9.661,9.6726,9.6778,9.6752,9.713,9.7676,9.7616,9.7608,9.7845,9.827,9.8425,9.852,9.852,9.852,9.852,9.852,9.852,9.852,9.852,9.852,9.852,9.852,9.852,9.852,9.8333,9.8108,9.7361,9.6314,9.5342,9.407,9.179,8.9696,8.9298,8.8899,8.8629,8.8666,8.8816,8.8999,8.9863,9.1042,9.235,9.3261,9.3151,9.2346,8.4177,8.4177,8.4177,8.4177,8.4177,8.4177,8.5084,8.6595,8.8422,8.9922,9.1563,9.368,9.458,9.4641,9.5071,9.5284,9.5284,9.5284,9.5284,9.5284,9.5284,9.5284,9.5284,9.5284,9.5284,9.5284,9.5284,9.5284,9.5284,9.5284,9.5284,9.5284,9.5284,9.5284,9.5284,9.5284,9.5284,9.5251,9.5251,9.5371,9.5602,9.6343,9.6978,9.7572,9.9269,10.0564,10.1299,10.2331,10.2901,10.2779,10.2155,10.1427,10.0428,9.9429,9.7931,9.6432,9.5757,9.5219,9.4256,9.3971,9.3935,9.3935,9.3935,9.3935,9.3935,9.3935,9.3935,9.4012,9.4444,9.5014,9.5733,9.594,9.597,9.597,9.5962,9.6227,9.6689,9.6793,9.6892,9.7228,9.7801,9.829,9.827,9.8309,9.852,9.852,9.852,9.852,9.852,9.852,9.852,9.852,9.852,9.852,9.8333,9.7809,9.7361,9.6575,9.508,9.3809,9.1715,8.9621,8.9264,8.889,8.8629,8.8666,8.8666,8.8816,8.9264,9.0668,9.1977,9.2014,9.1864,9.1697,9.1165,8.4177,8.4177,8.4177,8.4177,8.4177,8.4177,8.4379,8.4886,8.6742,8.7699,8.8594,9.1365,9.2858,9.2921,9.4364,9.5191,9.5284,9.5284,9.5284,9.5284,9.5284,9.5284,9.5284,9.5284,9.5284,9.5284,9.5284,9.5284,9.5284,9.5284,9.5284,9.5284,9.5284,9.5284,9.5284,9.5284,9.5284,9.5284,9.5284,9.5284,9.5371,9.5543,9.6088,9.6844,9.7769,9.8758,10.0433,10.1435,10.143,10.1491,10.2597,10.1199,9.9179,9.8894,9.7253,9.5005,9.4399,9.4292,9.3971,9.3935,9.3935,9.3935,9.3935,9.3935,9.3935,9.3935,9.3935,9.3935,9.3974,9.4444,9.5051,9.5177,9.5177,9.5177,9.5177,9.5209,9.5305,9.5305,9.5581,9.6292,9.7044,9.7432,9.7676,9.8069,9.8501,9.8212,9.827,9.827,9.827,9.827,9.827,9.8425,9.852,9.852,9.7884,9.7248,9.6538,9.5603,9.3921,9.2163,9.0107,8.9172,8.8816,8.8629,8.8629,8.8666,8.8703,8.9115,8.9621,9.0518,9.0556,9.0518,9.0631,9.0817,9.0369,8.4177,8.4177,8.4177,8.4177,8.4177,8.4177,8.4177,8.4504,8.6181,8.7107,8.7657,8.9853,9.1563,9.257,9.3333,9.4241,9.5191,9.5284,9.5251,9.5251,9.5191,9.5251,9.5284,9.5284,9.5284,9.5284,9.5284,9.5284,9.5284,9.5284,9.5284,9.5284,9.5284,9.5284,9.5284,9.5284,9.5284,9.5284,9.5284,9.5284,9.5284,9.5284,9.5661,9.5922,9.6122,9.6878,9.8809,10.0481,10.0351,9.8977,9.8376,9.8044,9.7318,9.6504,9.5362,9.422,9.3935,9.3898,9.3935,9.3935,9.3935,9.3935,9.3935,9.3935,9.3935,9.3935,9.3935,9.3935,9.3935,9.4049,9.4302,9.4373,9.4373,9.4408,9.4409,9.4409,9.4409,9.4751,9.5173,9.5544,9.6227,9.683,9.7372,9.7653,9.7845,9.7867,9.7867,9.7867,9.7867,9.7888,9.7947,9.8347,9.852,9.7734,9.6968,9.6351,9.5641,9.4351,9.2781,9.1154,8.9658,8.8816,8.8629,8.8629,8.8629,8.8666,8.8741,8.8985,8.9546,8.9621,8.9023,8.9172,8.9995,9.0444,8.9584,8.4177,8.4177,8.4177,8.4177,8.4177,8.4177,8.4177,8.4379,8.5733,8.6181,8.6712,8.8281,8.9816,9.11,9.1563,9.2858,9.4085,9.4425,9.4608,9.5098,9.4856,9.4702,9.5191,9.5284,9.5284,9.5284,9.5284,9.5284,9.5284,9.5284,9.5284,9.5284,9.5284,9.5284,9.5284,9.5284,9.5284,9.5284,9.5284,9.5284,9.5284,9.5284,9.5284,9.5284,9.5311,9.5639,9.6252,9.838,9.8344,9.5922,9.4931,9.4993,9.5263,9.435,9.3653,9.3359,9.3373,9.3524,9.3787,9.3935,9.3935,9.3935,9.3935,9.3935,9.3935,9.3935,9.3935,9.3935,9.3935,9.3899,9.3899,9.3937,9.3937,9.3935,9.3974,9.3974,9.4049,9.4408,9.4787,9.4818,9.5426,9.6056,9.653,9.6881,9.7069,9.7069,9.7069,9.7069,9.7069,9.7056,9.688,9.7532,9.7391,9.6629,9.5828,9.5211,9.4296,9.2914,9.1384,8.9723,8.894,8.8307,8.8361,8.8428,8.8224,8.7548,8.7901,8.7976,8.9172,8.9733,8.8985,8.8163,8.906,8.9399,8.8485,8.4177,8.4177,8.4177,8.4177,8.4177,8.4177,8.4177,8.4177,8.4456,8.4533,8.4886,8.6417,8.741,8.7914,8.9371,9.0935,9.2441,9.2698,9.3396,9.4023,9.3742,9.3617,9.4856,9.5191,9.5284,9.5284,9.5284,9.5284,9.5284,9.5284,9.5284,9.5284,9.5284,9.5284,9.5284,9.5284,9.5284,9.5284,9.5284,9.5185,9.5087,9.5152,9.512,9.4988,9.4922,9.4423,9.3778,9.4653,9.4684,9.3502,9.3907,9.3865,9.3139,9.2886,9.2603,9.2386,9.2274,9.2871,9.3674,9.3935,9.3935,9.3935,9.3935,9.3935,9.3935,9.3935,9.3935,9.3935,9.3935,9.3935,9.3935,9.3935,9.3935,9.3935,9.3935,9.3935,9.3935,9.3937,9.4122,9.4195,9.4616,9.5173,9.5364,9.597,9.6199,9.6283,9.6283,9.6283,9.6283,9.5926,9.5789,9.5504,9.5245,9.4415,9.3343,9.2752,9.2127,9.0799,8.9481,8.847,8.7814,8.7703,8.7744,8.7729,8.7484,8.6712,8.6277,8.594,8.6443,8.7588,8.7887,8.7602,8.7493,8.7574,8.7315,8.4177,8.4177,8.4177,8.4177,8.4177,8.4177,8.4177,8.4177,8.4177,8.4177,8.4302,8.4962,8.5883,8.7035,8.7771,8.9093,9.0703,9.0801,9.1201,9.1694,9.2086,9.2858,9.3522,9.4641,9.5284,9.5284,9.5251,9.5284,9.5284,9.5284,9.5251,9.5251,9.5284,9.5218,9.5284,9.5284,9.5284,9.5284,9.5218,9.4791,9.41,9.3844,9.3508,9.2719,9.2555,9.2292,9.1766,9.1257,9.0518,8.9525,9.0185,9.0973,9.1205,9.1148,9.1454,9.1927,9.2192,9.2635,9.3711,9.3898,9.3935,9.3935,9.3935,9.3935,9.3935,9.3935,9.3935,9.3935,9.3935,9.3935,9.3935,9.3935,9.3935,9.3935,9.3935,9.3935,9.3935,9.3935,9.3935,9.3974,9.4159,9.4548,9.4918,9.54,9.5457,9.5488,9.5488,9.5488,9.5343,9.4651,9.4499,9.4153,9.3296,9.2132,9.1002,9.0388,8.9811,8.8753,8.7742,8.7316,8.7024,8.7048,8.6921,8.6856,8.6475,8.5679,8.447,8.4077,8.3682,8.459,8.547,8.5806,8.6442,8.6331,8.635,8.4177,8.4177,8.4177,8.4177,8.4177,8.4177,8.4177,8.4177,8.4177,8.4177,8.4177,8.4177,8.4857,8.5957,8.6151,8.7193,8.8845,8.829,8.8392,8.9093,9.0225,9.1033,9.1665,9.2534,9.3164,9.352,9.4085,9.4445,9.4605,9.5021,9.4659,9.4166,9.4298,9.4363,9.3837,9.433,9.4298,9.4067,9.4363,9.387,9.2588,9.2489,9.1996,9.1075,9.0944,9.0451,8.9662,8.8675,8.7689,8.691,8.7469,8.8298,8.893,8.914,8.9729,9.0866,9.1307,9.2032,9.3143,9.3674,9.3935,9.3935,9.3935,9.3935,9.3935,9.3935,9.3935,9.3935,9.3935,9.3935,9.3935,9.3935,9.3935,9.3935,9.3935,9.3935,9.3935,9.3935,9.3935,9.3935,9.3935,9.4086,9.4512,9.4685,9.4719,9.4685,9.4144,9.3856,9.3709,9.2556,9.1938,9.1902,9.1131,8.9943,8.9159,8.8516,8.7799,8.6802,8.6537,8.6345,8.6308,8.6261,8.6078,8.5802,8.5275,8.442,8.3106,8.23,8.169,8.2009,8.2365,8.3482,8.5008,8.5467,8.5358,8.4177,8.4177,8.4177,8.4177,8.4177,8.4177,8.4177,8.4177,8.4177,8.4177,8.4177,8.4177,8.4302,8.4379,8.4533,8.5194,8.6265,8.5065,8.5244,8.6613,8.7108,8.8116,8.9386,8.8797,8.9059,8.9995,9.1601,9.2556,9.2739,9.3623,9.3159,9.1592,9.2203,9.2229,9.1084,9.2431,9.2489,9.1864,9.2588,9.2423,9.1174,9.0977,9.0845,9.0681,9.0615,8.9464,8.7053,8.6889,8.6856,8.6724,8.68,8.6746,8.695,8.7004,8.7397,8.8649,8.9635,9.0831,9.2109,9.3218,9.3749,9.3935,9.3935,9.3935,9.3935,9.3935,9.3935,9.3935,9.3935,9.3935,9.3935,9.3935,9.3935,9.3935,9.3935,9.3935,9.3935,9.3935,9.3935,9.3935,9.3935,9.3899,9.3901,9.3797,9.3728,9.3441,9.2619,9.1725,9.1618,9.0473,8.9066,8.8463,8.8125,8.7797,8.7186,8.6616,8.5808,8.5185,8.5448,8.5561,8.5561,8.4974,8.4712,8.4271,8.3714,8.2329,8.0979,8.0027,7.949,7.9283,7.9034,7.9578,8.1412,8.3092,8.341,8.4177,8.4177,8.4177,8.4177,8.4177,8.4177,8.4177,8.4177,8.4177,8.4177,8.4177,8.4177,8.4177,8.4177,8.4177,8.3733,8.2512,8.2009,8.2009,8.2688,8.39,8.4758,8.54,8.6152,8.6779,8.7219,8.7807,8.8136,8.8329,8.8741,8.8456,8.766,8.9188,8.9705,8.9625,9.0875,9.1503,9.1141,9.1437,9.0977,8.9727,8.953,8.9103,8.8303,8.8106,8.7579,8.679,8.6691,8.6691,8.6691,8.6691,8.6691,8.6691,8.6691,8.7185,8.8298,8.8798,8.9917,9.1822,9.2473,9.3065,9.3787,9.3898,9.3935,9.3935,9.3935,9.3935,9.3935,9.3935,9.3935,9.3935,9.3935,9.3935,9.3935,9.3935,9.3935,9.3935,9.3935,9.3935,9.3935,9.3935,9.3899,9.3828,9.2972,9.2437,9.2293,9.0974,9.0046,8.9797,8.8691,8.7473,8.7175,8.6375,8.5734,8.555,8.5544,8.4937,8.4775,8.4925,8.4901,8.4693,8.3725,8.3061,8.2617,8.1609,8.0102,7.885,7.7805,7.7392,7.7247,7.7283,7.7563,7.8659,8.0277,8.0681,8.4177,8.4177,8.4177,8.3887,8.3586,8.3556,8.3266,8.2888,8.2858,8.2858,8.2946,8.3382,8.3295,8.2858,8.2858,8.1986,8.0605,8.0518,8.0518,8.0636,8.1678,8.2219,8.2301,8.2904,8.3487,8.389,8.4159,8.4573,8.5029,8.5657,8.5439,8.4883,8.5958,8.6456,8.6447,8.819,8.8991,8.869,8.9697,8.9497,8.8182,8.805,8.7623,8.6757,8.6691,8.6691,8.6691,8.6691,8.6691,8.6691,8.6691,8.6691,8.6691,8.6691,8.7057,8.7716,8.8197,8.914,9.0562,9.1185,9.178,9.2479,9.2595,9.2635,9.3143,9.326,9.345,9.3787,9.3935,9.3935,9.3935,9.3935,9.3935,9.3935,9.3935,9.3935,9.3935,9.3935,9.3935,9.3935,9.3935,9.3614,9.2899,9.1651,9.0795,9.0581,8.9333,8.8548,8.8155,8.7049,8.6051,8.5872,8.5194,8.4516,8.4516,8.4516,8.4481,8.4409,8.3979,8.3729,8.3334,8.2366,8.1041,8.0457,7.962,7.8301,7.7276,7.6321,7.6258,7.6141,7.6439,7.6653,7.665,7.7478,7.7966,8.4177,8.4177,8.4177,8.3527,8.241,8.2352,8.1683,8.0735,8.0664,8.0532,8.0867,8.1857,8.1595,8.0402,8.0489,8.0328,8.0212,8.0066,8.0037,8.0111,8.0242,8.0285,8.0183,7.9078,7.9193,8.0442,8.0818,8.1769,8.3242,8.4552,8.4122,8.1665,8.2879,8.2912,8.2353,8.4683,8.5434,8.4783,8.6856,8.7772,8.6735,8.645,8.6373,8.6418,8.6527,8.6527,8.6691,8.6691,8.6691,8.6691,8.6691,8.6691,8.6691,8.6691,8.6691,8.6821,8.775,8.8366,8.8683,8.9587,9.0219,9.0345,9.0493,9.0876,9.2115,9.2274,9.2791,9.3751,9.3638,9.345,9.345,9.345,9.3638,9.3676,9.3825,9.3935,9.3935,9.3935,9.3935,9.3721,9.3614,9.2972,9.158,9.0082,8.9261,8.8869,8.7799,8.68,8.6586,8.5587,8.4838,8.4695,8.4693,8.4516,8.4516,8.4264,8.4264,8.391,8.2911,8.2091,8.1591,8.0878,7.9415,7.8192,7.7605,7.6783,7.5699,7.5265,7.5347,7.5405,7.57,7.5055,7.4509,7.4918,7.4725,8.4177,8.4177,8.4177,8.3498,8.2352,8.1421,8.0838,8.0518,8.0518,8.0518,8.0474,8.0867,7.9717,7.8002,7.867,7.8525,7.774,7.7682,7.7653,7.7653,7.7682,7.7682,7.7623,7.7304,7.7362,7.7636,7.7837,7.8188,7.8502,7.8996,7.8788,7.836,7.956,8.0187,8.0044,8.1791,8.2693,8.2441,8.309,8.4059,8.4594,8.3614,8.3586,8.4735,8.485,8.5452,8.6582,8.6691,8.6691,8.6691,8.6691,8.6691,8.6691,8.6691,8.6691,8.6746,8.7037,8.7488,8.8416,8.8732,8.93,9.0035,9.0173,9.0752,9.1822,9.215,9.2635,9.3526,9.2239,9.1281,9.1316,9.2032,9.2555,9.2676,9.345,9.3862,9.3789,9.3935,9.3361,9.2364,9.204,9.158,9.001,8.8584,8.7515,8.7337,8.6195,8.5194,8.5087,8.4873,8.4516,8.4516,8.4516,8.4447,8.4445,8.3631,8.2947,8.2519,8.149,8.0424,8.0417,7.9201,7.7738,7.731,7.6418,7.5669,7.5312,7.5241,7.5265,7.5027,7.4336,7.3358,7.2315,7.1923,7.1423,8.3858,8.3469,8.344,8.2422,8.0794,7.9979,7.9339,7.8903,7.8874,7.8874,7.8874,7.8874,7.806,7.6693,7.732,7.7291,7.6664,7.6564,7.6564,7.6564,7.6564,7.6564,7.6564,7.6564,7.6564,7.6564,7.6564,7.6564,7.6564,7.6564,7.6564,7.6746,7.7529,7.8113,7.8219,7.9722,8.0626,8.0626,8.1324,8.1761,8.1947,8.1135,8.1418,8.2896,8.3137,8.3645,8.4587,8.5338,8.5653,8.5709,8.633,8.6691,8.6691,8.6691,8.6691,8.6691,8.6691,8.7037,8.7698,8.775,8.8077,8.8649,8.8782,8.9286,9.0471,9.0607,9.1132,9.199,9.1063,9.0173,9.0299,9.092,9.1316,9.1446,9.1948,9.2116,9.1593,9.1452,9.0929,8.956,8.9658,8.9354,8.7902,8.6802,8.6058,8.5243,8.4605,8.4212,8.4519,8.4516,8.4516,8.4449,8.3719,8.3077,8.2229,8.142,8.0963,8.0462,7.9324,7.863,7.8544,7.7631,7.6596,7.6561,7.5847,7.5383,7.5115,7.5241,7.4955,7.4135,7.3236,7.2166,6.9961,6.9568,6.8689,8.2844,8.2068,8.216,8.0809,7.87,7.8438,7.774,7.678,7.6594,7.6564,7.671,7.6564,7.6623,7.6564,7.6594,7.6623,7.6564,7.6564,7.6564,7.6564,7.6564,7.6564,7.6564,7.6564,7.6564,7.6564,7.6564,7.6564,7.6564,7.6564,7.6564,7.6564,7.6564,7.6606,7.6816,7.8113,7.8927,7.8927,8.0434,8.0434,7.8963,7.886,7.9722,8.1355,8.1449,8.1449,8.1885,8.3076,8.3914,8.4063,8.5338,8.6275,8.6385,8.644,8.6495,8.667,8.6691,8.6691,8.6691,8.6691,8.6746,8.6691,8.6767,8.7344,8.8416,8.8416,8.8782,8.9587,8.9917,8.9729,8.9849,8.977,8.9726,8.9657,8.9749,8.9325,8.8274,8.7865,8.7324,8.592,8.6712,8.6703,8.5297,8.4841,8.4277,8.3188,8.2873,8.3066,8.3719,8.386,8.3895,8.3507,8.217,8.0461,7.9454,7.8846,7.8422,7.797,7.6676,7.6144,7.6294,7.5736,7.4933,7.4845,7.4707,7.4676,7.4738,7.4892,7.4333,7.3207,7.2462,7.1627,6.8931,6.7661,6.6777,7.875,7.8649,8.0199,7.9979,7.8467,7.7478,7.6896,7.6564,7.6564,7.6564,7.6564,7.6564,7.6564,7.6564,7.6564,7.6564,7.6564,7.6564,7.6564,7.6564,7.6564,7.6564,7.6564,7.6564,7.6564,7.6564,7.6564,7.6564,7.6564,7.6564,7.6564,7.6564,7.6564,7.6564,7.6606,7.6995,7.7174,7.7174,7.7519,7.7559,7.7174,7.7174,7.7978,7.9526,7.9657,8.0306,8.1574,8.204,8.2194,8.2194,8.2561,8.3408,8.4619,8.4735,8.5338,8.6495,8.6691,8.6691,8.6691,8.6691,8.6691,8.6691,8.6691,8.7185,8.8197,8.7645,8.7218,8.7416,8.7527,8.7474,8.7431,8.7273,8.7169,8.7163,8.7005,8.67,8.6419,8.6393,8.5773,8.4464,8.433,8.3943,8.2615,8.216,8.2056,8.1745,8.1676,8.1682,8.1922,8.2001,8.1485,8.0474,7.8993,7.7803,7.7507,7.646,7.5711,7.5523,7.4179,7.3632,7.3567,7.3393,7.3011,7.3115,7.308,7.3115,7.3011,7.2976,7.2555,7.1648,7.0864,6.9833,6.7431,6.5787,6.4129,7.5568,7.5255,7.6284,7.6515,7.6143,7.5457,7.57,7.6494,7.56,7.5143,7.5243,7.6154,7.6564,7.6564,7.6564,7.6564,7.6564,7.6564,7.6564,7.6564,7.6564,7.6564,7.6564,7.6564,7.6564,7.6564,7.6564,7.6564,7.6564,7.6564,7.6564,7.6564,7.6564,7.6564,7.6564,7.6564,7.6564,7.6606,7.6024,7.5704,7.5733,7.5704,7.6128,7.7058,7.7681,7.8421,7.9324,8.0078,8.0498,8.0468,8.123,8.2071,8.2956,8.3736,8.4562,8.5484,8.6275,8.6691,8.6691,8.6691,8.6691,8.6691,8.6691,8.6983,8.7593,8.7057,8.6428,8.5683,8.5617,8.5354,8.4684,8.4538,8.443,8.443,8.4334,8.3955,8.3347,8.3258,8.265,8.1344,8.1442,8.1409,8.0547,8.0479,8.0479,8.0479,8.0479,8.0693,8.1197,7.9346,7.7505,7.6805,7.596,7.525,7.4507,7.373,7.3183,7.2912,7.2128,7.1875,7.2258,7.2329,7.2366,7.2329,7.2329,7.2054,7.1264,7.1227,7.0441,6.9328,6.8229,6.7299,6.5725,6.4215,6.2952,7.2647,7.1632,7.1973,7.2465,7.3062,7.3062,7.4073,7.5529,7.3753,7.3238,7.3606,7.5386,7.6324,7.6564,7.6564,7.6564,7.6564,7.6564,7.6564,7.6564,7.6564,7.6564,7.6564,7.6564,7.6564,7.6564,7.6564,7.6564,7.6564,7.6564,7.6564,7.6564,7.6564,7.6564,7.6564,7.6564,7.6564,7.6535,7.55,7.489,7.489,7.489,7.4802,7.4686,7.5937,7.6477,7.6373,7.7957,7.8703,7.8493,7.9902,8.0763,8.1045,8.2338,8.3395,8.3823,8.5395,8.633,8.633,8.6582,8.6691,8.6691,8.6691,8.6494,8.6078,8.6099,8.5486,8.4269,8.4072,8.3546,8.2395,8.2118,8.2005,8.2005,8.1756,8.1164,8.008,7.9915,7.9471,7.8366,7.8734,7.9303,7.927,7.9303,7.927,7.9236,7.9013,7.9262,7.9264,7.653,7.392,7.3419,7.3222,7.2531,7.1726,7.124,7.1129,7.0623,7.0611,7.0787,7.1467,7.1582,7.1621,7.1773,7.1352,7.0843,6.9822,6.9456,6.8188,6.6239,6.5451,6.4801,6.3463,6.292,6.2313,6.8566,6.8464,7.0014,7.0808,7.0925,7.0925,7.1153,7.1456,0.0,0.0,0.0,7.3854,7.4999,7.6564,7.6564,7.6564,7.6564,7.6564,7.6564,7.6564,7.6564,7.6564,7.6564,7.6564,7.6564,7.6564,7.6564,7.6564,7.6564,7.6564,7.6564,7.6564,7.6564,7.6564,7.6564,7.6564,7.6564,7.6564,7.6402,7.6257,7.6216,7.6257,7.5762,7.4628,7.5937,7.6111,7.5035,7.6272,7.6538,7.5552,7.5706,7.6516,7.7826,7.8274,7.9491,8.1915,8.3645,8.4587,8.4619,8.5909,8.6691,8.6691,8.6691,8.5638,8.3151,8.2987,8.2856,8.2625,8.2593,8.2494,8.2231,8.1212,8.0488,8.0455,7.9403,7.8664,7.84,7.8335,7.8302,7.8006,7.8084,7.8214,7.8163,7.813,7.8214,7.8082,7.7219,7.6557,7.6452,7.4897,7.3058,7.2038,7.1052,7.0054,6.966,6.9693,6.9616,6.9623,6.9557,6.9557,6.9695,6.9737,6.9704,6.9816,6.876,6.8046,6.7606,6.6657,6.5484,6.4599,6.3788,6.3014,6.223,6.1575,6.109,6.586,0.0,6.6872,6.7942,0.0,6.889,6.8259,6.7355,6.7329,6.8522,7.047,7.1511,7.2487,7.3403,7.3403,7.3403,7.3505,7.4538,7.4999,7.5071,7.6113,7.6564,7.6564,7.6564,7.6564,7.6564,7.6564,7.6564,7.6564,7.6564,7.6564,7.6564,7.6564,7.5766,7.4328,7.5766,7.5529,7.3403,7.4728,7.4913,7.41,7.5072,7.5297,7.4686,0.0,0.0,0.0,0.0,0.0,0.0,0.0,0.0,0.0,0.0,0.0,7.832,7.8722,7.9211,7.9876,8.0745,8.1771,8.3243,8.3363,8.2453,8.0361,8.1427,8.161,8.0263,8.072,8.085,8.0144,7.9403,7.8976,7.8943,7.84,7.7973,7.7973,7.7973,7.7677,7.7084,7.6887,7.6543,7.5852,7.5754,7.5754,7.5721,7.5162,7.4781,7.457,7.2814,7.1282,7.046,6.9594,6.92,6.9233,6.9233,6.9233,6.92,6.9233,6.9233,6.9233,6.8576,6.8083,6.8027,6.6942,6.5693,6.5035,6.4345,6.3517,6.2621,6.2033,6.1588,6.1293,6.0904,6.0465,6.4388,6.4388,6.4388,6.5285,6.6842,6.6868,6.5917,6.4388,6.4388,6.531,6.6978,6.8942,7.0005,7.0363,7.0363,7.0363,7.0466,7.2113,7.2914,7.2914,7.4582,7.5357,7.5357,7.5386,7.5357,7.5429,7.5458,7.5357,7.5386,7.5386,7.5386,7.5429,7.5386,7.4171,7.1917,0.0,0.0,0.0,7.2045,7.2693,7.146,7.3021,7.3737,7.3536,7.5109,0.0,7.5666,7.625,7.6448,7.6286,7.6227,0.0,0.0,0.0,0.0,0.0,0.0,0.0,0.0,0.0,0.0,0.0,7.8495,7.7732,7.706,7.89,7.9253,7.7082,7.8572,7.9073,7.766,7.776,7.7874,7.7578,7.7545,7.7446,7.7183,7.7117,7.6707,7.5556,7.5392,7.4965,7.3978,7.3669,7.3748,7.3847,7.3452,7.3189,7.286,7.052,6.8958,6.8827,6.8803,6.8815,6.8859,6.856,6.8205,6.8467,6.8467,6.8347,6.8204,6.7337,6.6679,6.6613,6.5495,6.4114,6.3102,6.2543,6.2049,6.0892,6.0662,6.0563,6.03,5.9902,5.9285,6.4388,6.4388,6.4388,6.4555,6.478,6.4755,6.4589,6.4388,6.4388,6.4447,6.4838,6.6923,6.8733,7.0363,7.0363,7.0363,7.0363,7.0593,7.0772,7.0772,7.1077,7.1126,7.1153,7.1153,7.1153,7.1153,7.1153,7.1153,7.1153,7.1153,7.1153,7.1153,7.1153,7.092,7.0633,7.0996,6.9574,6.6388,6.9264,7.0714,7.053,7.0757,7.0448,6.9579,7.2276,7.3348,7.2324,7.5025,7.6012,7.4948,7.489,7.489,7.4861,7.3695,7.2573,0.0,7.1744,0.0,0.0,0.0,0.0,0.0,0.0,0.0,0.0,7.2658,7.2775,7.2424,7.5919,7.7609,7.6061,7.7147,7.7446,7.6214,7.6082,7.5589,7.4406,7.4241,7.4143,7.3978,7.3978,7.3912,7.3617,7.3669,7.3636,7.3373,7.2374,7.1188,6.9987,6.8537,6.7521,6.7521,6.7521,6.7553,6.7428,6.6564,6.5866,6.5737,6.5662,6.5601,6.5574,6.5323,6.5158,6.5027,6.3975,6.2997,6.2839,6.1714,6.0963,6.0695,6.0416,5.9984,5.8887,5.7432,5.5806,6.4388,6.4388,6.4388,6.4388,6.4388,6.4388,6.4388,6.4388,6.4388,6.4388,6.4363,6.5285,6.6219,6.7033,6.7033,6.7033,6.7114,6.8285,6.8733,6.8811,6.9823,7.0363,7.0363,7.0363,7.0363,7.0363,7.0363,7.0363,7.0363,7.0363,7.0363,7.0363,7.0363,6.8672,6.5403,6.6395,6.6346,6.5028,6.6346,6.7569,6.8733,6.9773,7.0121,6.9665,7.0985,7.1464,7.0917,7.2332,7.3371,7.393,7.329,7.3409,7.4501,7.076,6.8898,0.0,0.0,0.0,0.0,0.0,0.0,0.0,0.0,0.0,0.0,0.0,6.9457,7.037,7.2837,7.4082,7.3447,7.3329,7.3371,7.3396,7.3428,7.2936,7.1561,7.2685,7.2981,7.1521,7.1986,7.217,7.127,7.1171,7.1171,7.1139,6.9389,6.8076,6.7964,6.7024,6.6211,6.6163,6.6131,6.6163,6.6211,6.5097,6.4232,6.4114,6.3576,6.3278,6.3847,6.3315,6.2763,6.274,6.2146,6.1466,6.0783,6.0571,6.0662,6.0383,5.9066,5.754,5.6773,5.5306,5.3807,6.4388,6.4388,6.4388,6.4388,6.4388,6.4388,6.4388,6.4388,6.4388,6.4388,6.4388,6.4388,6.4241,6.3889,6.3889,6.3889,6.3972,6.5874,6.6681,6.6868,6.8259,6.8942,6.8942,6.8916,6.8942,6.8942,6.8942,6.8916,6.8916,6.8916,6.8653,6.8205,6.8178,6.5792,6.129,6.2669,6.3767,6.428,6.4388,6.5145,6.6681,6.818,6.8916,6.8942,6.9384,6.9695,6.9695,6.9918,7.0746,7.2221,7.0926,7.0791,7.1994,6.6991,0.0,0.0,0.0,0.0,0.0,0.0,0.0,0.0,0.0,6.5563,6.3185,0.0,6.6678,0.0,6.9654,7.0619,7.055,6.9974,0.0,0.0,7.0383,7.0041,6.8752,7.0312,7.0973,6.9531,6.9748,6.9707,6.8824,6.8483,6.8258,6.8225,6.658,6.5682,6.6533,6.5481,6.4394,6.4301,6.4073,6.3819,6.3395,6.2825,6.2298,6.202,6.1092,6.0752,6.1563,6.0859,6.0115,6.0136,5.9959,5.95,5.867,5.9201,5.9689,5.9195,5.6697,5.432,5.4217,5.2987,5.16,6.4388,6.4388,6.4304,6.4304,6.4388,6.4388,6.4388,6.4388,6.4388,6.4388,6.4388,6.4388,6.3743,6.2767,6.2742,0.0,6.2791,6.3982,6.4564,6.4613,6.4755,6.4838,6.4838,6.4863,6.4838,6.4838,6.4838,6.4838,6.4921,6.4838,6.3804,6.1834,6.1785,6.1553,6.1113,6.1205,6.236,6.4314,6.4388,6.4388,6.4613,6.4755,6.4838,6.4896,6.6706,6.7675,6.7755,6.8508,6.9009,6.9078,6.7291,6.5742,6.4779,0.0,0.0,0.0,0.0,0.0,0.0,0.0,0.0,0.0,0.0,0.0,0.0,0.0,0.0,0.0,6.6422,0.0,6.7767,6.8857,0.0,0.0,0.0,6.7164,6.5826,6.5814,6.6781,6.8969,0.0,0.0,6.7288,6.6356,6.5625,6.5625,6.5458,6.534,6.5434,6.3296,6.1741,6.1711,6.0733,5.9548,5.8907,5.9395,5.9584,5.8308,5.7794,5.7677,5.7774,5.7572,5.751,5.751,5.7472,5.7379,5.7366,5.721,5.709,5.585,5.3559,5.1726,5.1422,4.9883,4.8398,6.2607,6.0,6.0,6.0802,6.2134,6.2134,6.2946,6.4388,6.4388,6.3889,6.3279,6.3279,6.2352,6.0766,6.1376,0.0,0.0,0.0,6.2669,6.3279,6.3279,6.3645,6.4363,6.4388,6.4388,6.4388,6.4388,6.4388,6.4388,6.4388,6.1888,5.7373,0.0,0.0,5.7276,5.9741,6.1449,6.2327,6.3621,6.4388,6.4388,6.4388,6.3987,6.3328,6.413,6.4187,6.3619,6.3907,6.443,6.5013,6.2956,6.1726,0.0,0.0,0.0,0.0,0.0,0.0,0.0,0.0,0.0,0.0,0.0,5.932,5.7751,0.0,0.0,0.0,6.1979,6.2898,6.3636,6.3506,0.0,0.0,0.0,0.0,0.0,0.0,0.0,6.761,6.6391,6.5789,6.6987,6.3408,6.1173,6.2623,6.154,6.0874,6.1592,0.0,5.9091,5.9091,5.8619,5.8117,5.7655,5.8549,5.8707,5.6599,5.5646,5.5331,5.5912,5.6079,5.6079,5.617,5.6677,5.6898,5.626,5.4171,5.252,5.1966,5.0481,4.9299,4.9148,4.7827,4.6589,6.026,0.0,0.0,0.0,0.0,5.9629,6.0553,6.1986,6.1986,6.162,6.1215,6.0902,0.0,0.0,0.0,0.0,0.0,0.0,6.0985,6.1742,6.2035,6.2571,6.3435,6.3352,6.3352,6.3435,6.3352,6.3206,6.2913,6.1542,5.8149,5.3182,0.0,0.0,0.0,0.0,5.9183,5.9883,6.2157,6.3435,6.3352,6.3645,6.3304,6.2181,6.2157,6.1815,6.1113,6.0424,6.0365,6.072,5.8333,0.0,0.0,0.0,0.0,0.0,0.0,0.0,0.0,0.0,0.0,0.0,0.0,0.0,0.0,0.0,0.0,0.0,0.0,0.0,5.9419,5.9402,5.9563,0.0,0.0,0.0,0.0,0.0,0.0,0.0,0.0,0.0,6.4813,6.0903,5.8574,0.0,0.0,5.7871,5.8661,5.7883,5.7214,5.7268,5.6831,0.0,5.653,5.7083,5.6919,5.5164,5.4194,5.3913,5.4748,5.4907,5.474,5.44,5.5002,5.5212,5.3941,5.1526,4.9969,4.9703,4.8728,4.7856,4.774,4.6824,4.5864,0.0,0.0,0.0,0.0,0.0,0.0,0.0,0.0,5.6333,5.6999,0.0,5.6935,0.0,0.0,0.0,0.0,0.0,5.8392,0.0,0.0,6.0492,6.1083,6.1107,6.1132,6.1132,6.1132,6.1028,6.0492,5.9313,5.4788,0.0,0.0,0.0,0.0,0.0,0.0,5.4729,5.6719,5.9596,6.1132,6.1101,6.2051,6.2076,6.1052,6.0979,6.093,6.0912,5.8956,5.7471,5.6397,5.3436,0.0,0.0,0.0,0.0,0.0,0.0,0.0,0.0,0.0,0.0,0.0,0.0,0.0,0.0,0.0,0.0,0.0,0.0,0.0,0.0,5.773,0.0,0.0,0.0,0.0,0.0,0.0,0.0,0.0,0.0,0.0,5.9697,5.9297,5.8836,5.7789,0.0,0.0,0.0,0.0,5.6536,5.6508,5.5206,5.4152,5.4152,5.3669,5.3272,5.3133,0.0,0.0,5.3699,5.3669,5.3262,5.2067,5.1928,5.1473,5.0231,4.9778,4.9645,4.9645,4.8699,4.7885,4.774,4.6999,4.6084,0.0,0.0,0.0,0.0,0.0,0.0,0.0,0.0,0.0,5.4963,0.0,5.3647,0.0,0.0,0.0,0.0,0.0,0.0,0.0,0.0,5.602,5.706,5.7107,5.7849,5.7802,0.0,5.5812,5.3376,0.0,0.0,0.0,0.0,0.0,0.0,0.0,0.0,5.1122,5.2465,5.531,5.6819,5.6841,5.7183,5.7183,5.6841,5.6203,5.5007,5.3245,5.2437,5.221,0.0,0.0,0.0,0.0,0.0,0.0,0.0,0.0,0.0,0.0,0.0,0.0,0.0,0.0,0.0,0.0,0.0,0.0,0.0,0.0,0.0,0.0,0.0,5.6432,0.0,0.0,0.0,0.0,0.0,0.0,0.0,0.0,0.0,5.7671,5.5505,5.4284,5.4422,5.3176,5.2179,5.2207,0.0,0.0,0.0,0.0,0.0,0.0,0.0,5.1671,5.0772,5.2025,5.2625,5.1103,5.0877,5.1151,5.1597,0.0,0.0,4.7639,4.7231,4.7231,4.7231,4.8249,4.886,4.8002,4.8831,4.897,0.0,0.0,0.0,0.0,0.0,0.0,0.0,0.0,0.0,5.155,5.0978,0.0,0.0,0.0,0.0,0.0,0.0,0.0,0.0,0.0,0.0,0.0,5.2176,5.3161,0.0,0.0,0.0,0.0,0.0,0.0,0.0,0.0,0.0,0.0,0.0,0.0,4.7921,4.8731,5.1905,5.3623,5.3623,5.3929,5.3929,5.3601,5.3234,5.1807,4.9114,0.0,0.0,0.0,0.0,0.0,0.0,0.0,0.0,0.0,0.0,0.0,0.0,0.0,0.0,0.0,0.0,0.0,0.0,0.0,0.0,0.0,0.0,0.0,0.0,0.0,5.4599,0.0,0.0,0.0,0.0,0.0,0.0,0.0,0.0,0.0,0.0,0.0,5.1889,5.171,5.0656,4.9771,4.9423,4.9575,4.969,0.0,0.0,0.0,0.0,0.0,0.0,0.0,0.0,0.0,0.0,0.0,0.0,0.0,0.0,4.8408,4.6272,4.6243,4.6562,4.6533,0.0,0.0,0.0,0.0,0.0,0.0,0.0,0.0,0.0,0.0,0.0,0.0,0.0,0.0,0.0,0.0,0.0,0.0,4.6903,0.0,0.0,0.0,0.0,0.0,0.0,0.0,0.0,0.0,0.0,0.0,0.0,0.0,0.0,0.0,0.0,0.0,0.0,0.0,0.0,0.0,0.0,4.4862,4.5686,4.9376,5.134,5.1384,5.2394,5.2355,5.1346,5.229,5.1603,4.8767,0.0,0.0,0.0,0.0,0.0,0.0,0.0,0.0,0.0,0.0,0.0,0.0,0.0,0.0,0.0,0.0,0.0,0.0,0.0,0.0,0.0,0.0,0.0,0.0,0.0,0.0,5.3214,5.4561,5.4816,0.0,0.0,0.0,0.0,0.0,0.0,0.0,0.0,0.0,0.0,5.0223,5.0434,4.9502,4.9905,5.0144,5.0093,4.9928,4.9677,4.9571,4.9024,4.8636,0.0,0.0,0.0,0.0,0.0,0.0,0.0,0.0,0.0,0.0,0.0,0.0,0.0,0.0,0.0,0.0,0.0,0.0,0.0,0.0,0.0,0.0,0.0,0.0,0.0,0.0,0.0,0.0,0.0,0.0,0.0,0.0,0.0,0.0,0.0,0.0,0.0,0.0,0.0,0.0,0.0,0.0,0.0,0.0,0.0,0.0,0.0,0.0,0.0,0.0,0.0,0.0,0.0,0.0,4.2102,4.3503,4.5733,4.6934,4.6914,4.7192,4.7192,4.6871,4.7172,4.6461,0.0,0.0,0.0,0.0,0.0,0.0,0.0,0.0,0.0,0.0,0.0,0.0,0.0,0.0,0.0,0.0,0.0,0.0,0.0,0.0,0.0,0.0,0.0,0.0,0.0,0.0,0.0,0.0,4.9661,5.0501,5.1934,0.0,0.0,0.0,0.0,0.0,0.0,0.0,0.0,0.0,0.0,4.8091,4.8483,4.8744,4.8314,4.673,4.7736,4.8086,4.6575,4.5572,4.498,4.5005,0.0,0.0,0.0,0.0,0.0,0.0,0.0,0.0,0.0,0.0,0.0,0.0,0.0,0.0,0.0,0.0,0.0,0.0,0.0,0.0,0.0,0.0,0.0,0.0,0.0,0.0,0.0,0.0,0.0,0.0,0.0,0.0,0.0,0.0,0.0,0.0,0.0,0.0,0.0,0.0,0.0,0.0,0.0,0.0,0.0,0.0,0.0,0.0,0.0,0.0,0.0,0.0,0.0,4.1155,4.2522,4.4071,4.4904,4.4904,4.5207,4.5378,4.5464,4.5681,4.4705,0.0,0.0,0.0,0.0,0.0,0.0,0.0,0.0,0.0,0.0,0.0,0.0,0.0,0.0,0.0,0.0,0.0,0.0,0.0,0.0,0.0,0.0,0.0,0.0,0.0,0.0,0.0,0.0,4.6574,4.7753,4.9692,0.0,0.0,0.0,0.0,0.0,0.0,0.0,0.0,0.0,0.0,4.7197,4.6941,4.7282,0.0,0.0,4.5795,4.6161,4.4016,4.3195,4.2878,4.3317,4.339,0.0,0.0,0.0,0.0,0.0,0.0,0.0,0.0,0.0,0.0,0.0,0.0,0.0,0.0,0.0,0.0,0.0,0.0,0.0,0.0,0.0,0.0,0.0,0.0,0.0,0.0,0.0,0.0,0.0,0.0,0.0,0.0,0.0,0.0,0.0,0.0,0.0,0.0,0.0,0.0,0.0,0.0,0.0,0.0,0.0,0.0,0.0,0.0,0.0,0.0,0.0,0.0,0.0,4.2399,4.3858,4.4639,4.4468,4.5342,4.5773,4.5861,4.6538,4.4891,0.0,0.0,0.0,0.0,0.0,0.0,0.0,0.0,0.0,0.0,0.0,0.0,0.0,0.0,0.0,0.0,0.0,0.0,0.0,0.0,0.0,0.0,0.0,0.0,0.0,0.0,0.0,0.0,0.0,0.0,0.0,0.0,0.0,0.0,0.0,0.0,0.0,0.0,0.0,0.0,0.0,4.7306,4.5186,4.6001,4.5977,0.0,0.0,4.443,4.2536,4.2054,4.2145,4.3317,0.0,0.0,0.0,0.0,0.0,0.0,0.0,0.0,0.0,0.0,0.0,0.0,0.0,0.0,0.0,0.0,0.0,0.0,0.0,0.0,0.0,0.0,0.0,0.0,0.0,0.0,0.0,0.0,0.0,0.0,0.0,0.0,0.0,0.0,0.0,0.0,0.0,0.0,0.0,0.0,0.0,0.0,0.0,0.0,0.0,0.0,0.0,0.0,0.0,0.0,0.0,0.0,0.0,0.0,3.9801,4.1957,4.2141,4.0322,4.0917,4.13,4.13,4.1025,0.0,0.0,0.0,0.0,0.0,0.0,0.0,0.0,0.0,0.0,0.0,0.0,0.0,0.0,0.0,0.0,0.0,0.0,0.0,0.0,0.0,0.0,0.0,0.0,0.0,0.0,0.0,4.0222,0.0,0.0,0.0,0.0,0.0,0.0,0.0,0.0,0.0,0.0,0.0,0.0,0.0,0.0,4.6563,4.5113,4.6611,4.7014,0.0,0.0,4.7184,4.6709,4.3902,4.2414,0.0,0.0,0.0,0.0,0.0,0.0,0.0,0.0,0.0,0.0,0.0,0.0,0.0,0.0,0.0,0.0,0.0,0.0,0.0,0.0,0.0,0.0,0.0,0.0,0.0,0.0,0.0,0.0,0.0,0.0,0.0,0.0,0.0,0.0,0.0,0.0,0.0,0.0,0.0,0.0,0.0,0.0,0.0,0.0,0.0,0.0,0.0,0.0,0.0,0.0,0.0,0.0,0.0,0.0,3.829,3.7933,3.9582,3.9989,3.919,3.9589,3.9813,3.9797,3.9583,3.793,0.0,0.0,0.0,0.0,0.0,0.0,0.0,0.0,0.0,0.0,0.0,0.0,0.0,0.0,0.0,0.0,0.0,0.0,0.0,0.0,0.0,0.0,0.0,0.0,0.0,0.0,0.0,0.0,0.0,0.0,0.0,0.0,0.0,0.0,0.0,0.0,0.0,0.0,0.0,0.0,0.0,0.0,4.56,4.6283,0.0,0.0,0.0,4.583,4.4903,0.0,0.0,0.0,0.0,0.0,0.0,0.0,0.0,0.0,0.0,0.0,0.0,0.0,0.0,0.0,0.0,0.0,0.0,0.0,0.0,0.0,0.0,0.0,0.0,0.0,0.0,0.0,0.0,0.0,0.0,0.0,0.0,0.0,0.0,0.0,0.0,0.0,0.0,0.0,0.0,0.0,0.0,0.0,0.0,0.0,0.0,0.0,0.0,0.0,0.0,0.0,0.0,0.0,0.0,0.0,0.0,0.0,3.6117,3.7081,3.8034,3.8796,3.914,3.9235,3.914,3.9343,3.7819,0.0,0.0,0.0,0.0,0.0,0.0,0.0,0.0,0.0,0.0,0.0,0.0,0.0,0.0,0.0,0.0,0.0,0.0,0.0,0.0,0.0,0.0,0.0,0.0,0.0,0.0,0.0,0.0,0.0,0.0,0.0,0.0,0.0,0.0,0.0,0.0,0.0,0.0,0.0,0.0,0.0,4.4049,4.583,4.5283,4.5161,0.0,0.0,4.3097,4.1247,4.0881,0.0,0.0,0.0,0.0,0.0,0.0,0.0,0.0,0.0,0.0,0.0,0.0,0.0,0.0,0.0,0.0,0.0,0.0,0.0,0.0,0.0,0.0,0.0,0.0,0.0,0.0,0.0,0.0,0.0,0.0,0.0,0.0,0.0,0.0,0.0,0.0,0.0,0.0,0.0,0.0,0.0,0.0,0.0,0.0,0.0,0.0,0.0,0.0,0.0,0.0,0.0,0.0,0.0,0.0,0.0,0.0,3.3782,3.5065,3.512,3.396,3.445,3.4463,3.3987,3.362,3.2187,0.0,0.0,0.0,0.0,0.0,0.0,0.0,0.0,0.0,0.0,0.0,0.0,0.0,0.0,0.0,0.0,0.0,0.0,0.0,0.0,0.0,0.0,0.0,0.0,0.0,0.0,0.0,0.0,0.0,0.0,0.0,0.0,0.0,0.0,0.0,0.0,0.0,0.0,0.0,0.0,0.0,4.3219,4.2804,4.3292,0.0,0.0,0.0,0.0,4.5416,4.4586,0.0,0.0,0.0,0.0,0.0,0.0,0.0,0.0,0.0,0.0,0.0,0.0,0.0,0.0,0.0,0.0,0.0,0.0,0.0,0.0,0.0,0.0,0.0,0.0,0.0,0.0,0.0,0.0,0.0,0.0,0.0,0.0,0.0,0.0,0.0,0.0,0.0,0.0,0.0,0.0,0.0,0.0,0.0,0.0,0.0,0.0,0.0,0.0,0.0,0.0,0.0,0.0,0.0,0.0,0.0,0.0,3.1621,3.2557,3.282,3.2437,3.2501,3.2469,3.206,3.1515,3.0151,0.0,0.0,0.0,0.0,0.0,0.0,0.0,0.0,0.0,0.0,0.0,0.0,0.0,0.0,0.0,0.0,0.0,0.0,0.0,0.0,0.0,0.0,0.0,0.0,0.0,0.0,0.0,0.0,0.0,0.0,0.0,0.0,0.0,0.0,0.0,0.0,0.0,0.0,0.0,0.0,4.2682,4.3536,4.4049,0.0,0.0,0.0,0.0,0.0,0.0,4.4244,4.3967,0.0,0.0,0.0,0.0,0.0,0.0,0.0,0.0,0.0,0.0,0.0,0.0,0.0,0.0,0.0,0.0,0.0,0.0,0.0,0.0,0.0,0.0,0.0,0.0,0.0,0.0,0.0,0.0,0.0,0.0,0.0,0.0,0.0,0.0,0.0,0.0,0.0,0.0,0.0,0.0,0.0,0.0,0.0,0.0,0.0,0.0,0.0,0.0,0.0,0.0,0.0,0.0,0.0,0.0,0.0,2.9917,3.0476,3.1268,3.2294,3.1878,3.1687,3.1476,3.1021,2.9749,2.7684,0.0,0.0,0.0,0.0,0.0,0.0,0.0,0.0,0.0,0.0,0.0,0.0,0.0,0.0,0.0,0.0,0.0,0.0,0.0,0.0,0.0,0.0,0.0,0.0,0.0,0.0,0.0,0.0,0.0,0.0,0.0,0.0,0.0,0.0,0.0,0.0,0.0,0.0,0.0,4.3341,4.4635,0.0,0.0,0.0,0.0,0.0,0.0,0.0,0.0,4.3324,0.0,0.0,0.0,0.0,0.0,0.0,0.0,0.0,0.0,0.0,0.0,0.0,0.0,0.0,0.0,0.0,0.0,0.0,0.0,0.0,0.0,0.0,0.0,0.0,0.0,0.0,0.0,0.0,0.0,0.0,0.0,0.0,0.0,0.0,0.0,0.0,0.0,0.0,0.0,0.0,0.0,0.0,0.0,0.0,0.0,0.0,0.0,0.0,0.0,0.0,0.0,0.0,0.0,0.0,0.0,0.0,3.0476,3.1099,3.183,3.1683,3.1398,3.0904,3.0721,2.9828,2.8093,0.0,0.0,0.0,0.0,0.0,0.0,0.0,0.0,0.0,0.0,0.0,0.0,0.0,0.0,0.0,0.0,0.0,0.0,0.0,0.0,0.0,0.0,0.0,0.0,0.0,0.0,0.0,0.0,0.0,0.0,0.0,0.0,0.0,0.0,0.0,0.0,0.0,0.0,4.5806,4.605,0.0,0.0,0.0,0.0,0.0,0.0,0.0,0.0,4.3967,0.0,0.0,0.0,0.0,0.0,0.0,0.0,0.0,0.0,0.0,0.0,0.0,0.0,0.0,0.0,0.0,0.0,0.0,0.0,0.0,0.0,0.0,0.0,0.0,0.0,0.0,0.0,0.0,0.0,0.0,0.0,0.0,0.0,0.0,0.0,0.0,0.0,0.0,0.0,0.0,0.0,0.0,0.0,0.0,0.0,0.0,0.0,0.0,0.0,0.0,0.0,0.0,0.0,0.0,0.0,0.0,0.0,0.0,3.0593,3.1138,2.9922,2.9704,3.059,2.9065,2.7645,0.0,0.0,0.0,0.0,0.0,0.0,0.0,0.0,0.0,0.0,0.0,0.0,0.0,0.0,0.0,0.0,0.0,0.0,0.0,0.0,0.0,0.0,0.0,0.0,0.0,0.0,0.0,0.0,0.0,0.0,0.0,0.0,0.0,0.0,0.0,0.0,0.0,0.0,0.0,0.0,0.0,0.0,0.0,0.0,0.0,0.0,0.0,0.0,0.0,0.0,0.0,0.0,0.0,0.0,0.0,0.0,0.0,0.0,0.0,0.0,0.0,0.0,0.0,0.0,0.0,0.0,0.0,0.0,0.0,0.0,0.0,0.0,0.0,0.0,0.0,0.0,0.0,0.0,0.0,0.0,0.0,0.0,0.0,0.0,0.0,0.0,0.0,0.0,0.0,0.0,0.0,0.0,0.0,0.0,0.0,0.0,0.0,0.0,0.0,0.0,0.0,0.0,0.0,0.0,0.0,0.0,0.0,0.0,3.0047,2.9905,2.8014,2.7735,2.9072,2.6566,2.5153,0.0,0.0,0.0,0.0,0.0,0.0,0.0,0.0,0.0,0.0,0.0,0.0,0.0,0.0,0.0,0.0,0.0,0.0,0.0,0.0,0.0,0.0,0.0,0.0,0.0,0.0,0.0,0.0,0.0,0.0,0.0,0.0,0.0,0.0,0.0,0.0,0.0,0.0,0.0,0.0,0.0,0.0,0.0,0.0,0.0,0.0,0.0,0.0,4.4209,0.0,0.0,0.0,0.0,0.0,0.0,0.0,0.0,0.0,0.0,0.0,0.0,0.0,0.0,0.0,0.0,0.0,0.0,0.0,0.0,0.0,0.0,0.0,0.0,0.0,0.0,0.0,0.0,0.0,0.0,0.0,0.0,0.0,0.0,0.0,0.0,0.0,0.0,0.0,0.0,0.0,0.0,0.0,0.0,0.0,0.0,0.0,0.0,0.0,0.0,0.0,0.0,0.0,0.0,0.0,0.0,0.0,0.0,0.0,2.9565,2.7443,2.7152,2.6031,2.4049,2.2971,2.3875,0.0,0.0,0.0,0.0,0.0,0.0,0.0,0.0,0.0,0.0,0.0,0.0,0.0,0.0,0.0,0.0,0.0,0.0,0.0,0.0,0.0,0.0,0.0,0.0,0.0,0.0,0.0,0.0,0.0,0.0,0.0,0.0,0.0,0.0,0.0,0.0,0.0,0.0,0.0,0.0,0.0,0.0,0.0,0.0,0.0,0.0,0.0,0.0,0.0,0.0,0.0,0.0,0.0,0.0,0.0,0.0,0.0,0.0,0.0,0.0,0.0,0.0,0.0,0.0,0.0,0.0,0.0,0.0,0.0,0.0,0.0,0.0,0.0,0.0,0.0,0.0,0.0,0.0,0.0,0.0,0.0,0.0,0.0,0.0,0.0,0.0,0.0,0.0,0.0,0.0,0.0,0.0,0.0,0.0,0.0,0.0,0.0,0.0,0.0,0.0,0.0,0.0,0.0,0.0,0.0,0.0,0.0,0.0,2.8749,2.652,2.644,2.397,1.886,2.0421,2.1956,0.0,0.0,0.0,0.0,0.0,0.0,0.0,0.0,0.0,0.0,0.0,0.0,0.0,0.0,0.0,0.0,0.0,0.0,0.0,0.0,0.0,0.0,0.0,0.0,0.0,0.0,0.0,0.0,0.0,0.0,0.0,0.0,0.0,0.0,0.0,0.0,0.0,0.0,0.0,0.0,0.0,0.0,0.0,0.0,0.0,0.0,0.0,0.0,0.0,0.0,0.0,0.0,0.0,0.0,0.0,0.0,0.0,0.0,0.0,0.0,0.0,0.0,0.0,0.0,0.0,0.0,0.0,0.0,0.0,0.0,0.0,0.0,0.0,0.0,0.0,0.0,0.0,0.0,0.0,0.0,0.0,0.0,0.0,0.0,0.0,0.0,0.0,0.0,0.0,0.0,0.0,0.0,0.0,0.0,0.0,0.0,0.0,0.0,0.0,0.0,0.0,0.0,0.0,0.0,0.0,0.0,0.0,0.0,0.0,2.5356,2.5568,2.2628,1.6459,1.8569,2.0094,0.0,0.0,0.0,0.0,0.0,0.0,0.0,0.0,0.0,0.0,0.0,0.0,0.0,0.0,0.0,0.0,0.0,0.0,0.0,0.0,0.0,0.0,0.0,0.0,0.0,0.0,0.0,0.0,0.0,0.0,0.0,0.0,0.0,0.0,0.0,0.0,0.0,0.0,0.0,0.0,0.0,0.0,0.0,0.0,0.0,0.0,0.0,0.0,0.0,0.0,0.0,0.0,0.0,0.0,0.0,0.0,0.0,0.0,0.0,0.0,0.0,0.0,0.0,0.0,0.0,0.0,0.0,0.0,0.0,0.0,0.0,0.0,0.0,0.0,0.0,0.0,0.0,0.0,0.0,0.0,0.0,0.0,0.0,0.0,0.0,0.0,0.0,0.0,0.0,0.0,0.0,0.0,0.0,0.0,0.0,0.0,0.0,0.0,0.0,0.0,0.0,0.0,0.0,0.0,0.0,0.0,0.0,0.0,0.0,2.2962,2.4288,2.2577,1.7729,1.7368,1.8459,0.0,0.0,0.0,0.0,0.0,0.0,0.0,0.0,0.0,0.0,0.0,0.0,0.0,0.0,0.0,0.0,0.0,0.0,0.0,0.0,0.0,0.0,0.0,0.0,0.0,0.0,0.0,0.0,0.0,0.0,0.0,0.0,0.0,0.0,0.0,0.0,0.0,0.0,0.0,0.0,0.0,0.0,0.0,0.0,0.0,0.0,0.0,0.0,0.0,0.0,0.0,0.0,0.0,0.0,0.0,0.0,0.0,0.0,0.0,0.0,0.0,0.0,0.0,0.0,0.0,0.0,0.0,0.0,0.0,0.0,0.0,0.0,0.0,0.0,0.0,0.0,0.0,0.0,0.0,0.0,0.0,0.0,0.0,0.0,0.0,0.0,0.0,0.0,0.0,0.0,0.0,0.0,0.0,0.0,0.0,0.0,0.0,0.0,0.0,0.0,0.0,0.0,0.0,0.0,0.0,0.0,0.0,0.0,0.0,2.246,2.1161,1.9845,1.82,1.8682,1.9221,1.9815,0.0,0.0,0.0,0.0,0.0,0.0,0.0,0.0,0.0,0.0,0.0,0.0,0.0,0.0,0.0,0.0,0.0,0.0,0.0,0.0,0.0,0.0,0.0,0.0,0.0,0.0,0.0,0.0,0.0,0.0,0.0,0.0,0.0,0.0,0.0,0.0,0.0,0.0,0.0,0.0,0.0,0.0,0.0,0.0,0.0,0.0,0.0,0.0,0.0,0.0,0.0,0.0,0.0,0.0,0.0,0.0,0.0,0.0,0.0,0.0,0.0,0.0,0.0,0.0,0.0,0.0,0.0,0.0,0.0,0.0,0.0,0.0,0.0,0.0,0.0,0.0,0.0,0.0,0.0,0.0,0.0,0.0,0.0,0.0,0.0,0.0,0.0,0.0,0.0,0.0,0.0,0.0,0.0,0.0,0.0,0.0,0.0,0.0,0.0,0.0,0.0,0.0,0.0,0.0,0.0,0.0,0.0,0.0,2.2646,1.9957,1.8405,1.7835,1.8121,1.8255,0.0,0.0,0.0,0.0,0.0,0.0,0.0,0.0,0.0,0.0,0.0,0.0,0.0,0.0,0.0,0.0,0.0,0.0,0.0,0.0,0.0,0.0,0.0,0.0,0.0,0.0,0.0,0.0,0.0,0.0,0.0,0.0,0.0,0.0,0.0,0.0,0.0,0.0,0.0,0.0,0.0,0.0,0.0,0.0,0.0,0.0,0.0,0.0,0.0,0.0,0.0,0.0,0.0,0.0,0.0,0.0,0.0,0.0,0.0,0.0,0.0,0.0,0.0,0.0,0.0,0.0,0.0,0.0,0.0,0.0,0.0,0.0,0.0,0.0,0.0,0.0,0.0,0.0,0.0,0.0,0.0,0.0,0.0,0.0,0.0,0.0,0.0,0.0,0.0,0.0,0.0,0.0,0.0,0.0,0.0,0.0,0.0,0.0,0.0,0.0,0.0,0.0,0.0,0.0,0.0,0.0,0.0,0.0,2.6743,2.3937,2.1198,1.8783,1.6465,1.4998,1.5111,0.0,0.0,0.0,0.0,0.0,0.0,0.0,0.0,0.0,0.0,0.0,0.0,0.0,0.0,0.0,0.0,0.0,0.0,0.0,0.0,0.0,0.0,0.0,0.0,0.0,0.0,0.0,0.0,0.0,0.0,0.0,0.0,0.0,0.0,0.0,0.0,0.0,0.0,0.0,0.0,0.0,0.0,0.0,0.0,0.0,0.0,0.0,0.0,0.0,0.0,0.0,0.0,0.0,0.0,0.0,0.0,0.0,0.0,0.0,0.0,0.0,0.0,0.0,0.0,0.0,0.0,0.0,0.0,0.0,0.0,0.0,0.0,0.0,0.0,0.0,0.0,0.0,0.0,0.0,0.0,0.0,0.0,0.0,0.0,0.0,0.0,0.0,0.0,0.0,0.0,0.0,0.0,0.0,0.0,0.0,0.0,0.0,0.0,0.0,0.0,0.0,0.0,0.0,0.0,0.0,0.0,0.0,0.0,0.0,2.4859,0.0,2.0351,0.0,1.7947,1.7116,0.0,0.0,0.0,0.0,0.0,0.0,0.0,0.0,0.0,0.0,0.0,0.0,0.0,0.0,0.0,0.0,0.0,0.0,0.0,0.0,0.0,0.0,0.0,0.0,0.0,0.0,0.0,0.0,0.0,0.0,0.0,0.0,0.0,0.0,0.0,0.0,0.0,0.0,0.0,0.0,0.0,0.0,0.0,0.0,0.0,0.0,0.0,0.0,0.0,0.0,0.0,0.0,0.0,0.0,0.0,0.0,0.0,0.0,0.0,0.0,0.0,0.0,0.0,0.0,0.0,0.0,0.0,0.0,0.0,0.0,0.0,0.0,0.0,0.0,0.0,0.0,0.0,0.0,0.0,0.0,0.0,0.0,0.0,0.0,0.0,0.0,0.0,0.0,0.0,0.0,0.0,0.0,0.0,0.0,0.0,0.0,0.0,0.0,0.0,0.0,0.0,0.0,0.0,0.0,0.0,0.0,0.0,0.0,0.0,2.517,2.4002,2.2784,2.1449,2.0179,1.8877,0.0,0.0,0.0,0.0,0.0,0.0,0.0,0.0,0.0,0.0,0.0,0.0,0.0,0.0,0.0,0.0,0.0,0.0,0.0,0.0,0.0,0.0,0.0,0.0,0.0,0.0,0.0,0.0,0.0,0.0,0.0,0.0,0.0,0.0,0.0,0.0,0.0,0.0,0.0,0.0,0.0,0.0,0.0,0.0,0.0,0.0,0.0,0.0,0.0,0.0,0.0,0.0,0.0,0.0,0.0,0.0,0.0,0.0,0.0,0.0,0.0,0.0,0.0,0.0,0.0,0.0,0.0,0.0,0.0,0.0,0.0,0.0,0.0,0.0,0.0,0.0,0.0,0.0,0.0,0.0,0.0,0.0,0.0,0.0,0.0,0.0,0.0,0.0,0.0,0.0,0.0,0.0,0.0,0.0,0.0,0.0,0.0,0.0,0.0,0.0,0.0,0.0,0.0,0.0,0.0,0.0,0.0,0.0,0.0,0.0,2.7031,2.5572,2.0329,2.1175,2.013,0.0,0.0,0.0,0.0,0.0,0.0,0.0,0.0,0.0,0.0,0.0,0.0,0.0,0.0,0.0,0.0,0.0,0.0,0.0,0.0,0.0,0.0,0.0,0.0,0.0,0.0,0.0,0.0,0.0,0.0,0.0,0.0,0.0,0.0,0.0,0.0,0.0,0.0,0.0,0.0,0.0,0.0,0.0,0.0,0.0,0.0,0.0,0.0,0.0,0.0,0.0,0.0,0.0,0.0,0.0,0.0,0.0,0.0,0.0,0.0,0.0,0.0,0.0,0.0,0.0,0.0,0.0,0.0,0.0,0.0,0.0,0.0,0.0,0.0,0.0,0.0,0.0,0.0,0.0,0.0,0.0,0.0,0.0,0.0,0.0,0.0,0.0,0.0,0.0,0.0,0.0,0.0,0.0,0.0,0.0,0.0,0.0,0.0,0.0,0.0,0.0,0.0,0.0,0.0,0.0,0.0,0.0,0.0,0.0,0.0,2.7892,0.0,2.2353,2.0076,1.9133,1.9665,0.0,0.0,0.0,0.0,0.0,0.0,0.0,0.0,0.0,0.0,0.0,0.0,0.0,0.0,0.0,0.0,0.0,0.0,0.0,0.0,0.0,0.0,0.0,0.0,0.0,0.0,0.0,0.0,0.0,0.0,0.0,0.0,0.0,0.0,0.0,0.0,0.0,0.0,0.0,0.0,0.0,0.0,0.0,0.0,0.0,0.0,0.0,0.0,0.0,0.0,0.0,0.0,0.0,0.0,0.0,0.0,0.0,0.0,0.0,0.0,0.0,0.0,0.0,0.0,0.0,0.0,0.0,0.0,0.0,0.0,0.0,0.0,0.0,0.0,0.0,0.0,0.0,0.0,0.0,0.0,0.0,0.0,0.0,0.0,0.0,0.0,0.0,0.0,0.0,0.0,0.0,0.0,0.0,0.0,0.0,0.0,0.0,0.0,0.0,0.0,0.0,0.0,0.0,0.0,0.0,0.0,0.0,0.0,0.0,0.0,0.0,2.425,2.1369,2.0004,0.0,0.0,0.0,0.0,0.0,0.0,0.0,0.0,0.0,0.0,0.0,0.0,0.0,0.0,0.0,0.0,0.0,0.0,0.0,0.0,0.0,0.0,0.0,0.0,0.0,0.0,0.0,0.0,0.0,0.0,0.0,0.0,0.0,0.0,0.0,0.0,0.0,0.0,0.0,0.0,0.0,0.0,0.0,0.0,0.0,0.0,0.0,0.0,0.0,0.0,0.0,0.0,0.0,0.0,0.0,0.0,0.0,0.0,0.0,0.0,0.0,0.0,0.0,0.0,0.0,0.0,0.0,0.0,0.0,0.0,0.0,0.0,0.0,0.0,0.0,0.0,0.0,0.0,0.0,0.0,0.0,0.0,0.0,0.0,0.0,0.0,0.0,0.0,0.0,0.0,0.0,0.0,0.0,0.0,0.0,0.0,0.0,0.0,0.0,0.0,0.0,0.0,0.0,0.0,0.0,0.0,0.0,0.0,0.0,0.0,0.0,2.7131,2.5556,2.394,0.0,1.9494,0.0,0.0,0.0,0.0,0.0,0.0,0.0,0.0,0.0,0.0,0.0,0.0,0.0,0.0,0.0,0.0,0.0,0.0,0.0,0.0,0.0,0.0,0.0,0.0,0.0,0.0,0.0,0.0,0.0,0.0,0.0,0.0,0.0,0.0,0.0,0.0,0.0,0.0,0.0,0.0,0.0,0.0,0.0,0.0,0.0,0.0,0.0,0.0,0.0,0.0,0.0,0.0,0.0,0.0,0.0,0.0,0.0,0.0,0.0,0.0,0.0,0.0,0.0,0.0,0.0,0.0,0.0,0.0,0.0,0.0,0.0,0.0,0.0,0.0,0.0,0.0,0.0,0.0,0.0,0.0,0.0,0.0,0.0,0.0,0.0,0.0,0.0,0.0,0.0,0.0,0.0,0.0,0.0,0.0,0.0,0.0,0.0,0.0,0.0,0.0,0.0,0.0,0.0,0.0,0.0,0.0,0.0,0.0,0.0,0.0,0.0,0.0,2.3916,2.2784,2.0945,0.0,0.0,0.0,0.0,0.0,0.0,0.0,0.0,0.0,0.0,0.0,0.0,0.0,0.0,0.0,0.0,0.0,0.0,0.0,0.0,0.0,0.0,0.0,0.0,0.0,0.0,0.0,0.0,0.0,0.0,0.0,0.0,0.0,0.0,0.0,0.0,0.0,0.0,0.0,0.0,0.0,0.0,0.0,0.0,0.0,0.0,0.0,0.0,0.0,0.0,0.0,0.0,0.0,0.0,0.0,0.0,0.0,0.0,0.0,0.0,0.0,0.0,0.0,0.0,0.0,0.0,0.0,0.0,0.0,0.0,0.0,0.0,0.0,0.0,0.0,0.0,0.0,0.0,0.0,0.0,0.0,0.0,0.0,0.0,0.0,0.0,0.0,0.0,0.0,0.0,0.0,0.0,0.0,0.0,0.0,0.0,0.0,0.0,0.0,0.0,0.0,0.0,0.0,0.0,0.0,0.0,0.0,0.0,0.0,0.0,2.5448,2.5075,2.4358,2.3458,2.2527,0.0,0.0,0.0,0.0,0.0,0.0,0.0,0.0,0.0,0.0,0.0,0.0,0.0,0.0,0.0,0.0,0.0,0.0,0.0,0.0,0.0,0.0,0.0,0.0,0.0,0.0,0.0,0.0,0.0,0.0,0.0,0.0,0.0,0.0,0.0,0.0,0.0,0.0,0.0,0.0,0.0,0.0,0.0,0.0,0.0,0.0,0.0,0.0,0.0,0.0,0.0,0.0,0.0,0.0,0.0,0.0,0.0,0.0,0.0,0.0,0.0,0.0,0.0,0.0,0.0,0.0,0.0,0.0,0.0,0.0,0.0,0.0,0.0,0.0,0.0,0.0,0.0,0.0,0.0,0.0,0.0,0.0,0.0,0.0,0.0,0.0,0.0,0.0,0.0,0.0,0.0,0.0,0.0,0.0,0.0,0.0,0.0,0.0,0.0,0.0,0.0,0.0,0.0,0.0,0.0,0.0,0.0,0.0,0.0,0.0,0.0,0.0,0.0,0.0,2.3763,0.0,0.0,0.0,0.0,0.0,0.0,0.0,0.0,0.0,0.0,0.0,0.0,0.0,0.0,0.0,0.0,0.0,0.0,0.0,0.0,0.0,0.0,0.0,0.0,0.0,0.0,0.0,0.0,0.0,0.0,0.0,0.0,0.0,0.0,0.0,0.0,0.0,0.0,0.0,0.0,0.0,0.0,0.0,0.0,0.0,0.0,0.0,0.0,0.0,0.0,0.0,0.0,0.0,0.0,0.0,0.0,0.0,0.0,0.0,0.0,0.0,0.0,0.0,0.0,0.0,0.0,0.0,0.0,0.0,0.0,0.0,0.0,0.0,0.0,0.0,0.0,0.0,0.0,0.0,0.0,0.0,0.0,0.0,0.0,0.0,0.0,0.0,0.0,0.0,0.0,0.0,0.0,0.0,0.0,0.0,0.0,0.0,0.0,0.0,0.0,0.0,0.0,0.0,0.0,0.0,0.0,0.0,0.0,0.0,0.0,0.0,0.0,0.0,0.0,0.0,0.0,0.0,0.0,0.0,0.0,0.0,0.0,0.0,0.0,0.0,0.0,0.0,0.0,0.0,0.0,0.0,0.0,0.0,0.0,0.0,0.0,0.0,0.0,0.0,0.0,0.0,0.0,0.0,0.0,0.0,0.0,0.0,0.0,0.0,0.0,0.0,0.0,0.0,0.0,0.0,0.0,0.0,0.0,0.0,0.0,0.0,0.0,0.0,0.0,0.0,0.0,0.0,0.0,0.0,0.0,0.0,0.0,0.0,0.0,0.0,0.0,0.0,0.0,0.0,0.0,0.0,0.0,0.0,0.0,0.0,0.0,0.0,0.0,0.0,0.0,0.0,0.0,0.0,0.0,0.0,0.0,0.0,0.0,0.0,0.0,0.0,0.0,0.0,0.0,0.0,0.0,0.0,0.0,0.0,0.0,0.0,0.0,0.0,0.0,0.0,0.0,0.0,0.0,0.0,0.0,0.0,0.0,0.0,0.0,0.0,0.0,0.0,0.0,0.0,0.0,0.0,0.0,0.0,0.0,0.0,0.0,0.0,0.0,0.0,0.0,0.0,0.0,0.0,0.0,0.0,0.0,0.0,0.0,0.0,0.0,0.0,0.0,0.0,0.0,0.0,0.0,0.0,0.0,0.0,0.0,0.0,0.0,0.0,0.0,0.0,0.0,0.0,0.0,0.0,0.0,0.0,0.0,0.0,0.0,0.0,0.0,0.0,0.0,0.0,0.0,0.0,0.0,0.0,0.0,0.0,0.0,0.0,0.0,0.0,0.0,0.0,0.0,0.0,0.0,0.0,0.0,0.0,0.0,0.0,0.0,0.0,0.0,0.0,0.0,0.0,0.0,0.0,0.0,0.0,0.0,0.0,0.0,0.0,0.0,0.0,0.0,0.0,0.0,0.0,0.0,0.0,0.0,0.0,0.0,0.0,0.0,0.0,0.0,0.0,0.0,0.0,0.0,0.0,0.0,0.0,0.0,0.0,0.0,0.0,0.0,0.0,0.0,0.0,0.0,0.0,0.0,0.0,0.0,0.0,0.0,0.0,0.0,0.0,0.0,0.0,0.0,0.0,0.0,0.0,0.0,0.0,0.0,0.0,0.0,0.0,0.0,0.0,0.0,0.0,0.0,0.0,0.0,0.0,0.0,0.0,0.0,0.0,0.0,0.0,0.0,0.0,0.0,0.0,0.0,0.0,0.0,0.0,0.0,0.0,0.0,0.0,0.0,0.0,0.0,0.0,0.0,0.0,0.0,0.0,0.0,0.0,0.0,0.0,0.0,0.0,0.0,0.0,0.0,0.0,0.0,0.0,0.0,0.0,0.0,0.0,0.0,0.0,0.0,0.0,0.0,0.0,0.0,0.0,0.0,0.0,0.0,0.0,0.0,0.0,0.0,0.0,0.0,0.0,0.0,0.0,0.0,0.0,0.0,0.0,0.0,0.0,0.0,0.0,0.0,0.0,0.0,0.0,0.0,0.0,0.0,0.0,0.0,0.0,0.0,0.0,0.0,0.0,0.0,0.0,0.0,0.0,0.0,0.0,0.0,0.0,0.0,0.0,0.0,0.0,0.0,0.0,0.0,0.0,0.0,0.0,0.0,0.0,0.0,0.0,0.0,0.0,0.0,0.0,0.0,0.0,0.0,0.0,0.0,0.0,0.0,0.0,0.0,0.0,0.0,0.0,0.0,0.0,0.0,0.0,0.0,0.0,0.0,0.0,0.0,0.0,0.0,0.0,0.0,0.0,0.0,0.0,0.0,0.0,0.0,0.0,0.0,0.0,0.0,0.0,0.0,0.0,0.0,0.0,0.0,0.0,0.0,0.0,0.0,0.0,0.0,0.0,0.0,0.0,0.0,0.0,0.0,0.0,0.0,0.0,0.0,0.0,0.0,0.0,0.0,0.0,0.0,0.0,0.0,0.0,0.0,0.0,0.0,0.0,0.0,0.0,0.0,0.0,0.0,0.0,0.0,0.0,0.0,0.0,0.0,0.0,0.0,0.0,0.0,0.0,0.0,0.0,0.0,0.0,0.0,0.0,0.0,0.0,0.0,0.0,0.0,0.0,0.0,0.0,0.0,0.0,0.0,0.0,0.0,0.0,0.0,0.0,0.0,0.0,0.0,0.0,0.0,0.0,0.0,0.0,0.0,0.0,0.0,0.0,0.0,0.0,0.0,0.0,0.0,0.0,0.0,0.0,0.0,0.0,0.0,0.0,0.0,0.0,0.0,0.0,0.0,0.0,0.0,0.0,0.0,0.0,0.0,0.0,0.0,0.0,0.0,0.0,0.0,0.0,0.0,0.0,0.0,0.0,0.0,0.0,0.0,0.0,0.0,0.0,0.0,0.0,0.0,0.0,0.0,0.0,0.0,0.0,0.0,0.0,0.0,0.0,0.0,0.0,0.0,0.0,0.0,0.0,0.0,0.0,0.0,0.0,0.0,0.0,0.0,0.0,0.0,0.0,0.0,0.0,0.0,0.0,0.0,0.0,0.0,0.0,0.0,0.0,0.0,0.0,0.0,0.0,0.0,0.0,0.0,0.0,0.0,0.0,0.0,0.0,0.0,0.0,0.0,0.0,0.0,0.0,0.0,0.0,0.0,0.0,0.0,0.0,0.0,0.0,0.0,0.0,0.0,0.0,0.0,0.0,0.0,0.0,0.0,0.0,0.0,0.0,0.0,0.0,0.0,0.0,0.0,0.0,0.0,0.0,0.0,0.0,0.0,0.0,0.0,0.0,0.0,0.0,0.0,0.0,0.0,0.0,0.0,0.0,0.0,0.0,0.0,0.0,0.0,0.0,0.0,0.0,0.0,0.0,0.0,0.0,0.0,0.0,0.0,0.0,0.0,0.0,0.0,0.0,0.0,0.0,0.0,0.0,0.0,0.0,0.0,0.0,0.0,0.0,0.0,0.0,0.0,0.0,0.0,0.0,0.0,0.0,0.0,0.0,0.0,0.0,0.0,0.0,0.0,0.0,0.0,0.0,0.0,0.0,0.0,0.0,0.0,0.0,0.0,0.0,0.0,0.0,0.0,0.0,0.0,0.0,0.0,0.0,0.0,0.0,0.0,0.0,0.0,0.0,0.0,0.0,0.0,0.0,0.0,0.0,0.0,0.0,0.0,0.0,0.0,0.0,0.0,0.0,0.0,0.0,0.0,0.0,0.0,0.0,0.0,0.0,0.0,0.0,0.0,0.0,0.0,0.0,0.0,0.0,0.0,0.0,0.0,0.0,0.0,0.0,0.0,0.0,0.0,0.0,0.0,0.0,0.0,0.0,0.0,0.0,0.0,0.0,0.0,0.0,0.0,0.0,0.0,0.0,0.0,0.0,0.0,0.0,0.0,0.0,0.0,0.0,0.0,0.0,0.0,0.0,0.0,0.0,0.0,0.0,0.0,0.0,0.0,0.0,0.0,0.0,0.0,0.0,0.0,0.0,0.0,0.0,0.0,0.0,0.0,0.0,0.0,0.0,0.0,0.0,0.0,0.0,0.0,0.0,0.0,0.0,0.0,0.0,0.0,0.0,0.0,0.0,0.0,0.0,0.0,0.0,0.0,0.0,0.0,0.0,0.0,0.0,0.0,0.0,0.0,0.0,0.0,0.0,0.0,0.0,0.0,0.0,0.0,0.0,0.0,0.0,0.0,0.0,0.0,0.0,0.0,0.0,0.0,0.0,0.0,0.0,0.0,0.0,0.0,0.0,0.0,0.0,0.0,0.0,0.0,0.0,0.0,0.0,0.0,0.0,0.0,0.0,0.0,0.0,0.0,0.0,0.0,0.0,0.0,0.0,0.0,0.0,0.0,0.0,0.0,0.0,0.0,0.0,0.0,0.0,0.0,0.0,0.0,0.0,0.0,0.0,0.0]}]]]